<?xml version="1.0" encoding="UTF-8" standalone="no" ?>
<gpx xmlns="http://www.topografix.com/GPX/1/1" xmlns:xsi="http://www.w3.org/2001/XMLSchema-instance" xsi:schemaLocation="http://www.topografix.com/GPX/1/1 http://www.topografix.com/GPX/1/1/gpx.xsd" version="1.1" creator="VisuGPX - https://www.visugpx.com">
  <metadata>
    <name>Serre de Barre</name>
    <desc><![CDATA[Randonnée de 2h35 en marche rapide sportive, sans les pauses. Montée dans les châtaigners, assez raide vers le sommet. Belle vue à la vigie 360°sur les Alpes, du Ventoux au Mont-Blanc par temps dégagé et sur les Cévennes.]]></desc>
  </metadata>
  <trk>
    <name><![CDATA[Rando Serre de Barre 10 05 2014]]></name>
    <trkseg>
      <trkpt lat="44.38455" lon="4.0986">
        <ele>523.40002441406</ele>
        <time>2014-05-10T12:58:01.000Z</time>
      </trkpt>
      <trkpt lat="44.38461" lon="4.09849">
        <ele>527.40002441406</ele>
        <time>2014-05-10T12:58:09.000Z</time>
      </trkpt>
      <trkpt lat="44.38461" lon="4.09842">
        <ele>529.40002441406</ele>
        <time>2014-05-10T12:58:15.000Z</time>
      </trkpt>
      <trkpt lat="44.38461" lon="4.09833">
        <ele>531.20001220703</ele>
        <time>2014-05-10T12:58:21.000Z</time>
      </trkpt>
      <trkpt lat="44.38462" lon="4.09832">
        <ele>531.59997558594</ele>
        <time>2014-05-10T12:58:23.000Z</time>
      </trkpt>
      <trkpt lat="44.38458" lon="4.09828">
        <ele>531.40002441406</ele>
        <time>2014-05-10T12:58:28.000Z</time>
      </trkpt>
      <trkpt lat="44.38458" lon="4.09838">
        <ele>529.20001220703</ele>
        <time>2014-05-10T12:59:38.000Z</time>
      </trkpt>
      <trkpt lat="44.38459" lon="4.09843">
        <ele>528.20001220703</ele>
        <time>2014-05-10T13:00:08.000Z</time>
      </trkpt>
      <trkpt lat="44.38459" lon="4.09846">
        <ele>528</ele>
        <time>2014-05-10T13:00:14.000Z</time>
      </trkpt>
      <trkpt lat="44.38461" lon="4.09847">
        <ele>528</ele>
        <time>2014-05-10T13:00:20.000Z</time>
      </trkpt>
      <trkpt lat="44.38464" lon="4.09853">
        <ele>527.79998779297</ele>
        <time>2014-05-10T13:00:31.000Z</time>
      </trkpt>
      <trkpt lat="44.38466" lon="4.09858">
        <ele>527</ele>
        <time>2014-05-10T13:00:37.000Z</time>
      </trkpt>
      <trkpt lat="44.38469" lon="4.09863">
        <ele>527.40002441406</ele>
        <time>2014-05-10T13:00:44.000Z</time>
      </trkpt>
      <trkpt lat="44.38471" lon="4.09862">
        <ele>528.20001220703</ele>
        <time>2014-05-10T13:00:50.000Z</time>
      </trkpt>
      <trkpt lat="44.38471" lon="4.09857">
        <ele>529.20001220703</ele>
        <time>2014-05-10T13:00:54.000Z</time>
      </trkpt>
      <trkpt lat="44.38472" lon="4.09847">
        <ele>531.59997558594</ele>
        <time>2014-05-10T13:01:01.000Z</time>
      </trkpt>
      <trkpt lat="44.38473" lon="4.09839">
        <ele>533.59997558594</ele>
        <time>2014-05-10T13:01:07.000Z</time>
      </trkpt>
      <trkpt lat="44.38472" lon="4.09832">
        <ele>535.20001220703</ele>
        <time>2014-05-10T13:01:13.000Z</time>
      </trkpt>
      <trkpt lat="44.38472" lon="4.09828">
        <ele>536.20001220703</ele>
        <time>2014-05-10T13:01:19.000Z</time>
      </trkpt>
      <trkpt lat="44.38474" lon="4.09825">
        <ele>537.40002441406</ele>
        <time>2014-05-10T13:01:24.000Z</time>
      </trkpt>
      <trkpt lat="44.38474" lon="4.0982">
        <ele>538.59997558594</ele>
        <time>2014-05-10T13:01:30.000Z</time>
      </trkpt>
      <trkpt lat="44.38475" lon="4.09816">
        <ele>539.79998779297</ele>
        <time>2014-05-10T13:01:36.000Z</time>
      </trkpt>
      <trkpt lat="44.38476" lon="4.09813">
        <ele>540.59997558594</ele>
        <time>2014-05-10T13:01:43.000Z</time>
      </trkpt>
      <trkpt lat="44.38476" lon="4.09811">
        <ele>541.20001220703</ele>
        <time>2014-05-10T13:01:53.000Z</time>
      </trkpt>
      <trkpt lat="44.38477" lon="4.09806">
        <ele>542.79998779297</ele>
        <time>2014-05-10T13:02:01.000Z</time>
      </trkpt>
      <trkpt lat="44.38479" lon="4.09803">
        <ele>543.79998779297</ele>
        <time>2014-05-10T13:02:06.000Z</time>
      </trkpt>
      <trkpt lat="44.38478" lon="4.098">
        <ele>544.20001220703</ele>
        <time>2014-05-10T13:02:11.000Z</time>
      </trkpt>
      <trkpt lat="44.38478" lon="4.09795">
        <ele>544.79998779297</ele>
        <time>2014-05-10T13:02:23.000Z</time>
      </trkpt>
      <trkpt lat="44.38479" lon="4.09791">
        <ele>545.79998779297</ele>
        <time>2014-05-10T13:02:27.000Z</time>
      </trkpt>
      <trkpt lat="44.3848" lon="4.09784">
        <ele>547.20001220703</ele>
        <time>2014-05-10T13:02:35.000Z</time>
      </trkpt>
      <trkpt lat="44.3848" lon="4.09778">
        <ele>548</ele>
        <time>2014-05-10T13:02:41.000Z</time>
      </trkpt>
      <trkpt lat="44.38481" lon="4.09774">
        <ele>549.59997558594</ele>
        <time>2014-05-10T13:02:47.000Z</time>
      </trkpt>
      <trkpt lat="44.38481" lon="4.09769">
        <ele>551.40002441406</ele>
        <time>2014-05-10T13:02:54.000Z</time>
      </trkpt>
      <trkpt lat="44.38485" lon="4.09771">
        <ele>552</ele>
        <time>2014-05-10T13:03:02.000Z</time>
      </trkpt>
      <trkpt lat="44.38486" lon="4.09772">
        <ele>551.79998779297</ele>
        <time>2014-05-10T13:03:07.000Z</time>
      </trkpt>
      <trkpt lat="44.38488" lon="4.0977">
        <ele>553</ele>
        <time>2014-05-10T13:03:12.000Z</time>
      </trkpt>
      <trkpt lat="44.38487" lon="4.09764">
        <ele>554.79998779297</ele>
        <time>2014-05-10T13:03:17.000Z</time>
      </trkpt>
      <trkpt lat="44.38488" lon="4.09756">
        <ele>557.79998779297</ele>
        <time>2014-05-10T13:03:25.000Z</time>
      </trkpt>
      <trkpt lat="44.38487" lon="4.09752">
        <ele>559</ele>
        <time>2014-05-10T13:03:30.000Z</time>
      </trkpt>
      <trkpt lat="44.38488" lon="4.09744">
        <ele>562.20001220703</ele>
        <time>2014-05-10T13:03:38.000Z</time>
      </trkpt>
      <trkpt lat="44.38487" lon="4.09738">
        <ele>564</ele>
        <time>2014-05-10T13:03:43.000Z</time>
      </trkpt>
      <trkpt lat="44.38488" lon="4.09733">
        <ele>566.20001220703</ele>
        <time>2014-05-10T13:03:49.000Z</time>
      </trkpt>
      <trkpt lat="44.38488" lon="4.09726">
        <ele>567.79998779297</ele>
        <time>2014-05-10T13:03:56.000Z</time>
      </trkpt>
      <trkpt lat="44.38487" lon="4.09721">
        <ele>569</ele>
        <time>2014-05-10T13:04:01.000Z</time>
      </trkpt>
      <trkpt lat="44.38488" lon="4.09716">
        <ele>570.59997558594</ele>
        <time>2014-05-10T13:04:07.000Z</time>
      </trkpt>
      <trkpt lat="44.38489" lon="4.09711">
        <ele>572</ele>
        <time>2014-05-10T13:04:12.000Z</time>
      </trkpt>
      <trkpt lat="44.3849" lon="4.09706">
        <ele>573.20001220703</ele>
        <time>2014-05-10T13:04:20.000Z</time>
      </trkpt>
      <trkpt lat="44.3849" lon="4.097">
        <ele>574.79998779297</ele>
        <time>2014-05-10T13:04:27.000Z</time>
      </trkpt>
      <trkpt lat="44.3849" lon="4.09694">
        <ele>576.40002441406</ele>
        <time>2014-05-10T13:04:33.000Z</time>
      </trkpt>
      <trkpt lat="44.38488" lon="4.09691">
        <ele>576.79998779297</ele>
        <time>2014-05-10T13:04:38.000Z</time>
      </trkpt>
      <trkpt lat="44.38483" lon="4.09688">
        <ele>576.79998779297</ele>
        <time>2014-05-10T13:04:44.000Z</time>
      </trkpt>
      <trkpt lat="44.38482" lon="4.09688">
        <ele>576.59997558594</ele>
        <time>2014-05-10T13:04:45.000Z</time>
      </trkpt>
      <trkpt lat="44.38479" lon="4.09688">
        <ele>576.20001220703</ele>
        <time>2014-05-10T13:04:48.000Z</time>
      </trkpt>
      <trkpt lat="44.38474" lon="4.09688">
        <ele>575.59997558594</ele>
        <time>2014-05-10T13:04:53.000Z</time>
      </trkpt>
      <trkpt lat="44.38472" lon="4.09688">
        <ele>575.20001220703</ele>
        <time>2014-05-10T13:04:56.000Z</time>
      </trkpt>
      <trkpt lat="44.38468" lon="4.09685">
        <ele>575.40002441406</ele>
        <time>2014-05-10T13:05:03.000Z</time>
      </trkpt>
      <trkpt lat="44.38465" lon="4.09686">
        <ele>574.79998779297</ele>
        <time>2014-05-10T13:05:07.000Z</time>
      </trkpt>
      <trkpt lat="44.38463" lon="4.09685">
        <ele>574.79998779297</ele>
        <time>2014-05-10T13:05:12.000Z</time>
      </trkpt>
      <trkpt lat="44.38459" lon="4.09682">
        <ele>574.79998779297</ele>
        <time>2014-05-10T13:05:22.000Z</time>
      </trkpt>
      <trkpt lat="44.38457" lon="4.09679">
        <ele>575.20001220703</ele>
        <time>2014-05-10T13:05:26.000Z</time>
      </trkpt>
      <trkpt lat="44.38452" lon="4.09676">
        <ele>575.40002441406</ele>
        <time>2014-05-10T13:05:33.000Z</time>
      </trkpt>
      <trkpt lat="44.38448" lon="4.09674">
        <ele>575.40002441406</ele>
        <time>2014-05-10T13:05:40.000Z</time>
      </trkpt>
      <trkpt lat="44.38444" lon="4.09671">
        <ele>575.79998779297</ele>
        <time>2014-05-10T13:05:46.000Z</time>
      </trkpt>
      <trkpt lat="44.38441" lon="4.09668">
        <ele>576.20001220703</ele>
        <time>2014-05-10T13:05:53.000Z</time>
      </trkpt>
      <trkpt lat="44.38438" lon="4.09665">
        <ele>576.40002441406</ele>
        <time>2014-05-10T13:05:58.000Z</time>
      </trkpt>
      <trkpt lat="44.38431" lon="4.09661">
        <ele>576.79998779297</ele>
        <time>2014-05-10T13:06:07.000Z</time>
      </trkpt>
      <trkpt lat="44.3843" lon="4.0966">
        <ele>577.20001220703</ele>
        <time>2014-05-10T13:06:09.000Z</time>
      </trkpt>
      <trkpt lat="44.38428" lon="4.09657">
        <ele>577.59997558594</ele>
        <time>2014-05-10T13:06:14.000Z</time>
      </trkpt>
      <trkpt lat="44.38425" lon="4.09654">
        <ele>578</ele>
        <time>2014-05-10T13:06:19.000Z</time>
      </trkpt>
      <trkpt lat="44.38421" lon="4.09651">
        <ele>578.40002441406</ele>
        <time>2014-05-10T13:06:26.000Z</time>
      </trkpt>
      <trkpt lat="44.38419" lon="4.09649">
        <ele>578.79998779297</ele>
        <time>2014-05-10T13:06:31.000Z</time>
      </trkpt>
      <trkpt lat="44.38418" lon="4.09644">
        <ele>580</ele>
        <time>2014-05-10T13:06:36.000Z</time>
      </trkpt>
      <trkpt lat="44.38417" lon="4.0964">
        <ele>581</ele>
        <time>2014-05-10T13:06:41.000Z</time>
      </trkpt>
      <trkpt lat="44.38414" lon="4.09638">
        <ele>581.20001220703</ele>
        <time>2014-05-10T13:06:46.000Z</time>
      </trkpt>
      <trkpt lat="44.3841" lon="4.09637">
        <ele>581</ele>
        <time>2014-05-10T13:06:52.000Z</time>
      </trkpt>
      <trkpt lat="44.38406" lon="4.09638">
        <ele>580.20001220703</ele>
        <time>2014-05-10T13:06:57.000Z</time>
      </trkpt>
      <trkpt lat="44.38404" lon="4.09637">
        <ele>580.20001220703</ele>
        <time>2014-05-10T13:06:59.000Z</time>
      </trkpt>
      <trkpt lat="44.384" lon="4.09636">
        <ele>580</ele>
        <time>2014-05-10T13:07:04.000Z</time>
      </trkpt>
      <trkpt lat="44.38399" lon="4.09636">
        <ele>580</ele>
        <time>2014-05-10T13:07:05.000Z</time>
      </trkpt>
      <trkpt lat="44.38393" lon="4.09634">
        <ele>579.79998779297</ele>
        <time>2014-05-10T13:07:12.000Z</time>
      </trkpt>
      <trkpt lat="44.38392" lon="4.09633">
        <ele>579.79998779297</ele>
        <time>2014-05-10T13:07:13.000Z</time>
      </trkpt>
      <trkpt lat="44.38391" lon="4.09633">
        <ele>579.79998779297</ele>
        <time>2014-05-10T13:07:15.000Z</time>
      </trkpt>
      <trkpt lat="44.38388" lon="4.09631">
        <ele>580</ele>
        <time>2014-05-10T13:07:20.000Z</time>
      </trkpt>
      <trkpt lat="44.38382" lon="4.09629">
        <ele>579.79998779297</ele>
        <time>2014-05-10T13:07:27.000Z</time>
      </trkpt>
      <trkpt lat="44.38379" lon="4.09625">
        <ele>580.40002441406</ele>
        <time>2014-05-10T13:07:32.000Z</time>
      </trkpt>
      <trkpt lat="44.38378" lon="4.09622">
        <ele>581.20001220703</ele>
        <time>2014-05-10T13:07:37.000Z</time>
      </trkpt>
      <trkpt lat="44.38374" lon="4.09619">
        <ele>581.59997558594</ele>
        <time>2014-05-10T13:07:42.000Z</time>
      </trkpt>
      <trkpt lat="44.38372" lon="4.09616">
        <ele>582.20001220703</ele>
        <time>2014-05-10T13:07:46.000Z</time>
      </trkpt>
      <trkpt lat="44.38369" lon="4.09613">
        <ele>582.59997558594</ele>
        <time>2014-05-10T13:07:51.000Z</time>
      </trkpt>
      <trkpt lat="44.38366" lon="4.09611">
        <ele>583</ele>
        <time>2014-05-10T13:07:56.000Z</time>
      </trkpt>
      <trkpt lat="44.38363" lon="4.09607">
        <ele>582.79998779297</ele>
        <time>2014-05-10T13:08:01.000Z</time>
      </trkpt>
      <trkpt lat="44.38361" lon="4.09605">
        <ele>582.59997558594</ele>
        <time>2014-05-10T13:08:05.000Z</time>
      </trkpt>
      <trkpt lat="44.3836" lon="4.09602">
        <ele>582.59997558594</ele>
        <time>2014-05-10T13:08:07.000Z</time>
      </trkpt>
      <trkpt lat="44.38359" lon="4.096">
        <ele>582.79998779297</ele>
        <time>2014-05-10T13:08:10.000Z</time>
      </trkpt>
      <trkpt lat="44.38357" lon="4.09595">
        <ele>582.59997558594</ele>
        <time>2014-05-10T13:08:14.000Z</time>
      </trkpt>
      <trkpt lat="44.38355" lon="4.09591">
        <ele>582.79998779297</ele>
        <time>2014-05-10T13:08:18.000Z</time>
      </trkpt>
      <trkpt lat="44.38354" lon="4.09589">
        <ele>582.79998779297</ele>
        <time>2014-05-10T13:08:20.000Z</time>
      </trkpt>
      <trkpt lat="44.38353" lon="4.09583">
        <ele>583.20001220703</ele>
        <time>2014-05-10T13:08:26.000Z</time>
      </trkpt>
      <trkpt lat="44.38353" lon="4.09579">
        <ele>583.40002441406</ele>
        <time>2014-05-10T13:08:31.000Z</time>
      </trkpt>
      <trkpt lat="44.38353" lon="4.09575">
        <ele>583.79998779297</ele>
        <time>2014-05-10T13:08:36.000Z</time>
      </trkpt>
      <trkpt lat="44.38352" lon="4.0957">
        <ele>584</ele>
        <time>2014-05-10T13:08:41.000Z</time>
      </trkpt>
      <trkpt lat="44.38351" lon="4.09565">
        <ele>584.40002441406</ele>
        <time>2014-05-10T13:08:47.000Z</time>
      </trkpt>
      <trkpt lat="44.38349" lon="4.09558">
        <ele>584.59997558594</ele>
        <time>2014-05-10T13:08:53.000Z</time>
      </trkpt>
      <trkpt lat="44.38348" lon="4.09553">
        <ele>584.79998779297</ele>
        <time>2014-05-10T13:08:58.000Z</time>
      </trkpt>
      <trkpt lat="44.38348" lon="4.09549">
        <ele>585.20001220703</ele>
        <time>2014-05-10T13:09:02.000Z</time>
      </trkpt>
      <trkpt lat="44.38346" lon="4.09544">
        <ele>585.40002441406</ele>
        <time>2014-05-10T13:09:06.000Z</time>
      </trkpt>
      <trkpt lat="44.38346" lon="4.09539">
        <ele>585.59997558594</ele>
        <time>2014-05-10T13:09:10.000Z</time>
      </trkpt>
      <trkpt lat="44.38346" lon="4.09535">
        <ele>586</ele>
        <time>2014-05-10T13:09:14.000Z</time>
      </trkpt>
      <trkpt lat="44.38346" lon="4.09533">
        <ele>586.40002441406</ele>
        <time>2014-05-10T13:09:16.000Z</time>
      </trkpt>
      <trkpt lat="44.38346" lon="4.09527">
        <ele>587</ele>
        <time>2014-05-10T13:09:23.000Z</time>
      </trkpt>
      <trkpt lat="44.38346" lon="4.09519">
        <ele>585.40002441406</ele>
        <time>2014-05-10T13:09:32.000Z</time>
      </trkpt>
      <trkpt lat="44.38347" lon="4.09517">
        <ele>585</ele>
        <time>2014-05-10T13:09:34.000Z</time>
      </trkpt>
      <trkpt lat="44.38348" lon="4.09512">
        <ele>584.20001220703</ele>
        <time>2014-05-10T13:09:38.000Z</time>
      </trkpt>
      <trkpt lat="44.38349" lon="4.09507">
        <ele>583.79998779297</ele>
        <time>2014-05-10T13:09:44.000Z</time>
      </trkpt>
      <trkpt lat="44.38349" lon="4.09501">
        <ele>583.40002441406</ele>
        <time>2014-05-10T13:09:49.000Z</time>
      </trkpt>
      <trkpt lat="44.38351" lon="4.095">
        <ele>583.79998779297</ele>
        <time>2014-05-10T13:09:52.000Z</time>
      </trkpt>
      <trkpt lat="44.38353" lon="4.09494">
        <ele>584.40002441406</ele>
        <time>2014-05-10T13:09:57.000Z</time>
      </trkpt>
      <trkpt lat="44.38355" lon="4.09492">
        <ele>584.59997558594</ele>
        <time>2014-05-10T13:10:00.000Z</time>
      </trkpt>
      <trkpt lat="44.38359" lon="4.09485">
        <ele>585.40002441406</ele>
        <time>2014-05-10T13:10:06.000Z</time>
      </trkpt>
      <trkpt lat="44.38361" lon="4.0948">
        <ele>585.79998779297</ele>
        <time>2014-05-10T13:10:11.000Z</time>
      </trkpt>
      <trkpt lat="44.38363" lon="4.09473">
        <ele>586</ele>
        <time>2014-05-10T13:10:16.000Z</time>
      </trkpt>
      <trkpt lat="44.38364" lon="4.09465">
        <ele>585.59997558594</ele>
        <time>2014-05-10T13:10:21.000Z</time>
      </trkpt>
      <trkpt lat="44.38367" lon="4.09453">
        <ele>585.40002441406</ele>
        <time>2014-05-10T13:10:29.000Z</time>
      </trkpt>
      <trkpt lat="44.38367" lon="4.09452">
        <ele>585.20001220703</ele>
        <time>2014-05-10T13:10:30.000Z</time>
      </trkpt>
      <trkpt lat="44.38368" lon="4.09447">
        <ele>585</ele>
        <time>2014-05-10T13:10:35.000Z</time>
      </trkpt>
      <trkpt lat="44.38369" lon="4.09439">
        <ele>584.40002441406</ele>
        <time>2014-05-10T13:10:41.000Z</time>
      </trkpt>
      <trkpt lat="44.38371" lon="4.09426">
        <ele>582.79998779297</ele>
        <time>2014-05-10T13:10:50.000Z</time>
      </trkpt>
      <trkpt lat="44.38374" lon="4.09417">
        <ele>581.79998779297</ele>
        <time>2014-05-10T13:10:57.000Z</time>
      </trkpt>
      <trkpt lat="44.38376" lon="4.09408">
        <ele>580.79998779297</ele>
        <time>2014-05-10T13:11:04.000Z</time>
      </trkpt>
      <trkpt lat="44.38377" lon="4.09406">
        <ele>580.59997558594</ele>
        <time>2014-05-10T13:11:05.000Z</time>
      </trkpt>
      <trkpt lat="44.3838" lon="4.094">
        <ele>580.59997558594</ele>
        <time>2014-05-10T13:11:11.000Z</time>
      </trkpt>
      <trkpt lat="44.38381" lon="4.094">
        <ele>580.59997558594</ele>
        <time>2014-05-10T13:11:12.000Z</time>
      </trkpt>
      <trkpt lat="44.38383" lon="4.09396">
        <ele>580.40002441406</ele>
        <time>2014-05-10T13:11:16.000Z</time>
      </trkpt>
      <trkpt lat="44.38388" lon="4.09388">
        <ele>580.40002441406</ele>
        <time>2014-05-10T13:11:23.000Z</time>
      </trkpt>
      <trkpt lat="44.38388" lon="4.09387">
        <ele>580.59997558594</ele>
        <time>2014-05-10T13:11:24.000Z</time>
      </trkpt>
      <trkpt lat="44.3839" lon="4.09386">
        <ele>580.59997558594</ele>
        <time>2014-05-10T13:11:26.000Z</time>
      </trkpt>
      <trkpt lat="44.38391" lon="4.09386">
        <ele>580.79998779297</ele>
        <time>2014-05-10T13:11:28.000Z</time>
      </trkpt>
      <trkpt lat="44.38397" lon="4.09379">
        <ele>580.79998779297</ele>
        <time>2014-05-10T13:11:34.000Z</time>
      </trkpt>
      <trkpt lat="44.38403" lon="4.09372">
        <ele>580.79998779297</ele>
        <time>2014-05-10T13:11:40.000Z</time>
      </trkpt>
      <trkpt lat="44.38406" lon="4.09367">
        <ele>580.40002441406</ele>
        <time>2014-05-10T13:11:45.000Z</time>
      </trkpt>
      <trkpt lat="44.38407" lon="4.09365">
        <ele>580.40002441406</ele>
        <time>2014-05-10T13:11:46.000Z</time>
      </trkpt>
      <trkpt lat="44.38409" lon="4.09363">
        <ele>580.20001220703</ele>
        <time>2014-05-10T13:11:48.000Z</time>
      </trkpt>
      <trkpt lat="44.38417" lon="4.09353">
        <ele>580.20001220703</ele>
        <time>2014-05-10T13:11:56.000Z</time>
      </trkpt>
      <trkpt lat="44.38417" lon="4.09351">
        <ele>580.20001220703</ele>
        <time>2014-05-10T13:11:57.000Z</time>
      </trkpt>
      <trkpt lat="44.38419" lon="4.09349">
        <ele>580.20001220703</ele>
        <time>2014-05-10T13:11:59.000Z</time>
      </trkpt>
      <trkpt lat="44.38421" lon="4.09345">
        <ele>580.20001220703</ele>
        <time>2014-05-10T13:12:03.000Z</time>
      </trkpt>
      <trkpt lat="44.38422" lon="4.09343">
        <ele>580.20001220703</ele>
        <time>2014-05-10T13:12:05.000Z</time>
      </trkpt>
      <trkpt lat="44.38427" lon="4.09338">
        <ele>580.40002441406</ele>
        <time>2014-05-10T13:12:10.000Z</time>
      </trkpt>
      <trkpt lat="44.38434" lon="4.09329">
        <ele>579</ele>
        <time>2014-05-10T13:12:16.000Z</time>
      </trkpt>
      <trkpt lat="44.38436" lon="4.09329">
        <ele>579.40002441406</ele>
        <time>2014-05-10T13:12:17.000Z</time>
      </trkpt>
      <trkpt lat="44.38442" lon="4.09329">
        <ele>580</ele>
        <time>2014-05-10T13:12:22.000Z</time>
      </trkpt>
      <trkpt lat="44.38444" lon="4.09329">
        <ele>580.40002441406</ele>
        <time>2014-05-10T13:12:24.000Z</time>
      </trkpt>
      <trkpt lat="44.38449" lon="4.09327">
        <ele>580.59997558594</ele>
        <time>2014-05-10T13:12:29.000Z</time>
      </trkpt>
      <trkpt lat="44.3845" lon="4.09327">
        <ele>580.59997558594</ele>
        <time>2014-05-10T13:12:30.000Z</time>
      </trkpt>
      <trkpt lat="44.38453" lon="4.09326">
        <ele>580.59997558594</ele>
        <time>2014-05-10T13:12:32.000Z</time>
      </trkpt>
      <trkpt lat="44.38453" lon="4.09326">
        <ele>580.79998779297</ele>
        <time>2014-05-10T13:12:34.000Z</time>
      </trkpt>
      <trkpt lat="44.38457" lon="4.09323">
        <ele>580.59997558594</ele>
        <time>2014-05-10T13:12:37.000Z</time>
      </trkpt>
      <trkpt lat="44.38463" lon="4.09321">
        <ele>581</ele>
        <time>2014-05-10T13:12:41.000Z</time>
      </trkpt>
      <trkpt lat="44.38468" lon="4.0932">
        <ele>581.20001220703</ele>
        <time>2014-05-10T13:12:45.000Z</time>
      </trkpt>
      <trkpt lat="44.38473" lon="4.09317">
        <ele>581.20001220703</ele>
        <time>2014-05-10T13:12:51.000Z</time>
      </trkpt>
      <trkpt lat="44.38476" lon="4.09315">
        <ele>581</ele>
        <time>2014-05-10T13:12:53.000Z</time>
      </trkpt>
      <trkpt lat="44.38483" lon="4.0931">
        <ele>580.79998779297</ele>
        <time>2014-05-10T13:12:59.000Z</time>
      </trkpt>
      <trkpt lat="44.38486" lon="4.09307">
        <ele>581.20001220703</ele>
        <time>2014-05-10T13:13:02.000Z</time>
      </trkpt>
      <trkpt lat="44.38492" lon="4.09304">
        <ele>582</ele>
        <time>2014-05-10T13:13:07.000Z</time>
      </trkpt>
      <trkpt lat="44.38493" lon="4.09304">
        <ele>582.20001220703</ele>
        <time>2014-05-10T13:13:09.000Z</time>
      </trkpt>
      <trkpt lat="44.38498" lon="4.09301">
        <ele>582.59997558594</ele>
        <time>2014-05-10T13:13:13.000Z</time>
      </trkpt>
      <trkpt lat="44.38505" lon="4.09299">
        <ele>584</ele>
        <time>2014-05-10T13:13:19.000Z</time>
      </trkpt>
      <trkpt lat="44.38507" lon="4.09298">
        <ele>584.40002441406</ele>
        <time>2014-05-10T13:13:21.000Z</time>
      </trkpt>
      <trkpt lat="44.3851" lon="4.09297">
        <ele>584.79998779297</ele>
        <time>2014-05-10T13:13:23.000Z</time>
      </trkpt>
      <trkpt lat="44.38515" lon="4.09296">
        <ele>585.79998779297</ele>
        <time>2014-05-10T13:13:28.000Z</time>
      </trkpt>
      <trkpt lat="44.38519" lon="4.09292">
        <ele>585.79998779297</ele>
        <time>2014-05-10T13:13:32.000Z</time>
      </trkpt>
      <trkpt lat="44.3852" lon="4.09281">
        <ele>584.40002441406</ele>
        <time>2014-05-10T13:13:39.000Z</time>
      </trkpt>
      <trkpt lat="44.3852" lon="4.09279">
        <ele>584</ele>
        <time>2014-05-10T13:13:40.000Z</time>
      </trkpt>
      <trkpt lat="44.3852" lon="4.09274">
        <ele>582.79998779297</ele>
        <time>2014-05-10T13:13:43.000Z</time>
      </trkpt>
      <trkpt lat="44.38522" lon="4.09262">
        <ele>581.20001220703</ele>
        <time>2014-05-10T13:13:50.000Z</time>
      </trkpt>
      <trkpt lat="44.38523" lon="4.09256">
        <ele>580.59997558594</ele>
        <time>2014-05-10T13:13:54.000Z</time>
      </trkpt>
      <trkpt lat="44.38523" lon="4.09255">
        <ele>580.40002441406</ele>
        <time>2014-05-10T13:13:55.000Z</time>
      </trkpt>
      <trkpt lat="44.38523" lon="4.09254">
        <ele>580.40002441406</ele>
        <time>2014-05-10T13:13:56.000Z</time>
      </trkpt>
      <trkpt lat="44.38524" lon="4.09246">
        <ele>579.59997558594</ele>
        <time>2014-05-10T13:14:01.000Z</time>
      </trkpt>
      <trkpt lat="44.38524" lon="4.09245">
        <ele>579.40002441406</ele>
        <time>2014-05-10T13:14:02.000Z</time>
      </trkpt>
      <trkpt lat="44.38525" lon="4.09239">
        <ele>579</ele>
        <time>2014-05-10T13:14:07.000Z</time>
      </trkpt>
      <trkpt lat="44.38526" lon="4.0923">
        <ele>578.20001220703</ele>
        <time>2014-05-10T13:14:14.000Z</time>
      </trkpt>
      <trkpt lat="44.38526" lon="4.09228">
        <ele>578</ele>
        <time>2014-05-10T13:14:15.000Z</time>
      </trkpt>
      <trkpt lat="44.38526" lon="4.09222">
        <ele>577.20001220703</ele>
        <time>2014-05-10T13:14:20.000Z</time>
      </trkpt>
      <trkpt lat="44.38526" lon="4.09219">
        <ele>576.59997558594</ele>
        <time>2014-05-10T13:14:22.000Z</time>
      </trkpt>
      <trkpt lat="44.38528" lon="4.09215">
        <ele>576.79998779297</ele>
        <time>2014-05-10T13:14:25.000Z</time>
      </trkpt>
      <trkpt lat="44.38528" lon="4.09211">
        <ele>576.20001220703</ele>
        <time>2014-05-10T13:14:28.000Z</time>
      </trkpt>
      <trkpt lat="44.3853" lon="4.09201">
        <ele>575.59997558594</ele>
        <time>2014-05-10T13:14:35.000Z</time>
      </trkpt>
      <trkpt lat="44.38533" lon="4.09191">
        <ele>575.79998779297</ele>
        <time>2014-05-10T13:14:42.000Z</time>
      </trkpt>
      <trkpt lat="44.38534" lon="4.09187">
        <ele>576</ele>
        <time>2014-05-10T13:14:44.000Z</time>
      </trkpt>
      <trkpt lat="44.38535" lon="4.09178">
        <ele>576.79998779297</ele>
        <time>2014-05-10T13:14:49.000Z</time>
      </trkpt>
      <trkpt lat="44.38537" lon="4.09173">
        <ele>577.79998779297</ele>
        <time>2014-05-10T13:14:53.000Z</time>
      </trkpt>
      <trkpt lat="44.38538" lon="4.09169">
        <ele>578.20001220703</ele>
        <time>2014-05-10T13:14:55.000Z</time>
      </trkpt>
      <trkpt lat="44.38541" lon="4.0916">
        <ele>579.79998779297</ele>
        <time>2014-05-10T13:15:01.000Z</time>
      </trkpt>
      <trkpt lat="44.38542" lon="4.09159">
        <ele>580.20001220703</ele>
        <time>2014-05-10T13:15:02.000Z</time>
      </trkpt>
      <trkpt lat="44.38548" lon="4.0915">
        <ele>583.20001220703</ele>
        <time>2014-05-10T13:15:10.000Z</time>
      </trkpt>
      <trkpt lat="44.38548" lon="4.0915">
        <ele>583.59997558594</ele>
        <time>2014-05-10T13:15:11.000Z</time>
      </trkpt>
      <trkpt lat="44.38553" lon="4.09141">
        <ele>585.79998779297</ele>
        <time>2014-05-10T13:15:20.000Z</time>
      </trkpt>
      <trkpt lat="44.38555" lon="4.09138">
        <ele>586.79998779297</ele>
        <time>2014-05-10T13:15:23.000Z</time>
      </trkpt>
      <trkpt lat="44.38559" lon="4.09127">
        <ele>588.20001220703</ele>
        <time>2014-05-10T13:15:30.000Z</time>
      </trkpt>
      <trkpt lat="44.38561" lon="4.09118">
        <ele>589</ele>
        <time>2014-05-10T13:15:36.000Z</time>
      </trkpt>
      <trkpt lat="44.38562" lon="4.09112">
        <ele>589.20001220703</ele>
        <time>2014-05-10T13:15:40.000Z</time>
      </trkpt>
      <trkpt lat="44.38563" lon="4.09111">
        <ele>589.40002441406</ele>
        <time>2014-05-10T13:15:42.000Z</time>
      </trkpt>
      <trkpt lat="44.38565" lon="4.09103">
        <ele>590.59997558594</ele>
        <time>2014-05-10T13:15:49.000Z</time>
      </trkpt>
      <trkpt lat="44.38566" lon="4.09101">
        <ele>590.79998779297</ele>
        <time>2014-05-10T13:15:55.000Z</time>
      </trkpt>
      <trkpt lat="44.38565" lon="4.091">
        <ele>590.79998779297</ele>
        <time>2014-05-10T13:15:56.000Z</time>
      </trkpt>
      <trkpt lat="44.38564" lon="4.09094">
        <ele>590.40002441406</ele>
        <time>2014-05-10T13:16:01.000Z</time>
      </trkpt>
      <trkpt lat="44.38565" lon="4.09087">
        <ele>591</ele>
        <time>2014-05-10T13:16:07.000Z</time>
      </trkpt>
      <trkpt lat="44.38565" lon="4.09085">
        <ele>591</ele>
        <time>2014-05-10T13:16:08.000Z</time>
      </trkpt>
      <trkpt lat="44.38565" lon="4.0908">
        <ele>591.20001220703</ele>
        <time>2014-05-10T13:16:13.000Z</time>
      </trkpt>
      <trkpt lat="44.38565" lon="4.09079">
        <ele>591.20001220703</ele>
        <time>2014-05-10T13:16:14.000Z</time>
      </trkpt>
      <trkpt lat="44.38565" lon="4.09074">
        <ele>591.79998779297</ele>
        <time>2014-05-10T13:16:20.000Z</time>
      </trkpt>
      <trkpt lat="44.38565" lon="4.09071">
        <ele>591.79998779297</ele>
        <time>2014-05-10T13:16:24.000Z</time>
      </trkpt>
      <trkpt lat="44.38564" lon="4.0906">
        <ele>591.40002441406</ele>
        <time>2014-05-10T13:16:34.000Z</time>
      </trkpt>
      <trkpt lat="44.38563" lon="4.09056">
        <ele>591.40002441406</ele>
        <time>2014-05-10T13:16:37.000Z</time>
      </trkpt>
      <trkpt lat="44.38563" lon="4.09054">
        <ele>591.59997558594</ele>
        <time>2014-05-10T13:16:39.000Z</time>
      </trkpt>
      <trkpt lat="44.38561" lon="4.09045">
        <ele>591.20001220703</ele>
        <time>2014-05-10T13:16:48.000Z</time>
      </trkpt>
      <trkpt lat="44.3856" lon="4.0904">
        <ele>591</ele>
        <time>2014-05-10T13:17:10.000Z</time>
      </trkpt>
      <trkpt lat="44.3856" lon="4.09034">
        <ele>591.20001220703</ele>
        <time>2014-05-10T13:17:14.000Z</time>
      </trkpt>
      <trkpt lat="44.38559" lon="4.09023">
        <ele>591.20001220703</ele>
        <time>2014-05-10T13:17:22.000Z</time>
      </trkpt>
      <trkpt lat="44.38558" lon="4.09021">
        <ele>591.20001220703</ele>
        <time>2014-05-10T13:17:24.000Z</time>
      </trkpt>
      <trkpt lat="44.38559" lon="4.09012">
        <ele>591.59997558594</ele>
        <time>2014-05-10T13:17:31.000Z</time>
      </trkpt>
      <trkpt lat="44.38561" lon="4.09007">
        <ele>592.40002441406</ele>
        <time>2014-05-10T13:17:36.000Z</time>
      </trkpt>
      <trkpt lat="44.38561" lon="4.09006">
        <ele>592.20001220703</ele>
        <time>2014-05-10T13:17:37.000Z</time>
      </trkpt>
      <trkpt lat="44.38561" lon="4.09005">
        <ele>592.20001220703</ele>
        <time>2014-05-10T13:17:38.000Z</time>
      </trkpt>
      <trkpt lat="44.38561" lon="4.08996">
        <ele>592.40002441406</ele>
        <time>2014-05-10T13:17:44.000Z</time>
      </trkpt>
      <trkpt lat="44.38561" lon="4.08994">
        <ele>592.40002441406</ele>
        <time>2014-05-10T13:17:45.000Z</time>
      </trkpt>
      <trkpt lat="44.38561" lon="4.0899">
        <ele>592.20001220703</ele>
        <time>2014-05-10T13:17:48.000Z</time>
      </trkpt>
      <trkpt lat="44.38563" lon="4.08981">
        <ele>592.79998779297</ele>
        <time>2014-05-10T13:17:55.000Z</time>
      </trkpt>
      <trkpt lat="44.38563" lon="4.08976">
        <ele>592.59997558594</ele>
        <time>2014-05-10T13:17:59.000Z</time>
      </trkpt>
      <trkpt lat="44.38563" lon="4.08965">
        <ele>592.40002441406</ele>
        <time>2014-05-10T13:18:07.000Z</time>
      </trkpt>
      <trkpt lat="44.38563" lon="4.08964">
        <ele>592.40002441406</ele>
        <time>2014-05-10T13:18:08.000Z</time>
      </trkpt>
      <trkpt lat="44.38562" lon="4.08956">
        <ele>591.59997558594</ele>
        <time>2014-05-10T13:18:13.000Z</time>
      </trkpt>
      <trkpt lat="44.38562" lon="4.08955">
        <ele>591.20001220703</ele>
        <time>2014-05-10T13:18:14.000Z</time>
      </trkpt>
      <trkpt lat="44.38561" lon="4.08946">
        <ele>590.40002441406</ele>
        <time>2014-05-10T13:18:20.000Z</time>
      </trkpt>
      <trkpt lat="44.38562" lon="4.08932">
        <ele>589.79998779297</ele>
        <time>2014-05-10T13:18:29.000Z</time>
      </trkpt>
      <trkpt lat="44.38563" lon="4.08929">
        <ele>589.79998779297</ele>
        <time>2014-05-10T13:18:31.000Z</time>
      </trkpt>
      <trkpt lat="44.38562" lon="4.08914">
        <ele>588.59997558594</ele>
        <time>2014-05-10T13:18:40.000Z</time>
      </trkpt>
      <trkpt lat="44.38563" lon="4.08912">
        <ele>588.59997558594</ele>
        <time>2014-05-10T13:18:41.000Z</time>
      </trkpt>
      <trkpt lat="44.38563" lon="4.08907">
        <ele>588.40002441406</ele>
        <time>2014-05-10T13:18:45.000Z</time>
      </trkpt>
      <trkpt lat="44.38565" lon="4.089">
        <ele>588.59997558594</ele>
        <time>2014-05-10T13:18:50.000Z</time>
      </trkpt>
      <trkpt lat="44.38568" lon="4.08894">
        <ele>589.40002441406</ele>
        <time>2014-05-10T13:18:56.000Z</time>
      </trkpt>
      <trkpt lat="44.38569" lon="4.08894">
        <ele>589.40002441406</ele>
        <time>2014-05-10T13:18:57.000Z</time>
      </trkpt>
      <trkpt lat="44.38572" lon="4.08891">
        <ele>589.59997558594</ele>
        <time>2014-05-10T13:19:00.000Z</time>
      </trkpt>
      <trkpt lat="44.38579" lon="4.08888">
        <ele>590.79998779297</ele>
        <time>2014-05-10T13:19:08.000Z</time>
      </trkpt>
      <trkpt lat="44.3858" lon="4.08888">
        <ele>591</ele>
        <time>2014-05-10T13:19:09.000Z</time>
      </trkpt>
      <trkpt lat="44.38581" lon="4.08888">
        <ele>591.40002441406</ele>
        <time>2014-05-10T13:19:18.000Z</time>
      </trkpt>
      <trkpt lat="44.3858" lon="4.08883">
        <ele>590.20001220703</ele>
        <time>2014-05-10T13:20:29.000Z</time>
      </trkpt>
      <trkpt lat="44.3858" lon="4.08881">
        <ele>589.40002441406</ele>
        <time>2014-05-10T13:20:33.000Z</time>
      </trkpt>
      <trkpt lat="44.38583" lon="4.0888">
        <ele>590.20001220703</ele>
        <time>2014-05-10T13:20:41.000Z</time>
      </trkpt>
      <trkpt lat="44.38589" lon="4.08881">
        <ele>592</ele>
        <time>2014-05-10T13:20:47.000Z</time>
      </trkpt>
      <trkpt lat="44.38594" lon="4.08885">
        <ele>594.40002441406</ele>
        <time>2014-05-10T13:20:53.000Z</time>
      </trkpt>
      <trkpt lat="44.38595" lon="4.08886">
        <ele>594.79998779297</ele>
        <time>2014-05-10T13:20:54.000Z</time>
      </trkpt>
      <trkpt lat="44.38602" lon="4.08888">
        <ele>597.20001220703</ele>
        <time>2014-05-10T13:21:00.000Z</time>
      </trkpt>
      <trkpt lat="44.38606" lon="4.08889">
        <ele>598.59997558594</ele>
        <time>2014-05-10T13:21:03.000Z</time>
      </trkpt>
      <trkpt lat="44.38608" lon="4.0889">
        <ele>599.40002441406</ele>
        <time>2014-05-10T13:21:05.000Z</time>
      </trkpt>
      <trkpt lat="44.38612" lon="4.08891">
        <ele>600.59997558594</ele>
        <time>2014-05-10T13:21:09.000Z</time>
      </trkpt>
      <trkpt lat="44.38616" lon="4.08891">
        <ele>601.59997558594</ele>
        <time>2014-05-10T13:21:13.000Z</time>
      </trkpt>
      <trkpt lat="44.38619" lon="4.08891">
        <ele>601.79998779297</ele>
        <time>2014-05-10T13:21:17.000Z</time>
      </trkpt>
      <trkpt lat="44.38622" lon="4.08891">
        <ele>601.79998779297</ele>
        <time>2014-05-10T13:21:21.000Z</time>
      </trkpt>
      <trkpt lat="44.38628" lon="4.08889">
        <ele>601.59997558594</ele>
        <time>2014-05-10T13:21:28.000Z</time>
      </trkpt>
      <trkpt lat="44.38635" lon="4.08889">
        <ele>601.59997558594</ele>
        <time>2014-05-10T13:21:34.000Z</time>
      </trkpt>
      <trkpt lat="44.38642" lon="4.08888">
        <ele>601.79998779297</ele>
        <time>2014-05-10T13:21:39.000Z</time>
      </trkpt>
      <trkpt lat="44.38653" lon="4.08886">
        <ele>600</ele>
        <time>2014-05-10T13:21:48.000Z</time>
      </trkpt>
      <trkpt lat="44.38656" lon="4.08885">
        <ele>599.59997558594</ele>
        <time>2014-05-10T13:21:51.000Z</time>
      </trkpt>
      <trkpt lat="44.38662" lon="4.08885">
        <ele>598.79998779297</ele>
        <time>2014-05-10T13:21:57.000Z</time>
      </trkpt>
      <trkpt lat="44.38664" lon="4.08885">
        <ele>598.59997558594</ele>
        <time>2014-05-10T13:21:59.000Z</time>
      </trkpt>
      <trkpt lat="44.38671" lon="4.08883">
        <ele>597</ele>
        <time>2014-05-10T13:22:05.000Z</time>
      </trkpt>
      <trkpt lat="44.38679" lon="4.08882">
        <ele>596</ele>
        <time>2014-05-10T13:22:11.000Z</time>
      </trkpt>
      <trkpt lat="44.38683" lon="4.0888">
        <ele>594.79998779297</ele>
        <time>2014-05-10T13:22:15.000Z</time>
      </trkpt>
      <trkpt lat="44.38693" lon="4.08877">
        <ele>592.79998779297</ele>
        <time>2014-05-10T13:22:23.000Z</time>
      </trkpt>
      <trkpt lat="44.387" lon="4.08874">
        <ele>591.59997558594</ele>
        <time>2014-05-10T13:22:31.000Z</time>
      </trkpt>
      <trkpt lat="44.38708" lon="4.08871">
        <ele>592</ele>
        <time>2014-05-10T13:23:43.000Z</time>
      </trkpt>
      <trkpt lat="44.38713" lon="4.0887">
        <ele>592.59997558594</ele>
        <time>2014-05-10T13:23:49.000Z</time>
      </trkpt>
      <trkpt lat="44.38719" lon="4.08869">
        <ele>592.79998779297</ele>
        <time>2014-05-10T13:23:54.000Z</time>
      </trkpt>
      <trkpt lat="44.38722" lon="4.08866">
        <ele>592.20001220703</ele>
        <time>2014-05-10T13:23:58.000Z</time>
      </trkpt>
      <trkpt lat="44.38724" lon="4.08866">
        <ele>592.20001220703</ele>
        <time>2014-05-10T13:24:00.000Z</time>
      </trkpt>
      <trkpt lat="44.38731" lon="4.08865">
        <ele>592.79998779297</ele>
        <time>2014-05-10T13:24:07.000Z</time>
      </trkpt>
      <trkpt lat="44.38733" lon="4.08862">
        <ele>592.20001220703</ele>
        <time>2014-05-10T13:24:10.000Z</time>
      </trkpt>
      <trkpt lat="44.38738" lon="4.0886">
        <ele>591.79998779297</ele>
        <time>2014-05-10T13:24:15.000Z</time>
      </trkpt>
      <trkpt lat="44.38749" lon="4.08852">
        <ele>590.40002441406</ele>
        <time>2014-05-10T13:24:28.000Z</time>
      </trkpt>
      <trkpt lat="44.38755" lon="4.08845">
        <ele>588.20001220703</ele>
        <time>2014-05-10T13:24:35.000Z</time>
      </trkpt>
      <trkpt lat="44.3876" lon="4.0884">
        <ele>586.59997558594</ele>
        <time>2014-05-10T13:24:40.000Z</time>
      </trkpt>
      <trkpt lat="44.38765" lon="4.08838">
        <ele>586.59997558594</ele>
        <time>2014-05-10T13:24:45.000Z</time>
      </trkpt>
      <trkpt lat="44.3877" lon="4.08839">
        <ele>588</ele>
        <time>2014-05-10T13:24:50.000Z</time>
      </trkpt>
      <trkpt lat="44.38775" lon="4.08834">
        <ele>587.20001220703</ele>
        <time>2014-05-10T13:24:56.000Z</time>
      </trkpt>
      <trkpt lat="44.38778" lon="4.08833">
        <ele>587.40002441406</ele>
        <time>2014-05-10T13:24:58.000Z</time>
      </trkpt>
      <trkpt lat="44.3878" lon="4.08832">
        <ele>587.20001220703</ele>
        <time>2014-05-10T13:25:00.000Z</time>
      </trkpt>
      <trkpt lat="44.38786" lon="4.08825">
        <ele>586.40002441406</ele>
        <time>2014-05-10T13:25:07.000Z</time>
      </trkpt>
      <trkpt lat="44.38789" lon="4.08821">
        <ele>585.79998779297</ele>
        <time>2014-05-10T13:25:11.000Z</time>
      </trkpt>
      <trkpt lat="44.38792" lon="4.08817">
        <ele>585.20001220703</ele>
        <time>2014-05-10T13:25:15.000Z</time>
      </trkpt>
      <trkpt lat="44.38797" lon="4.08813">
        <ele>584.79998779297</ele>
        <time>2014-05-10T13:25:20.000Z</time>
      </trkpt>
      <trkpt lat="44.38801" lon="4.08809">
        <ele>584.40002441406</ele>
        <time>2014-05-10T13:25:25.000Z</time>
      </trkpt>
      <trkpt lat="44.38801" lon="4.08809">
        <ele>584.40002441406</ele>
        <time>2014-05-10T13:25:26.000Z</time>
      </trkpt>
      <trkpt lat="44.38806" lon="4.08802">
        <ele>583.40002441406</ele>
        <time>2014-05-10T13:25:35.000Z</time>
      </trkpt>
      <trkpt lat="44.38809" lon="4.08799">
        <ele>582.40002441406</ele>
        <time>2014-05-10T13:25:40.000Z</time>
      </trkpt>
      <trkpt lat="44.38812" lon="4.08796">
        <ele>582.20001220703</ele>
        <time>2014-05-10T13:25:44.000Z</time>
      </trkpt>
      <trkpt lat="44.38817" lon="4.08791">
        <ele>581</ele>
        <time>2014-05-10T13:25:51.000Z</time>
      </trkpt>
      <trkpt lat="44.38823" lon="4.08784">
        <ele>579.79998779297</ele>
        <time>2014-05-10T13:25:59.000Z</time>
      </trkpt>
      <trkpt lat="44.38828" lon="4.08781">
        <ele>579.40002441406</ele>
        <time>2014-05-10T13:26:05.000Z</time>
      </trkpt>
      <trkpt lat="44.38835" lon="4.08776">
        <ele>578.79998779297</ele>
        <time>2014-05-10T13:26:13.000Z</time>
      </trkpt>
      <trkpt lat="44.38844" lon="4.08763">
        <ele>576.40002441406</ele>
        <time>2014-05-10T13:26:24.000Z</time>
      </trkpt>
      <trkpt lat="44.38845" lon="4.08761">
        <ele>576</ele>
        <time>2014-05-10T13:26:26.000Z</time>
      </trkpt>
      <trkpt lat="44.38852" lon="4.08754">
        <ele>574.40002441406</ele>
        <time>2014-05-10T13:26:32.000Z</time>
      </trkpt>
      <trkpt lat="44.38861" lon="4.08751">
        <ele>574.79998779297</ele>
        <time>2014-05-10T13:26:39.000Z</time>
      </trkpt>
      <trkpt lat="44.38869" lon="4.08744">
        <ele>573.79998779297</ele>
        <time>2014-05-10T13:26:47.000Z</time>
      </trkpt>
      <trkpt lat="44.38876" lon="4.08738">
        <ele>572.59997558594</ele>
        <time>2014-05-10T13:26:54.000Z</time>
      </trkpt>
      <trkpt lat="44.38876" lon="4.08738">
        <ele>572.59997558594</ele>
        <time>2014-05-10T13:26:55.000Z</time>
      </trkpt>
      <trkpt lat="44.38879" lon="4.08731">
        <ele>570.59997558594</ele>
        <time>2014-05-10T13:27:01.000Z</time>
      </trkpt>
      <trkpt lat="44.3888" lon="4.08728">
        <ele>569.40002441406</ele>
        <time>2014-05-10T13:27:03.000Z</time>
      </trkpt>
      <trkpt lat="44.38884" lon="4.08727">
        <ele>569.79998779297</ele>
        <time>2014-05-10T13:27:07.000Z</time>
      </trkpt>
      <trkpt lat="44.3889" lon="4.08725">
        <ele>570</ele>
        <time>2014-05-10T13:27:12.000Z</time>
      </trkpt>
      <trkpt lat="44.38892" lon="4.08724">
        <ele>570.20001220703</ele>
        <time>2014-05-10T13:27:14.000Z</time>
      </trkpt>
      <trkpt lat="44.38898" lon="4.08722">
        <ele>570.59997558594</ele>
        <time>2014-05-10T13:27:19.000Z</time>
      </trkpt>
      <trkpt lat="44.38906" lon="4.08717">
        <ele>571</ele>
        <time>2014-05-10T13:27:26.000Z</time>
      </trkpt>
      <trkpt lat="44.38918" lon="4.0871">
        <ele>571.40002441406</ele>
        <time>2014-05-10T13:27:36.000Z</time>
      </trkpt>
      <trkpt lat="44.38926" lon="4.08707">
        <ele>572.40002441406</ele>
        <time>2014-05-10T13:27:43.000Z</time>
      </trkpt>
      <trkpt lat="44.38939" lon="4.08702">
        <ele>574</ele>
        <time>2014-05-10T13:27:53.000Z</time>
      </trkpt>
      <trkpt lat="44.38947" lon="4.08701">
        <ele>575.40002441406</ele>
        <time>2014-05-10T13:27:59.000Z</time>
      </trkpt>
      <trkpt lat="44.38956" lon="4.08701">
        <ele>577.59997558594</ele>
        <time>2014-05-10T13:28:07.000Z</time>
      </trkpt>
      <trkpt lat="44.38967" lon="4.08702">
        <ele>580</ele>
        <time>2014-05-10T13:28:16.000Z</time>
      </trkpt>
      <trkpt lat="44.3898" lon="4.08701">
        <ele>582.40002441406</ele>
        <time>2014-05-10T13:28:26.000Z</time>
      </trkpt>
      <trkpt lat="44.38991" lon="4.08694">
        <ele>582.59997558594</ele>
        <time>2014-05-10T13:28:36.000Z</time>
      </trkpt>
      <trkpt lat="44.39002" lon="4.08688">
        <ele>582.40002441406</ele>
        <time>2014-05-10T13:28:45.000Z</time>
      </trkpt>
      <trkpt lat="44.39003" lon="4.08687">
        <ele>582.40002441406</ele>
        <time>2014-05-10T13:28:46.000Z</time>
      </trkpt>
      <trkpt lat="44.39012" lon="4.08681">
        <ele>581.20001220703</ele>
        <time>2014-05-10T13:28:53.000Z</time>
      </trkpt>
      <trkpt lat="44.39013" lon="4.08679">
        <ele>580.79998779297</ele>
        <time>2014-05-10T13:28:54.000Z</time>
      </trkpt>
      <trkpt lat="44.39017" lon="4.08667">
        <ele>579.20001220703</ele>
        <time>2014-05-10T13:29:03.000Z</time>
      </trkpt>
      <trkpt lat="44.3902" lon="4.08653">
        <ele>577.79998779297</ele>
        <time>2014-05-10T13:29:12.000Z</time>
      </trkpt>
      <trkpt lat="44.39024" lon="4.08638">
        <ele>576.79998779297</ele>
        <time>2014-05-10T13:29:21.000Z</time>
      </trkpt>
      <trkpt lat="44.39027" lon="4.08628">
        <ele>576.59997558594</ele>
        <time>2014-05-10T13:29:26.000Z</time>
      </trkpt>
      <trkpt lat="44.39032" lon="4.08617">
        <ele>576.59997558594</ele>
        <time>2014-05-10T13:29:33.000Z</time>
      </trkpt>
      <trkpt lat="44.39038" lon="4.08605">
        <ele>577.20001220703</ele>
        <time>2014-05-10T13:29:41.000Z</time>
      </trkpt>
      <trkpt lat="44.39041" lon="4.08595">
        <ele>577</ele>
        <time>2014-05-10T13:29:47.000Z</time>
      </trkpt>
      <trkpt lat="44.39045" lon="4.0858">
        <ele>575.79998779297</ele>
        <time>2014-05-10T13:29:55.000Z</time>
      </trkpt>
      <trkpt lat="44.39045" lon="4.08577">
        <ele>575.20001220703</ele>
        <time>2014-05-10T13:29:57.000Z</time>
      </trkpt>
      <trkpt lat="44.39047" lon="4.0856">
        <ele>573</ele>
        <time>2014-05-10T13:30:06.000Z</time>
      </trkpt>
      <trkpt lat="44.3905" lon="4.0855">
        <ele>572.20001220703</ele>
        <time>2014-05-10T13:30:12.000Z</time>
      </trkpt>
      <trkpt lat="44.39053" lon="4.08541">
        <ele>571.79998779297</ele>
        <time>2014-05-10T13:30:18.000Z</time>
      </trkpt>
      <trkpt lat="44.39057" lon="4.08535">
        <ele>571.59997558594</ele>
        <time>2014-05-10T13:30:22.000Z</time>
      </trkpt>
      <trkpt lat="44.39058" lon="4.08533">
        <ele>571.59997558594</ele>
        <time>2014-05-10T13:30:23.000Z</time>
      </trkpt>
      <trkpt lat="44.39068" lon="4.08522">
        <ele>574</ele>
        <time>2014-05-10T13:30:33.000Z</time>
      </trkpt>
      <trkpt lat="44.39078" lon="4.08516">
        <ele>577.59997558594</ele>
        <time>2014-05-10T13:30:41.000Z</time>
      </trkpt>
      <trkpt lat="44.39087" lon="4.08509">
        <ele>580.40002441406</ele>
        <time>2014-05-10T13:30:49.000Z</time>
      </trkpt>
      <trkpt lat="44.39097" lon="4.08498">
        <ele>583.20001220703</ele>
        <time>2014-05-10T13:30:59.000Z</time>
      </trkpt>
      <trkpt lat="44.39105" lon="4.08487">
        <ele>584</ele>
        <time>2014-05-10T13:31:08.000Z</time>
      </trkpt>
      <trkpt lat="44.39112" lon="4.08476">
        <ele>584.59997558594</ele>
        <time>2014-05-10T13:31:16.000Z</time>
      </trkpt>
      <trkpt lat="44.39118" lon="4.08468">
        <ele>585.59997558594</ele>
        <time>2014-05-10T13:31:22.000Z</time>
      </trkpt>
      <trkpt lat="44.39122" lon="4.08466">
        <ele>587.40002441406</ele>
        <time>2014-05-10T13:31:27.000Z</time>
      </trkpt>
      <trkpt lat="44.39124" lon="4.08467">
        <ele>588.20001220703</ele>
        <time>2014-05-10T13:31:29.000Z</time>
      </trkpt>
      <trkpt lat="44.39124" lon="4.08467">
        <ele>588.20001220703</ele>
        <time>2014-05-10T13:31:36.000Z</time>
      </trkpt>
      <trkpt lat="44.39125" lon="4.08468">
        <ele>589</ele>
        <time>2014-05-10T13:31:57.000Z</time>
      </trkpt>
      <trkpt lat="44.39128" lon="4.08466">
        <ele>589.59997558594</ele>
        <time>2014-05-10T13:32:12.000Z</time>
      </trkpt>
      <trkpt lat="44.39127" lon="4.08465">
        <ele>589.20001220703</ele>
        <time>2014-05-10T13:32:16.000Z</time>
      </trkpt>
      <trkpt lat="44.3913" lon="4.08464">
        <ele>590.20001220703</ele>
        <time>2014-05-10T13:32:21.000Z</time>
      </trkpt>
      <trkpt lat="44.39132" lon="4.08463">
        <ele>591</ele>
        <time>2014-05-10T13:32:27.000Z</time>
      </trkpt>
      <trkpt lat="44.39136" lon="4.08453">
        <ele>591.40002441406</ele>
        <time>2014-05-10T13:32:34.000Z</time>
      </trkpt>
      <trkpt lat="44.39141" lon="4.08443">
        <ele>592.40002441406</ele>
        <time>2014-05-10T13:32:41.000Z</time>
      </trkpt>
      <trkpt lat="44.39142" lon="4.08441">
        <ele>593.20001220703</ele>
        <time>2014-05-10T13:32:43.000Z</time>
      </trkpt>
      <trkpt lat="44.39143" lon="4.08434">
        <ele>595.40002441406</ele>
        <time>2014-05-10T13:32:47.000Z</time>
      </trkpt>
      <trkpt lat="44.39145" lon="4.08416">
        <ele>600.20001220703</ele>
        <time>2014-05-10T13:32:57.000Z</time>
      </trkpt>
      <trkpt lat="44.39141" lon="4.08402">
        <ele>601.59997558594</ele>
        <time>2014-05-10T13:33:05.000Z</time>
      </trkpt>
      <trkpt lat="44.39139" lon="4.08396">
        <ele>601.79998779297</ele>
        <time>2014-05-10T13:33:10.000Z</time>
      </trkpt>
      <trkpt lat="44.39134" lon="4.08392">
        <ele>600.40002441406</ele>
        <time>2014-05-10T13:33:17.000Z</time>
      </trkpt>
      <trkpt lat="44.39124" lon="4.08383">
        <ele>598.20001220703</ele>
        <time>2014-05-10T13:33:28.000Z</time>
      </trkpt>
      <trkpt lat="44.39115" lon="4.08375">
        <ele>595.79998779297</ele>
        <time>2014-05-10T13:33:37.000Z</time>
      </trkpt>
      <trkpt lat="44.39112" lon="4.08372">
        <ele>595.40002441406</ele>
        <time>2014-05-10T13:33:40.000Z</time>
      </trkpt>
      <trkpt lat="44.39104" lon="4.08364">
        <ele>594.40002441406</ele>
        <time>2014-05-10T13:33:48.000Z</time>
      </trkpt>
      <trkpt lat="44.39097" lon="4.08357">
        <ele>593</ele>
        <time>2014-05-10T13:33:54.000Z</time>
      </trkpt>
      <trkpt lat="44.3909" lon="4.08346">
        <ele>588.79998779297</ele>
        <time>2014-05-10T13:34:02.000Z</time>
      </trkpt>
      <trkpt lat="44.39081" lon="4.08331">
        <ele>584</ele>
        <time>2014-05-10T13:34:12.000Z</time>
      </trkpt>
      <trkpt lat="44.39077" lon="4.08315">
        <ele>581</ele>
        <time>2014-05-10T13:34:21.000Z</time>
      </trkpt>
      <trkpt lat="44.39081" lon="4.08302">
        <ele>581.59997558594</ele>
        <time>2014-05-10T13:34:28.000Z</time>
      </trkpt>
      <trkpt lat="44.39081" lon="4.08301">
        <ele>581.79998779297</ele>
        <time>2014-05-10T13:34:29.000Z</time>
      </trkpt>
      <trkpt lat="44.39085" lon="4.08295">
        <ele>583</ele>
        <time>2014-05-10T13:34:33.000Z</time>
      </trkpt>
      <trkpt lat="44.39092" lon="4.08284">
        <ele>585.20001220703</ele>
        <time>2014-05-10T13:34:41.000Z</time>
      </trkpt>
      <trkpt lat="44.39099" lon="4.08273">
        <ele>586.20001220703</ele>
        <time>2014-05-10T13:34:49.000Z</time>
      </trkpt>
      <trkpt lat="44.39106" lon="4.08261">
        <ele>586</ele>
        <time>2014-05-10T13:34:58.000Z</time>
      </trkpt>
      <trkpt lat="44.39112" lon="4.08247">
        <ele>586.59997558594</ele>
        <time>2014-05-10T13:35:08.000Z</time>
      </trkpt>
      <trkpt lat="44.39116" lon="4.08238">
        <ele>587</ele>
        <time>2014-05-10T13:35:14.000Z</time>
      </trkpt>
      <trkpt lat="44.3912" lon="4.08228">
        <ele>587</ele>
        <time>2014-05-10T13:35:20.000Z</time>
      </trkpt>
      <trkpt lat="44.39124" lon="4.08217">
        <ele>587</ele>
        <time>2014-05-10T13:35:27.000Z</time>
      </trkpt>
      <trkpt lat="44.39131" lon="4.08197">
        <ele>586.20001220703</ele>
        <time>2014-05-10T13:35:39.000Z</time>
      </trkpt>
      <trkpt lat="44.39134" lon="4.08184">
        <ele>585.59997558594</ele>
        <time>2014-05-10T13:35:46.000Z</time>
      </trkpt>
      <trkpt lat="44.39136" lon="4.08176">
        <ele>585.20001220703</ele>
        <time>2014-05-10T13:35:50.000Z</time>
      </trkpt>
      <trkpt lat="44.39141" lon="4.08162">
        <ele>586</ele>
        <time>2014-05-10T13:35:58.000Z</time>
      </trkpt>
      <trkpt lat="44.39151" lon="4.08148">
        <ele>588.79998779297</ele>
        <time>2014-05-10T13:36:08.000Z</time>
      </trkpt>
      <trkpt lat="44.39161" lon="4.08137">
        <ele>590</ele>
        <time>2014-05-10T13:36:18.000Z</time>
      </trkpt>
      <trkpt lat="44.39182" lon="4.08115">
        <ele>592.20001220703</ele>
        <time>2014-05-10T13:36:38.000Z</time>
      </trkpt>
      <trkpt lat="44.39189" lon="4.08109">
        <ele>593.20001220703</ele>
        <time>2014-05-10T13:36:44.000Z</time>
      </trkpt>
      <trkpt lat="44.39194" lon="4.08104">
        <ele>594.20001220703</ele>
        <time>2014-05-10T13:36:50.000Z</time>
      </trkpt>
      <trkpt lat="44.392" lon="4.08098">
        <ele>593</ele>
        <time>2014-05-10T13:36:56.000Z</time>
      </trkpt>
      <trkpt lat="44.39212" lon="4.08089">
        <ele>592.20001220703</ele>
        <time>2014-05-10T13:37:06.000Z</time>
      </trkpt>
      <trkpt lat="44.39223" lon="4.08083">
        <ele>592.20001220703</ele>
        <time>2014-05-10T13:37:14.000Z</time>
      </trkpt>
      <trkpt lat="44.39232" lon="4.08081">
        <ele>593</ele>
        <time>2014-05-10T13:37:21.000Z</time>
      </trkpt>
      <trkpt lat="44.39245" lon="4.0808">
        <ele>596</ele>
        <time>2014-05-10T13:37:31.000Z</time>
      </trkpt>
      <trkpt lat="44.39257" lon="4.08082">
        <ele>599</ele>
        <time>2014-05-10T13:37:40.000Z</time>
      </trkpt>
      <trkpt lat="44.39267" lon="4.08083">
        <ele>601.20001220703</ele>
        <time>2014-05-10T13:37:48.000Z</time>
      </trkpt>
      <trkpt lat="44.39281" lon="4.08084">
        <ele>604.40002441406</ele>
        <time>2014-05-10T13:37:58.000Z</time>
      </trkpt>
      <trkpt lat="44.39289" lon="4.08084">
        <ele>606.79998779297</ele>
        <time>2014-05-10T13:38:04.000Z</time>
      </trkpt>
      <trkpt lat="44.39298" lon="4.08083">
        <ele>608.59997558594</ele>
        <time>2014-05-10T13:38:11.000Z</time>
      </trkpt>
      <trkpt lat="44.39307" lon="4.08078">
        <ele>609.40002441406</ele>
        <time>2014-05-10T13:38:19.000Z</time>
      </trkpt>
      <trkpt lat="44.39314" lon="4.0807">
        <ele>608.20001220703</ele>
        <time>2014-05-10T13:38:25.000Z</time>
      </trkpt>
      <trkpt lat="44.39317" lon="4.08065">
        <ele>606.79998779297</ele>
        <time>2014-05-10T13:38:29.000Z</time>
      </trkpt>
      <trkpt lat="44.39322" lon="4.08053">
        <ele>605</ele>
        <time>2014-05-10T13:38:37.000Z</time>
      </trkpt>
      <trkpt lat="44.39326" lon="4.08043">
        <ele>603.79998779297</ele>
        <time>2014-05-10T13:38:44.000Z</time>
      </trkpt>
      <trkpt lat="44.3933" lon="4.08036">
        <ele>603</ele>
        <time>2014-05-10T13:38:49.000Z</time>
      </trkpt>
      <trkpt lat="44.39335" lon="4.08027">
        <ele>602.40002441406</ele>
        <time>2014-05-10T13:38:57.000Z</time>
      </trkpt>
      <trkpt lat="44.39338" lon="4.08024">
        <ele>602.59997558594</ele>
        <time>2014-05-10T13:39:01.000Z</time>
      </trkpt>
      <trkpt lat="44.3934" lon="4.08026">
        <ele>604</ele>
        <time>2014-05-10T13:39:06.000Z</time>
      </trkpt>
      <trkpt lat="44.39341" lon="4.0803">
        <ele>605.40002441406</ele>
        <time>2014-05-10T13:39:13.000Z</time>
      </trkpt>
      <trkpt lat="44.3934" lon="4.0803">
        <ele>605.40002441406</ele>
        <time>2014-05-10T13:39:18.000Z</time>
      </trkpt>
      <trkpt lat="44.39344" lon="4.08027">
        <ele>605.59997558594</ele>
        <time>2014-05-10T13:39:25.000Z</time>
      </trkpt>
      <trkpt lat="44.39346" lon="4.08027">
        <ele>606.79998779297</ele>
        <time>2014-05-10T13:39:30.000Z</time>
      </trkpt>
      <trkpt lat="44.39348" lon="4.08027">
        <ele>607.40002441406</ele>
        <time>2014-05-10T13:39:35.000Z</time>
      </trkpt>
      <trkpt lat="44.3935" lon="4.08027">
        <ele>608.20001220703</ele>
        <time>2014-05-10T13:39:40.000Z</time>
      </trkpt>
      <trkpt lat="44.39354" lon="4.08022">
        <ele>608.59997558594</ele>
        <time>2014-05-10T13:39:50.000Z</time>
      </trkpt>
      <trkpt lat="44.39357" lon="4.08021">
        <ele>609.40002441406</ele>
        <time>2014-05-10T13:39:56.000Z</time>
      </trkpt>
      <trkpt lat="44.39359" lon="4.08019">
        <ele>610</ele>
        <time>2014-05-10T13:40:08.000Z</time>
      </trkpt>
      <trkpt lat="44.39363" lon="4.08016">
        <ele>611.79998779297</ele>
        <time>2014-05-10T13:40:19.000Z</time>
      </trkpt>
      <trkpt lat="44.39366" lon="4.08011">
        <ele>613.20001220703</ele>
        <time>2014-05-10T13:40:36.000Z</time>
      </trkpt>
      <trkpt lat="44.39368" lon="4.08007">
        <ele>614</ele>
        <time>2014-05-10T13:40:43.000Z</time>
      </trkpt>
      <trkpt lat="44.39369" lon="4.08005">
        <ele>614.40002441406</ele>
        <time>2014-05-10T13:40:45.000Z</time>
      </trkpt>
      <trkpt lat="44.39371" lon="4.08001">
        <ele>615.20001220703</ele>
        <time>2014-05-10T13:40:50.000Z</time>
      </trkpt>
      <trkpt lat="44.39374" lon="4.07996">
        <ele>616.20001220703</ele>
        <time>2014-05-10T13:40:55.000Z</time>
      </trkpt>
      <trkpt lat="44.39376" lon="4.07989">
        <ele>616.79998779297</ele>
        <time>2014-05-10T13:41:01.000Z</time>
      </trkpt>
      <trkpt lat="44.39379" lon="4.0798">
        <ele>617.59997558594</ele>
        <time>2014-05-10T13:41:08.000Z</time>
      </trkpt>
      <trkpt lat="44.3938" lon="4.07975">
        <ele>617.59997558594</ele>
        <time>2014-05-10T13:41:12.000Z</time>
      </trkpt>
      <trkpt lat="44.39381" lon="4.07969">
        <ele>617.79998779297</ele>
        <time>2014-05-10T13:41:16.000Z</time>
      </trkpt>
      <trkpt lat="44.39382" lon="4.07961">
        <ele>617.20001220703</ele>
        <time>2014-05-10T13:41:23.000Z</time>
      </trkpt>
      <trkpt lat="44.39383" lon="4.07954">
        <ele>617.59997558594</ele>
        <time>2014-05-10T13:41:31.000Z</time>
      </trkpt>
      <trkpt lat="44.39384" lon="4.07948">
        <ele>617.59997558594</ele>
        <time>2014-05-10T13:41:36.000Z</time>
      </trkpt>
      <trkpt lat="44.39384" lon="4.07945">
        <ele>617</ele>
        <time>2014-05-10T13:41:38.000Z</time>
      </trkpt>
      <trkpt lat="44.39384" lon="4.0794">
        <ele>617.20001220703</ele>
        <time>2014-05-10T13:41:42.000Z</time>
      </trkpt>
      <trkpt lat="44.39386" lon="4.07929">
        <ele>619.20001220703</ele>
        <time>2014-05-10T13:41:50.000Z</time>
      </trkpt>
      <trkpt lat="44.39387" lon="4.0792">
        <ele>620.20001220703</ele>
        <time>2014-05-10T13:41:57.000Z</time>
      </trkpt>
      <trkpt lat="44.39387" lon="4.07912">
        <ele>621.20001220703</ele>
        <time>2014-05-10T13:42:03.000Z</time>
      </trkpt>
      <trkpt lat="44.39388" lon="4.07905">
        <ele>622.20001220703</ele>
        <time>2014-05-10T13:42:09.000Z</time>
      </trkpt>
      <trkpt lat="44.39388" lon="4.07903">
        <ele>622.40002441406</ele>
        <time>2014-05-10T13:42:11.000Z</time>
      </trkpt>
      <trkpt lat="44.39389" lon="4.07898">
        <ele>623.40002441406</ele>
        <time>2014-05-10T13:42:15.000Z</time>
      </trkpt>
      <trkpt lat="44.39389" lon="4.07895">
        <ele>623.59997558594</ele>
        <time>2014-05-10T13:42:17.000Z</time>
      </trkpt>
      <trkpt lat="44.39389" lon="4.07889">
        <ele>624.20001220703</ele>
        <time>2014-05-10T13:42:22.000Z</time>
      </trkpt>
      <trkpt lat="44.3939" lon="4.07882">
        <ele>624.79998779297</ele>
        <time>2014-05-10T13:42:28.000Z</time>
      </trkpt>
      <trkpt lat="44.39391" lon="4.07875">
        <ele>624.40002441406</ele>
        <time>2014-05-10T13:42:34.000Z</time>
      </trkpt>
      <trkpt lat="44.39389" lon="4.0787">
        <ele>623.20001220703</ele>
        <time>2014-05-10T13:42:38.000Z</time>
      </trkpt>
      <trkpt lat="44.39389" lon="4.07867">
        <ele>623</ele>
        <time>2014-05-10T13:42:40.000Z</time>
      </trkpt>
      <trkpt lat="44.39389" lon="4.07867">
        <ele>623</ele>
        <time>2014-05-10T13:42:41.000Z</time>
      </trkpt>
      <trkpt lat="44.39386" lon="4.07857">
        <ele>620.79998779297</ele>
        <time>2014-05-10T13:42:49.000Z</time>
      </trkpt>
      <trkpt lat="44.39385" lon="4.0785">
        <ele>618.79998779297</ele>
        <time>2014-05-10T13:42:55.000Z</time>
      </trkpt>
      <trkpt lat="44.39385" lon="4.07843">
        <ele>617.20001220703</ele>
        <time>2014-05-10T13:43:01.000Z</time>
      </trkpt>
      <trkpt lat="44.39383" lon="4.07836">
        <ele>615.20001220703</ele>
        <time>2014-05-10T13:43:07.000Z</time>
      </trkpt>
      <trkpt lat="44.39383" lon="4.07833">
        <ele>614.40002441406</ele>
        <time>2014-05-10T13:43:10.000Z</time>
      </trkpt>
      <trkpt lat="44.39383" lon="4.07826">
        <ele>613.20001220703</ele>
        <time>2014-05-10T13:43:15.000Z</time>
      </trkpt>
      <trkpt lat="44.39385" lon="4.07821">
        <ele>613.20001220703</ele>
        <time>2014-05-10T13:43:20.000Z</time>
      </trkpt>
      <trkpt lat="44.39387" lon="4.07812">
        <ele>612.59997558594</ele>
        <time>2014-05-10T13:43:27.000Z</time>
      </trkpt>
      <trkpt lat="44.39388" lon="4.07811">
        <ele>612.59997558594</ele>
        <time>2014-05-10T13:43:28.000Z</time>
      </trkpt>
      <trkpt lat="44.3939" lon="4.07809">
        <ele>613</ele>
        <time>2014-05-10T13:43:32.000Z</time>
      </trkpt>
      <trkpt lat="44.39394" lon="4.07807">
        <ele>615</ele>
        <time>2014-05-10T13:43:37.000Z</time>
      </trkpt>
      <trkpt lat="44.39395" lon="4.07807">
        <ele>615.20001220703</ele>
        <time>2014-05-10T13:43:38.000Z</time>
      </trkpt>
      <trkpt lat="44.39399" lon="4.07804">
        <ele>616</ele>
        <time>2014-05-10T13:43:45.000Z</time>
      </trkpt>
      <trkpt lat="44.39401" lon="4.07802">
        <ele>616.20001220703</ele>
        <time>2014-05-10T13:43:51.000Z</time>
      </trkpt>
      <trkpt lat="44.39404" lon="4.07803">
        <ele>617.79998779297</ele>
        <time>2014-05-10T13:45:22.000Z</time>
      </trkpt>
      <trkpt lat="44.39408" lon="4.07806">
        <ele>619.79998779297</ele>
        <time>2014-05-10T13:45:27.000Z</time>
      </trkpt>
      <trkpt lat="44.39412" lon="4.07803">
        <ele>620.59997558594</ele>
        <time>2014-05-10T13:45:35.000Z</time>
      </trkpt>
      <trkpt lat="44.39414" lon="4.07799">
        <ele>620</ele>
        <time>2014-05-10T13:45:40.000Z</time>
      </trkpt>
      <trkpt lat="44.39418" lon="4.07794">
        <ele>620</ele>
        <time>2014-05-10T13:45:46.000Z</time>
      </trkpt>
      <trkpt lat="44.39423" lon="4.07792">
        <ele>621.20001220703</ele>
        <time>2014-05-10T13:45:52.000Z</time>
      </trkpt>
      <trkpt lat="44.39424" lon="4.07791">
        <ele>621.40002441406</ele>
        <time>2014-05-10T13:45:53.000Z</time>
      </trkpt>
      <trkpt lat="44.39426" lon="4.07791">
        <ele>622</ele>
        <time>2014-05-10T13:45:58.000Z</time>
      </trkpt>
      <trkpt lat="44.3943" lon="4.07791">
        <ele>623.59997558594</ele>
        <time>2014-05-10T13:46:14.000Z</time>
      </trkpt>
      <trkpt lat="44.39437" lon="4.07791">
        <ele>626.40002441406</ele>
        <time>2014-05-10T13:46:22.000Z</time>
      </trkpt>
      <trkpt lat="44.39444" lon="4.07791">
        <ele>628.79998779297</ele>
        <time>2014-05-10T13:46:29.000Z</time>
      </trkpt>
      <trkpt lat="44.39449" lon="4.07792">
        <ele>630.79998779297</ele>
        <time>2014-05-10T13:46:36.000Z</time>
      </trkpt>
      <trkpt lat="44.3945" lon="4.07793">
        <ele>631.40002441406</ele>
        <time>2014-05-10T13:46:43.000Z</time>
      </trkpt>
      <trkpt lat="44.39455" lon="4.07795">
        <ele>632.40002441406</ele>
        <time>2014-05-10T13:46:48.000Z</time>
      </trkpt>
      <trkpt lat="44.39463" lon="4.07794">
        <ele>633.40002441406</ele>
        <time>2014-05-10T13:46:56.000Z</time>
      </trkpt>
      <trkpt lat="44.3947" lon="4.07794">
        <ele>634.20001220703</ele>
        <time>2014-05-10T13:47:03.000Z</time>
      </trkpt>
      <trkpt lat="44.39479" lon="4.07792">
        <ele>634</ele>
        <time>2014-05-10T13:47:12.000Z</time>
      </trkpt>
      <trkpt lat="44.39486" lon="4.07792">
        <ele>634.20001220703</ele>
        <time>2014-05-10T13:47:19.000Z</time>
      </trkpt>
      <trkpt lat="44.3949" lon="4.07792">
        <ele>634.20001220703</ele>
        <time>2014-05-10T13:47:25.000Z</time>
      </trkpt>
      <trkpt lat="44.39492" lon="4.07796">
        <ele>636.20001220703</ele>
        <time>2014-05-10T13:47:31.000Z</time>
      </trkpt>
      <trkpt lat="44.39492" lon="4.07797">
        <ele>636.79998779297</ele>
        <time>2014-05-10T13:47:32.000Z</time>
      </trkpt>
      <trkpt lat="44.39489" lon="4.078">
        <ele>637.79998779297</ele>
        <time>2014-05-10T13:47:38.000Z</time>
      </trkpt>
      <trkpt lat="44.39485" lon="4.07803">
        <ele>638.59997558594</ele>
        <time>2014-05-10T13:47:43.000Z</time>
      </trkpt>
      <trkpt lat="44.39481" lon="4.07804">
        <ele>638.79998779297</ele>
        <time>2014-05-10T13:47:49.000Z</time>
      </trkpt>
      <trkpt lat="44.39477" lon="4.07806">
        <ele>639.40002441406</ele>
        <time>2014-05-10T13:47:56.000Z</time>
      </trkpt>
      <trkpt lat="44.39473" lon="4.07808">
        <ele>639.40002441406</ele>
        <time>2014-05-10T13:48:03.000Z</time>
      </trkpt>
      <trkpt lat="44.39469" lon="4.07811">
        <ele>639.40002441406</ele>
        <time>2014-05-10T13:48:09.000Z</time>
      </trkpt>
      <trkpt lat="44.39465" lon="4.07812">
        <ele>639.40002441406</ele>
        <time>2014-05-10T13:48:15.000Z</time>
      </trkpt>
      <trkpt lat="44.39462" lon="4.07814">
        <ele>639.40002441406</ele>
        <time>2014-05-10T13:48:21.000Z</time>
      </trkpt>
      <trkpt lat="44.39459" lon="4.07815">
        <ele>639.20001220703</ele>
        <time>2014-05-10T13:48:26.000Z</time>
      </trkpt>
      <trkpt lat="44.39453" lon="4.07818">
        <ele>639.40002441406</ele>
        <time>2014-05-10T13:48:34.000Z</time>
      </trkpt>
      <trkpt lat="44.39448" lon="4.07821">
        <ele>639.40002441406</ele>
        <time>2014-05-10T13:48:41.000Z</time>
      </trkpt>
      <trkpt lat="44.39443" lon="4.07824">
        <ele>638.40002441406</ele>
        <time>2014-05-10T13:48:48.000Z</time>
      </trkpt>
      <trkpt lat="44.39437" lon="4.07827">
        <ele>637.20001220703</ele>
        <time>2014-05-10T13:48:56.000Z</time>
      </trkpt>
      <trkpt lat="44.39434" lon="4.07831">
        <ele>637</ele>
        <time>2014-05-10T13:49:02.000Z</time>
      </trkpt>
      <trkpt lat="44.3943" lon="4.07834">
        <ele>636.40002441406</ele>
        <time>2014-05-10T13:49:09.000Z</time>
      </trkpt>
      <trkpt lat="44.39428" lon="4.07839">
        <ele>637.20001220703</ele>
        <time>2014-05-10T13:49:15.000Z</time>
      </trkpt>
      <trkpt lat="44.39427" lon="4.07845">
        <ele>638</ele>
        <time>2014-05-10T13:49:20.000Z</time>
      </trkpt>
      <trkpt lat="44.39428" lon="4.07849">
        <ele>639</ele>
        <time>2014-05-10T13:49:25.000Z</time>
      </trkpt>
      <trkpt lat="44.39429" lon="4.07854">
        <ele>640.59997558594</ele>
        <time>2014-05-10T13:49:30.000Z</time>
      </trkpt>
      <trkpt lat="44.39429" lon="4.07859">
        <ele>641.59997558594</ele>
        <time>2014-05-10T13:49:36.000Z</time>
      </trkpt>
      <trkpt lat="44.3943" lon="4.07866">
        <ele>642.79998779297</ele>
        <time>2014-05-10T13:49:42.000Z</time>
      </trkpt>
      <trkpt lat="44.39431" lon="4.0787">
        <ele>643.59997558594</ele>
        <time>2014-05-10T13:49:46.000Z</time>
      </trkpt>
      <trkpt lat="44.39433" lon="4.07876">
        <ele>645.20001220703</ele>
        <time>2014-05-10T13:49:53.000Z</time>
      </trkpt>
      <trkpt lat="44.39435" lon="4.07882">
        <ele>646.20001220703</ele>
        <time>2014-05-10T13:49:59.000Z</time>
      </trkpt>
      <trkpt lat="44.39436" lon="4.07887">
        <ele>647.40002441406</ele>
        <time>2014-05-10T13:50:03.000Z</time>
      </trkpt>
      <trkpt lat="44.39438" lon="4.07892">
        <ele>648.40002441406</ele>
        <time>2014-05-10T13:50:09.000Z</time>
      </trkpt>
      <trkpt lat="44.39438" lon="4.07894">
        <ele>648.59997558594</ele>
        <time>2014-05-10T13:50:10.000Z</time>
      </trkpt>
      <trkpt lat="44.39438" lon="4.07899">
        <ele>649.20001220703</ele>
        <time>2014-05-10T13:50:14.000Z</time>
      </trkpt>
      <trkpt lat="44.39438" lon="4.07905">
        <ele>649.40002441406</ele>
        <time>2014-05-10T13:50:20.000Z</time>
      </trkpt>
      <trkpt lat="44.39439" lon="4.0791">
        <ele>650.40002441406</ele>
        <time>2014-05-10T13:50:25.000Z</time>
      </trkpt>
      <trkpt lat="44.39439" lon="4.0792">
        <ele>651</ele>
        <time>2014-05-10T13:50:32.000Z</time>
      </trkpt>
      <trkpt lat="44.3944" lon="4.07921">
        <ele>651.40002441406</ele>
        <time>2014-05-10T13:50:33.000Z</time>
      </trkpt>
      <trkpt lat="44.3944" lon="4.07924">
        <ele>651.79998779297</ele>
        <time>2014-05-10T13:50:35.000Z</time>
      </trkpt>
      <trkpt lat="44.3944" lon="4.07928">
        <ele>651.79998779297</ele>
        <time>2014-05-10T13:50:39.000Z</time>
      </trkpt>
      <trkpt lat="44.3944" lon="4.0793">
        <ele>652</ele>
        <time>2014-05-10T13:50:41.000Z</time>
      </trkpt>
      <trkpt lat="44.3944" lon="4.07936">
        <ele>652.59997558594</ele>
        <time>2014-05-10T13:50:46.000Z</time>
      </trkpt>
      <trkpt lat="44.39441" lon="4.07941">
        <ele>652.79998779297</ele>
        <time>2014-05-10T13:50:51.000Z</time>
      </trkpt>
      <trkpt lat="44.39442" lon="4.07947">
        <ele>653.79998779297</ele>
        <time>2014-05-10T13:50:58.000Z</time>
      </trkpt>
      <trkpt lat="44.39442" lon="4.0795">
        <ele>653.79998779297</ele>
        <time>2014-05-10T13:51:03.000Z</time>
      </trkpt>
      <trkpt lat="44.39443" lon="4.07957">
        <ele>655</ele>
        <time>2014-05-10T13:51:11.000Z</time>
      </trkpt>
      <trkpt lat="44.39444" lon="4.07962">
        <ele>656</ele>
        <time>2014-05-10T13:51:16.000Z</time>
      </trkpt>
      <trkpt lat="44.39445" lon="4.07965">
        <ele>656.79998779297</ele>
        <time>2014-05-10T13:51:20.000Z</time>
      </trkpt>
      <trkpt lat="44.39446" lon="4.0797">
        <ele>658</ele>
        <time>2014-05-10T13:51:25.000Z</time>
      </trkpt>
      <trkpt lat="44.39447" lon="4.07976">
        <ele>659.20001220703</ele>
        <time>2014-05-10T13:51:31.000Z</time>
      </trkpt>
      <trkpt lat="44.39447" lon="4.07981">
        <ele>659.59997558594</ele>
        <time>2014-05-10T13:51:34.000Z</time>
      </trkpt>
      <trkpt lat="44.39444" lon="4.07985">
        <ele>658.20001220703</ele>
        <time>2014-05-10T13:51:39.000Z</time>
      </trkpt>
      <trkpt lat="44.39442" lon="4.07989">
        <ele>657.79998779297</ele>
        <time>2014-05-10T13:51:43.000Z</time>
      </trkpt>
      <trkpt lat="44.39441" lon="4.07991">
        <ele>657</ele>
        <time>2014-05-10T13:51:45.000Z</time>
      </trkpt>
      <trkpt lat="44.3944" lon="4.08">
        <ele>657.40002441406</ele>
        <time>2014-05-10T13:51:52.000Z</time>
      </trkpt>
      <trkpt lat="44.3944" lon="4.08001">
        <ele>657.40002441406</ele>
        <time>2014-05-10T13:51:53.000Z</time>
      </trkpt>
      <trkpt lat="44.39441" lon="4.08007">
        <ele>658.40002441406</ele>
        <time>2014-05-10T13:51:58.000Z</time>
      </trkpt>
      <trkpt lat="44.39441" lon="4.0801">
        <ele>658.59997558594</ele>
        <time>2014-05-10T13:52:00.000Z</time>
      </trkpt>
      <trkpt lat="44.3944" lon="4.08011">
        <ele>658.59997558594</ele>
        <time>2014-05-10T13:52:02.000Z</time>
      </trkpt>
      <trkpt lat="44.3944" lon="4.08014">
        <ele>658.79998779297</ele>
        <time>2014-05-10T13:52:05.000Z</time>
      </trkpt>
      <trkpt lat="44.39439" lon="4.0802">
        <ele>658.40002441406</ele>
        <time>2014-05-10T13:52:11.000Z</time>
      </trkpt>
      <trkpt lat="44.39438" lon="4.08026">
        <ele>658.59997558594</ele>
        <time>2014-05-10T13:52:16.000Z</time>
      </trkpt>
      <trkpt lat="44.39437" lon="4.08029">
        <ele>658.79998779297</ele>
        <time>2014-05-10T13:52:19.000Z</time>
      </trkpt>
      <trkpt lat="44.39437" lon="4.08037">
        <ele>660.20001220703</ele>
        <time>2014-05-10T13:52:24.000Z</time>
      </trkpt>
      <trkpt lat="44.39436" lon="4.08038">
        <ele>660.40002441406</ele>
        <time>2014-05-10T13:52:25.000Z</time>
      </trkpt>
      <trkpt lat="44.39435" lon="4.08044">
        <ele>661.20001220703</ele>
        <time>2014-05-10T13:52:29.000Z</time>
      </trkpt>
      <trkpt lat="44.39434" lon="4.08047">
        <ele>661</ele>
        <time>2014-05-10T13:52:32.000Z</time>
      </trkpt>
      <trkpt lat="44.39434" lon="4.0805">
        <ele>661.59997558594</ele>
        <time>2014-05-10T13:52:34.000Z</time>
      </trkpt>
      <trkpt lat="44.39433" lon="4.08056">
        <ele>662.59997558594</ele>
        <time>2014-05-10T13:52:39.000Z</time>
      </trkpt>
      <trkpt lat="44.39431" lon="4.08062">
        <ele>662.40002441406</ele>
        <time>2014-05-10T13:52:45.000Z</time>
      </trkpt>
      <trkpt lat="44.3943" lon="4.08066">
        <ele>662.59997558594</ele>
        <time>2014-05-10T13:52:47.000Z</time>
      </trkpt>
      <trkpt lat="44.39428" lon="4.08071">
        <ele>662.59997558594</ele>
        <time>2014-05-10T13:52:50.000Z</time>
      </trkpt>
      <trkpt lat="44.39426" lon="4.08075">
        <ele>662.40002441406</ele>
        <time>2014-05-10T13:52:53.000Z</time>
      </trkpt>
      <trkpt lat="44.39423" lon="4.08078">
        <ele>661</ele>
        <time>2014-05-10T13:52:58.000Z</time>
      </trkpt>
      <trkpt lat="44.39418" lon="4.08082">
        <ele>659.59997558594</ele>
        <time>2014-05-10T13:53:04.000Z</time>
      </trkpt>
      <trkpt lat="44.39416" lon="4.08085">
        <ele>659.40002441406</ele>
        <time>2014-05-10T13:53:06.000Z</time>
      </trkpt>
      <trkpt lat="44.39414" lon="4.08091">
        <ele>660.20001220703</ele>
        <time>2014-05-10T13:53:10.000Z</time>
      </trkpt>
      <trkpt lat="44.39412" lon="4.08097">
        <ele>660.59997558594</ele>
        <time>2014-05-10T13:53:14.000Z</time>
      </trkpt>
      <trkpt lat="44.39412" lon="4.08099">
        <ele>661</ele>
        <time>2014-05-10T13:53:16.000Z</time>
      </trkpt>
      <trkpt lat="44.39408" lon="4.08105">
        <ele>661</ele>
        <time>2014-05-10T13:53:22.000Z</time>
      </trkpt>
      <trkpt lat="44.39405" lon="4.08114">
        <ele>661.79998779297</ele>
        <time>2014-05-10T13:53:26.000Z</time>
      </trkpt>
      <trkpt lat="44.39401" lon="4.08123">
        <ele>662.79998779297</ele>
        <time>2014-05-10T13:53:32.000Z</time>
      </trkpt>
      <trkpt lat="44.394" lon="4.08127">
        <ele>663.20001220703</ele>
        <time>2014-05-10T13:53:35.000Z</time>
      </trkpt>
      <trkpt lat="44.39398" lon="4.08137">
        <ele>665.40002441406</ele>
        <time>2014-05-10T13:53:43.000Z</time>
      </trkpt>
      <trkpt lat="44.39397" lon="4.08139">
        <ele>665.59997558594</ele>
        <time>2014-05-10T13:53:44.000Z</time>
      </trkpt>
      <trkpt lat="44.39395" lon="4.08146">
        <ele>667</ele>
        <time>2014-05-10T13:53:49.000Z</time>
      </trkpt>
      <trkpt lat="44.39394" lon="4.08156">
        <ele>670</ele>
        <time>2014-05-10T13:53:56.000Z</time>
      </trkpt>
      <trkpt lat="44.39392" lon="4.08159">
        <ele>670.79998779297</ele>
        <time>2014-05-10T13:54:00.000Z</time>
      </trkpt>
      <trkpt lat="44.39392" lon="4.08162">
        <ele>671.59997558594</ele>
        <time>2014-05-10T13:54:02.000Z</time>
      </trkpt>
      <trkpt lat="44.39391" lon="4.08167">
        <ele>673.20001220703</ele>
        <time>2014-05-10T13:54:05.000Z</time>
      </trkpt>
      <trkpt lat="44.39391" lon="4.0817">
        <ele>674.59997558594</ele>
        <time>2014-05-10T13:54:08.000Z</time>
      </trkpt>
      <trkpt lat="44.39388" lon="4.08176">
        <ele>675.40002441406</ele>
        <time>2014-05-10T13:54:13.000Z</time>
      </trkpt>
      <trkpt lat="44.39386" lon="4.08178">
        <ele>674.79998779297</ele>
        <time>2014-05-10T13:54:16.000Z</time>
      </trkpt>
      <trkpt lat="44.39382" lon="4.08182">
        <ele>674.79998779297</ele>
        <time>2014-05-10T13:54:21.000Z</time>
      </trkpt>
      <trkpt lat="44.39379" lon="4.08184">
        <ele>674</ele>
        <time>2014-05-10T13:54:25.000Z</time>
      </trkpt>
      <trkpt lat="44.39376" lon="4.08187">
        <ele>674</ele>
        <time>2014-05-10T13:54:30.000Z</time>
      </trkpt>
      <trkpt lat="44.39373" lon="4.08191">
        <ele>674.20001220703</ele>
        <time>2014-05-10T13:54:35.000Z</time>
      </trkpt>
      <trkpt lat="44.3937" lon="4.08192">
        <ele>672.79998779297</ele>
        <time>2014-05-10T13:54:40.000Z</time>
      </trkpt>
      <trkpt lat="44.39366" lon="4.08192">
        <ele>671.40002441406</ele>
        <time>2014-05-10T13:54:46.000Z</time>
      </trkpt>
      <trkpt lat="44.39363" lon="4.082">
        <ele>673.20001220703</ele>
        <time>2014-05-10T13:54:58.000Z</time>
      </trkpt>
      <trkpt lat="44.39359" lon="4.08202">
        <ele>673</ele>
        <time>2014-05-10T13:55:03.000Z</time>
      </trkpt>
      <trkpt lat="44.39356" lon="4.08204">
        <ele>673.20001220703</ele>
        <time>2014-05-10T13:55:07.000Z</time>
      </trkpt>
      <trkpt lat="44.3935" lon="4.08209">
        <ele>673.79998779297</ele>
        <time>2014-05-10T13:55:14.000Z</time>
      </trkpt>
      <trkpt lat="44.39349" lon="4.0821">
        <ele>674</ele>
        <time>2014-05-10T13:55:15.000Z</time>
      </trkpt>
      <trkpt lat="44.39347" lon="4.08212">
        <ele>674.20001220703</ele>
        <time>2014-05-10T13:55:18.000Z</time>
      </trkpt>
      <trkpt lat="44.39344" lon="4.08214">
        <ele>674.40002441406</ele>
        <time>2014-05-10T13:55:21.000Z</time>
      </trkpt>
      <trkpt lat="44.39339" lon="4.08219">
        <ele>675</ele>
        <time>2014-05-10T13:55:28.000Z</time>
      </trkpt>
      <trkpt lat="44.39335" lon="4.08224">
        <ele>676</ele>
        <time>2014-05-10T13:55:34.000Z</time>
      </trkpt>
      <trkpt lat="44.39332" lon="4.08226">
        <ele>676.20001220703</ele>
        <time>2014-05-10T13:55:38.000Z</time>
      </trkpt>
      <trkpt lat="44.39331" lon="4.08227">
        <ele>676.40002441406</ele>
        <time>2014-05-10T13:55:40.000Z</time>
      </trkpt>
      <trkpt lat="44.39328" lon="4.08231">
        <ele>677</ele>
        <time>2014-05-10T13:55:44.000Z</time>
      </trkpt>
      <trkpt lat="44.39324" lon="4.08233">
        <ele>677.20001220703</ele>
        <time>2014-05-10T13:55:49.000Z</time>
      </trkpt>
      <trkpt lat="44.39323" lon="4.08236">
        <ele>677.79998779297</ele>
        <time>2014-05-10T13:55:51.000Z</time>
      </trkpt>
      <trkpt lat="44.39323" lon="4.08239">
        <ele>678.79998779297</ele>
        <time>2014-05-10T13:55:54.000Z</time>
      </trkpt>
      <trkpt lat="44.39328" lon="4.08242">
        <ele>681.40002441406</ele>
        <time>2014-05-10T13:56:02.000Z</time>
      </trkpt>
      <trkpt lat="44.39328" lon="4.08248">
        <ele>683.20001220703</ele>
        <time>2014-05-10T13:56:07.000Z</time>
      </trkpt>
      <trkpt lat="44.39326" lon="4.08252">
        <ele>684</ele>
        <time>2014-05-10T13:56:12.000Z</time>
      </trkpt>
      <trkpt lat="44.39324" lon="4.08258">
        <ele>685.40002441406</ele>
        <time>2014-05-10T13:56:18.000Z</time>
      </trkpt>
      <trkpt lat="44.39322" lon="4.08263">
        <ele>686.40002441406</ele>
        <time>2014-05-10T13:56:24.000Z</time>
      </trkpt>
      <trkpt lat="44.3932" lon="4.08266">
        <ele>686.59997558594</ele>
        <time>2014-05-10T13:56:28.000Z</time>
      </trkpt>
      <trkpt lat="44.39317" lon="4.0827">
        <ele>687.20001220703</ele>
        <time>2014-05-10T13:56:33.000Z</time>
      </trkpt>
      <trkpt lat="44.39316" lon="4.08277">
        <ele>689</ele>
        <time>2014-05-10T13:56:38.000Z</time>
      </trkpt>
      <trkpt lat="44.39319" lon="4.08284">
        <ele>691</ele>
        <time>2014-05-10T13:56:45.000Z</time>
      </trkpt>
      <trkpt lat="44.39319" lon="4.08288">
        <ele>691.59997558594</ele>
        <time>2014-05-10T13:56:48.000Z</time>
      </trkpt>
      <trkpt lat="44.39325" lon="4.0829">
        <ele>693.59997558594</ele>
        <time>2014-05-10T13:56:56.000Z</time>
      </trkpt>
      <trkpt lat="44.39327" lon="4.08294">
        <ele>694.79998779297</ele>
        <time>2014-05-10T13:57:02.000Z</time>
      </trkpt>
      <trkpt lat="44.39328" lon="4.08297">
        <ele>695.40002441406</ele>
        <time>2014-05-10T13:57:06.000Z</time>
      </trkpt>
      <trkpt lat="44.39332" lon="4.083">
        <ele>697.20001220703</ele>
        <time>2014-05-10T13:57:12.000Z</time>
      </trkpt>
      <trkpt lat="44.39334" lon="4.08304">
        <ele>698.40002441406</ele>
        <time>2014-05-10T13:57:19.000Z</time>
      </trkpt>
      <trkpt lat="44.39332" lon="4.08309">
        <ele>698.79998779297</ele>
        <time>2014-05-10T13:58:10.000Z</time>
      </trkpt>
      <trkpt lat="44.39335" lon="4.08312">
        <ele>699.79998779297</ele>
        <time>2014-05-10T13:58:18.000Z</time>
      </trkpt>
      <trkpt lat="44.39338" lon="4.08313">
        <ele>701</ele>
        <time>2014-05-10T13:58:23.000Z</time>
      </trkpt>
      <trkpt lat="44.39341" lon="4.08314">
        <ele>702</ele>
        <time>2014-05-10T13:58:27.000Z</time>
      </trkpt>
      <trkpt lat="44.39344" lon="4.08314">
        <ele>702.79998779297</ele>
        <time>2014-05-10T13:58:33.000Z</time>
      </trkpt>
      <trkpt lat="44.39346" lon="4.08316">
        <ele>703.59997558594</ele>
        <time>2014-05-10T13:58:37.000Z</time>
      </trkpt>
      <trkpt lat="44.39351" lon="4.0832">
        <ele>705.79998779297</ele>
        <time>2014-05-10T13:58:43.000Z</time>
      </trkpt>
      <trkpt lat="44.39355" lon="4.08321">
        <ele>707</ele>
        <time>2014-05-10T13:58:47.000Z</time>
      </trkpt>
      <trkpt lat="44.39359" lon="4.08322">
        <ele>708.20001220703</ele>
        <time>2014-05-10T13:58:52.000Z</time>
      </trkpt>
      <trkpt lat="44.39363" lon="4.08326">
        <ele>710</ele>
        <time>2014-05-10T13:58:57.000Z</time>
      </trkpt>
      <trkpt lat="44.39366" lon="4.08329">
        <ele>711.59997558594</ele>
        <time>2014-05-10T13:59:02.000Z</time>
      </trkpt>
      <trkpt lat="44.39367" lon="4.08332">
        <ele>712.40002441406</ele>
        <time>2014-05-10T13:59:04.000Z</time>
      </trkpt>
      <trkpt lat="44.39368" lon="4.08334">
        <ele>713</ele>
        <time>2014-05-10T13:59:06.000Z</time>
      </trkpt>
      <trkpt lat="44.3937" lon="4.08336">
        <ele>714.20001220703</ele>
        <time>2014-05-10T13:59:09.000Z</time>
      </trkpt>
      <trkpt lat="44.39373" lon="4.0834">
        <ele>716.40002441406</ele>
        <time>2014-05-10T13:59:14.000Z</time>
      </trkpt>
      <trkpt lat="44.39374" lon="4.08341">
        <ele>716.79998779297</ele>
        <time>2014-05-10T13:59:15.000Z</time>
      </trkpt>
      <trkpt lat="44.39377" lon="4.08345">
        <ele>718.59997558594</ele>
        <time>2014-05-10T13:59:21.000Z</time>
      </trkpt>
      <trkpt lat="44.39378" lon="4.08347">
        <ele>719.59997558594</ele>
        <time>2014-05-10T13:59:24.000Z</time>
      </trkpt>
      <trkpt lat="44.39382" lon="4.08353">
        <ele>721.79998779297</ele>
        <time>2014-05-10T13:59:29.000Z</time>
      </trkpt>
      <trkpt lat="44.39383" lon="4.08356">
        <ele>722.79998779297</ele>
        <time>2014-05-10T13:59:33.000Z</time>
      </trkpt>
      <trkpt lat="44.39384" lon="4.08362">
        <ele>723.79998779297</ele>
        <time>2014-05-10T13:59:37.000Z</time>
      </trkpt>
      <trkpt lat="44.39386" lon="4.08366">
        <ele>725.20001220703</ele>
        <time>2014-05-10T13:59:42.000Z</time>
      </trkpt>
      <trkpt lat="44.39388" lon="4.08372">
        <ele>726.40002441406</ele>
        <time>2014-05-10T13:59:48.000Z</time>
      </trkpt>
      <trkpt lat="44.39389" lon="4.08374">
        <ele>726.79998779297</ele>
        <time>2014-05-10T13:59:50.000Z</time>
      </trkpt>
      <trkpt lat="44.39389" lon="4.08378">
        <ele>727</ele>
        <time>2014-05-10T13:59:53.000Z</time>
      </trkpt>
      <trkpt lat="44.3939" lon="4.08384">
        <ele>728</ele>
        <time>2014-05-10T13:59:58.000Z</time>
      </trkpt>
      <trkpt lat="44.39391" lon="4.08385">
        <ele>728.59997558594</ele>
        <time>2014-05-10T14:00:00.000Z</time>
      </trkpt>
      <trkpt lat="44.39393" lon="4.08386">
        <ele>729.20001220703</ele>
        <time>2014-05-10T14:00:02.000Z</time>
      </trkpt>
      <trkpt lat="44.39396" lon="4.08393">
        <ele>730.79998779297</ele>
        <time>2014-05-10T14:00:10.000Z</time>
      </trkpt>
      <trkpt lat="44.39397" lon="4.08397">
        <ele>731</ele>
        <time>2014-05-10T14:00:15.000Z</time>
      </trkpt>
      <trkpt lat="44.39396" lon="4.08404">
        <ele>730</ele>
        <time>2014-05-10T14:00:22.000Z</time>
      </trkpt>
      <trkpt lat="44.39397" lon="4.08406">
        <ele>730.20001220703</ele>
        <time>2014-05-10T14:00:23.000Z</time>
      </trkpt>
      <trkpt lat="44.39396" lon="4.0841">
        <ele>729.40002441406</ele>
        <time>2014-05-10T14:00:28.000Z</time>
      </trkpt>
      <trkpt lat="44.39394" lon="4.08413">
        <ele>728</ele>
        <time>2014-05-10T14:00:32.000Z</time>
      </trkpt>
      <trkpt lat="44.39391" lon="4.08418">
        <ele>726.20001220703</ele>
        <time>2014-05-10T14:00:37.000Z</time>
      </trkpt>
      <trkpt lat="44.39388" lon="4.08424">
        <ele>724.40002441406</ele>
        <time>2014-05-10T14:00:42.000Z</time>
      </trkpt>
      <trkpt lat="44.39386" lon="4.08426">
        <ele>723</ele>
        <time>2014-05-10T14:00:45.000Z</time>
      </trkpt>
      <trkpt lat="44.39384" lon="4.08429">
        <ele>721.79998779297</ele>
        <time>2014-05-10T14:00:48.000Z</time>
      </trkpt>
      <trkpt lat="44.39384" lon="4.08434">
        <ele>721.20001220703</ele>
        <time>2014-05-10T14:00:53.000Z</time>
      </trkpt>
      <trkpt lat="44.39382" lon="4.08436">
        <ele>720.20001220703</ele>
        <time>2014-05-10T14:00:55.000Z</time>
      </trkpt>
      <trkpt lat="44.39376" lon="4.08439">
        <ele>716.40002441406</ele>
        <time>2014-05-10T14:01:02.000Z</time>
      </trkpt>
      <trkpt lat="44.39372" lon="4.08444">
        <ele>714</ele>
        <time>2014-05-10T14:01:07.000Z</time>
      </trkpt>
      <trkpt lat="44.39369" lon="4.08449">
        <ele>713.59997558594</ele>
        <time>2014-05-10T14:01:11.000Z</time>
      </trkpt>
      <trkpt lat="44.39369" lon="4.0845">
        <ele>713.40002441406</ele>
        <time>2014-05-10T14:01:12.000Z</time>
      </trkpt>
      <trkpt lat="44.39368" lon="4.08451">
        <ele>713</ele>
        <time>2014-05-10T14:01:14.000Z</time>
      </trkpt>
      <trkpt lat="44.39367" lon="4.08452">
        <ele>712.79998779297</ele>
        <time>2014-05-10T14:01:16.000Z</time>
      </trkpt>
      <trkpt lat="44.39368" lon="4.08454">
        <ele>713.79998779297</ele>
        <time>2014-05-10T14:01:18.000Z</time>
      </trkpt>
      <trkpt lat="44.39368" lon="4.08461">
        <ele>714.79998779297</ele>
        <time>2014-05-10T14:01:24.000Z</time>
      </trkpt>
      <trkpt lat="44.39367" lon="4.08465">
        <ele>715.20001220703</ele>
        <time>2014-05-10T14:01:27.000Z</time>
      </trkpt>
      <trkpt lat="44.39366" lon="4.0847">
        <ele>715.79998779297</ele>
        <time>2014-05-10T14:01:31.000Z</time>
      </trkpt>
      <trkpt lat="44.39366" lon="4.08477">
        <ele>717</ele>
        <time>2014-05-10T14:01:36.000Z</time>
      </trkpt>
      <trkpt lat="44.39365" lon="4.08488">
        <ele>718.59997558594</ele>
        <time>2014-05-10T14:01:43.000Z</time>
      </trkpt>
      <trkpt lat="44.39365" lon="4.08495">
        <ele>720</ele>
        <time>2014-05-10T14:01:48.000Z</time>
      </trkpt>
      <trkpt lat="44.39365" lon="4.08496">
        <ele>720.20001220703</ele>
        <time>2014-05-10T14:01:49.000Z</time>
      </trkpt>
      <trkpt lat="44.39365" lon="4.08497">
        <ele>720.59997558594</ele>
        <time>2014-05-10T14:01:51.000Z</time>
      </trkpt>
      <trkpt lat="44.39366" lon="4.08508">
        <ele>723</ele>
        <time>2014-05-10T14:01:59.000Z</time>
      </trkpt>
      <trkpt lat="44.39366" lon="4.08511">
        <ele>723.59997558594</ele>
        <time>2014-05-10T14:02:01.000Z</time>
      </trkpt>
      <trkpt lat="44.39367" lon="4.08517">
        <ele>725.59997558594</ele>
        <time>2014-05-10T14:02:07.000Z</time>
      </trkpt>
      <trkpt lat="44.39368" lon="4.08519">
        <ele>726.20001220703</ele>
        <time>2014-05-10T14:02:09.000Z</time>
      </trkpt>
      <trkpt lat="44.39367" lon="4.08523">
        <ele>726.20001220703</ele>
        <time>2014-05-10T14:02:13.000Z</time>
      </trkpt>
      <trkpt lat="44.39366" lon="4.08529">
        <ele>727</ele>
        <time>2014-05-10T14:02:19.000Z</time>
      </trkpt>
      <trkpt lat="44.39366" lon="4.08533">
        <ele>727.59997558594</ele>
        <time>2014-05-10T14:02:23.000Z</time>
      </trkpt>
      <trkpt lat="44.39367" lon="4.0854">
        <ele>729.20001220703</ele>
        <time>2014-05-10T14:02:28.000Z</time>
      </trkpt>
      <trkpt lat="44.39366" lon="4.08548">
        <ele>730</ele>
        <time>2014-05-10T14:02:34.000Z</time>
      </trkpt>
      <trkpt lat="44.39366" lon="4.0855">
        <ele>730.40002441406</ele>
        <time>2014-05-10T14:02:35.000Z</time>
      </trkpt>
      <trkpt lat="44.39367" lon="4.08559">
        <ele>732</ele>
        <time>2014-05-10T14:02:41.000Z</time>
      </trkpt>
      <trkpt lat="44.39367" lon="4.08565">
        <ele>733.20001220703</ele>
        <time>2014-05-10T14:02:45.000Z</time>
      </trkpt>
      <trkpt lat="44.39367" lon="4.08572">
        <ele>734.40002441406</ele>
        <time>2014-05-10T14:02:51.000Z</time>
      </trkpt>
      <trkpt lat="44.39368" lon="4.08574">
        <ele>734.79998779297</ele>
        <time>2014-05-10T14:02:53.000Z</time>
      </trkpt>
      <trkpt lat="44.39369" lon="4.08581">
        <ele>736.40002441406</ele>
        <time>2014-05-10T14:02:59.000Z</time>
      </trkpt>
      <trkpt lat="44.39369" lon="4.08581">
        <ele>736.59997558594</ele>
        <time>2014-05-10T14:03:00.000Z</time>
      </trkpt>
      <trkpt lat="44.39368" lon="4.08588">
        <ele>737.40002441406</ele>
        <time>2014-05-10T14:03:07.000Z</time>
      </trkpt>
      <trkpt lat="44.39368" lon="4.08593">
        <ele>738.20001220703</ele>
        <time>2014-05-10T14:03:11.000Z</time>
      </trkpt>
      <trkpt lat="44.39368" lon="4.08596">
        <ele>738.59997558594</ele>
        <time>2014-05-10T14:03:14.000Z</time>
      </trkpt>
      <trkpt lat="44.39369" lon="4.086">
        <ele>739.40002441406</ele>
        <time>2014-05-10T14:03:17.000Z</time>
      </trkpt>
      <trkpt lat="44.39367" lon="4.08608">
        <ele>739.79998779297</ele>
        <time>2014-05-10T14:03:22.000Z</time>
      </trkpt>
      <trkpt lat="44.39367" lon="4.08609">
        <ele>739.79998779297</ele>
        <time>2014-05-10T14:03:23.000Z</time>
      </trkpt>
      <trkpt lat="44.39366" lon="4.08617">
        <ele>741</ele>
        <time>2014-05-10T14:03:29.000Z</time>
      </trkpt>
      <trkpt lat="44.39365" lon="4.08627">
        <ele>742.79998779297</ele>
        <time>2014-05-10T14:03:36.000Z</time>
      </trkpt>
      <trkpt lat="44.39364" lon="4.08632">
        <ele>743.59997558594</ele>
        <time>2014-05-10T14:03:40.000Z</time>
      </trkpt>
      <trkpt lat="44.39364" lon="4.08634">
        <ele>744.20001220703</ele>
        <time>2014-05-10T14:03:42.000Z</time>
      </trkpt>
      <trkpt lat="44.39365" lon="4.08638">
        <ele>745.40002441406</ele>
        <time>2014-05-10T14:03:48.000Z</time>
      </trkpt>
      <trkpt lat="44.39365" lon="4.08644">
        <ele>746.59997558594</ele>
        <time>2014-05-10T14:03:54.000Z</time>
      </trkpt>
      <trkpt lat="44.39364" lon="4.0865">
        <ele>747.40002441406</ele>
        <time>2014-05-10T14:04:00.000Z</time>
      </trkpt>
      <trkpt lat="44.39363" lon="4.08656">
        <ele>748.59997558594</ele>
        <time>2014-05-10T14:04:05.000Z</time>
      </trkpt>
      <trkpt lat="44.39363" lon="4.08658">
        <ele>748.79998779297</ele>
        <time>2014-05-10T14:04:06.000Z</time>
      </trkpt>
      <trkpt lat="44.39362" lon="4.08664">
        <ele>749.59997558594</ele>
        <time>2014-05-10T14:04:11.000Z</time>
      </trkpt>
      <trkpt lat="44.39362" lon="4.08665">
        <ele>749.79998779297</ele>
        <time>2014-05-10T14:04:13.000Z</time>
      </trkpt>
      <trkpt lat="44.39361" lon="4.08673">
        <ele>751</ele>
        <time>2014-05-10T14:04:20.000Z</time>
      </trkpt>
      <trkpt lat="44.39362" lon="4.08677">
        <ele>752.59997558594</ele>
        <time>2014-05-10T14:04:23.000Z</time>
      </trkpt>
      <trkpt lat="44.39364" lon="4.0868">
        <ele>754.20001220703</ele>
        <time>2014-05-10T14:04:26.000Z</time>
      </trkpt>
      <trkpt lat="44.39368" lon="4.08685">
        <ele>757.20001220703</ele>
        <time>2014-05-10T14:04:32.000Z</time>
      </trkpt>
      <trkpt lat="44.39371" lon="4.08687">
        <ele>758.40002441406</ele>
        <time>2014-05-10T14:04:35.000Z</time>
      </trkpt>
      <trkpt lat="44.39374" lon="4.0869">
        <ele>760.20001220703</ele>
        <time>2014-05-10T14:04:40.000Z</time>
      </trkpt>
      <trkpt lat="44.39379" lon="4.08692">
        <ele>762.40002441406</ele>
        <time>2014-05-10T14:04:48.000Z</time>
      </trkpt>
      <trkpt lat="44.39381" lon="4.08692">
        <ele>763</ele>
        <time>2014-05-10T14:04:52.000Z</time>
      </trkpt>
      <trkpt lat="44.39383" lon="4.08696">
        <ele>763.59997558594</ele>
        <time>2014-05-10T14:05:00.000Z</time>
      </trkpt>
      <trkpt lat="44.39383" lon="4.08699">
        <ele>762.79998779297</ele>
        <time>2014-05-10T14:05:06.000Z</time>
      </trkpt>
      <trkpt lat="44.39382" lon="4.087">
        <ele>762</ele>
        <time>2014-05-10T14:05:23.000Z</time>
      </trkpt>
      <trkpt lat="44.39382" lon="4.08702">
        <ele>761.59997558594</ele>
        <time>2014-05-10T14:05:33.000Z</time>
      </trkpt>
      <trkpt lat="44.39381" lon="4.08705">
        <ele>761</ele>
        <time>2014-05-10T14:06:04.000Z</time>
      </trkpt>
      <trkpt lat="44.39387" lon="4.08705">
        <ele>762.59997558594</ele>
        <time>2014-05-10T14:07:22.000Z</time>
      </trkpt>
      <trkpt lat="44.39387" lon="4.08707">
        <ele>762.40002441406</ele>
        <time>2014-05-10T14:07:27.000Z</time>
      </trkpt>
      <trkpt lat="44.39387" lon="4.08706">
        <ele>762.20001220703</ele>
        <time>2014-05-10T14:08:03.000Z</time>
      </trkpt>
      <trkpt lat="44.39386" lon="4.08702">
        <ele>763.20001220703</ele>
        <time>2014-05-10T14:08:13.000Z</time>
      </trkpt>
      <trkpt lat="44.39388" lon="4.08694">
        <ele>765.59997558594</ele>
        <time>2014-05-10T14:08:21.000Z</time>
      </trkpt>
      <trkpt lat="44.39388" lon="4.08691">
        <ele>765.20001220703</ele>
        <time>2014-05-10T14:08:24.000Z</time>
      </trkpt>
      <trkpt lat="44.39391" lon="4.08685">
        <ele>765</ele>
        <time>2014-05-10T14:08:29.000Z</time>
      </trkpt>
      <trkpt lat="44.39393" lon="4.08682">
        <ele>765</ele>
        <time>2014-05-10T14:08:33.000Z</time>
      </trkpt>
      <trkpt lat="44.39397" lon="4.08681">
        <ele>766.20001220703</ele>
        <time>2014-05-10T14:08:40.000Z</time>
      </trkpt>
      <trkpt lat="44.39399" lon="4.08681">
        <ele>766.79998779297</ele>
        <time>2014-05-10T14:08:45.000Z</time>
      </trkpt>
      <trkpt lat="44.39403" lon="4.08677">
        <ele>767</ele>
        <time>2014-05-10T14:08:51.000Z</time>
      </trkpt>
      <trkpt lat="44.39407" lon="4.08674">
        <ele>767.79998779297</ele>
        <time>2014-05-10T14:08:57.000Z</time>
      </trkpt>
      <trkpt lat="44.39411" lon="4.0867">
        <ele>768.40002441406</ele>
        <time>2014-05-10T14:09:04.000Z</time>
      </trkpt>
      <trkpt lat="44.39414" lon="4.08664">
        <ele>767.79998779297</ele>
        <time>2014-05-10T14:09:10.000Z</time>
      </trkpt>
      <trkpt lat="44.39414" lon="4.08663">
        <ele>767.79998779297</ele>
        <time>2014-05-10T14:09:11.000Z</time>
      </trkpt>
      <trkpt lat="44.39417" lon="4.08658">
        <ele>768.20001220703</ele>
        <time>2014-05-10T14:09:17.000Z</time>
      </trkpt>
      <trkpt lat="44.39417" lon="4.08657">
        <ele>768.20001220703</ele>
        <time>2014-05-10T14:09:18.000Z</time>
      </trkpt>
      <trkpt lat="44.39417" lon="4.08653">
        <ele>768.20001220703</ele>
        <time>2014-05-10T14:09:25.000Z</time>
      </trkpt>
      <trkpt lat="44.3942" lon="4.08648">
        <ele>769.59997558594</ele>
        <time>2014-05-10T14:09:36.000Z</time>
      </trkpt>
      <trkpt lat="44.39423" lon="4.08644">
        <ele>770.79998779297</ele>
        <time>2014-05-10T14:09:42.000Z</time>
      </trkpt>
      <trkpt lat="44.39426" lon="4.08641">
        <ele>772.20001220703</ele>
        <time>2014-05-10T14:09:47.000Z</time>
      </trkpt>
      <trkpt lat="44.39427" lon="4.08636">
        <ele>773</ele>
        <time>2014-05-10T14:09:53.000Z</time>
      </trkpt>
      <trkpt lat="44.39429" lon="4.08632">
        <ele>773.59997558594</ele>
        <time>2014-05-10T14:09:58.000Z</time>
      </trkpt>
      <trkpt lat="44.39431" lon="4.0863">
        <ele>774.40002441406</ele>
        <time>2014-05-10T14:10:02.000Z</time>
      </trkpt>
      <trkpt lat="44.39433" lon="4.08627">
        <ele>775.40002441406</ele>
        <time>2014-05-10T14:10:07.000Z</time>
      </trkpt>
      <trkpt lat="44.39434" lon="4.08625">
        <ele>775.79998779297</ele>
        <time>2014-05-10T14:10:11.000Z</time>
      </trkpt>
      <trkpt lat="44.39435" lon="4.08622">
        <ele>776.40002441406</ele>
        <time>2014-05-10T14:10:14.000Z</time>
      </trkpt>
      <trkpt lat="44.39439" lon="4.08618">
        <ele>778.40002441406</ele>
        <time>2014-05-10T14:10:21.000Z</time>
      </trkpt>
      <trkpt lat="44.39443" lon="4.08614">
        <ele>780.20001220703</ele>
        <time>2014-05-10T14:10:27.000Z</time>
      </trkpt>
      <trkpt lat="44.39445" lon="4.08611">
        <ele>781.59997558594</ele>
        <time>2014-05-10T14:10:32.000Z</time>
      </trkpt>
      <trkpt lat="44.3945" lon="4.08609">
        <ele>783.79998779297</ele>
        <time>2014-05-10T14:10:48.000Z</time>
      </trkpt>
      <trkpt lat="44.39452" lon="4.08611">
        <ele>784.20001220703</ele>
        <time>2014-05-10T14:10:54.000Z</time>
      </trkpt>
      <trkpt lat="44.39454" lon="4.08612">
        <ele>785</ele>
        <time>2014-05-10T14:10:59.000Z</time>
      </trkpt>
      <trkpt lat="44.39457" lon="4.08611">
        <ele>786.40002441406</ele>
        <time>2014-05-10T14:11:04.000Z</time>
      </trkpt>
      <trkpt lat="44.3946" lon="4.0861">
        <ele>788</ele>
        <time>2014-05-10T14:11:09.000Z</time>
      </trkpt>
      <trkpt lat="44.39463" lon="4.08609">
        <ele>789.20001220703</ele>
        <time>2014-05-10T14:11:14.000Z</time>
      </trkpt>
      <trkpt lat="44.39469" lon="4.08604">
        <ele>791.40002441406</ele>
        <time>2014-05-10T14:11:25.000Z</time>
      </trkpt>
      <trkpt lat="44.39473" lon="4.08602">
        <ele>792.79998779297</ele>
        <time>2014-05-10T14:11:32.000Z</time>
      </trkpt>
      <trkpt lat="44.39475" lon="4.086">
        <ele>793.59997558594</ele>
        <time>2014-05-10T14:11:38.000Z</time>
      </trkpt>
      <trkpt lat="44.39479" lon="4.08596">
        <ele>794.59997558594</ele>
        <time>2014-05-10T14:11:44.000Z</time>
      </trkpt>
      <trkpt lat="44.39481" lon="4.08593">
        <ele>795.20001220703</ele>
        <time>2014-05-10T14:11:49.000Z</time>
      </trkpt>
      <trkpt lat="44.39482" lon="4.08591">
        <ele>795.40002441406</ele>
        <time>2014-05-10T14:11:54.000Z</time>
      </trkpt>
      <trkpt lat="44.39484" lon="4.08588">
        <ele>795.79998779297</ele>
        <time>2014-05-10T14:11:59.000Z</time>
      </trkpt>
      <trkpt lat="44.39485" lon="4.08582">
        <ele>795.79998779297</ele>
        <time>2014-05-10T14:12:05.000Z</time>
      </trkpt>
      <trkpt lat="44.39488" lon="4.08578">
        <ele>796.59997558594</ele>
        <time>2014-05-10T14:12:11.000Z</time>
      </trkpt>
      <trkpt lat="44.39492" lon="4.08575">
        <ele>797.79998779297</ele>
        <time>2014-05-10T14:12:16.000Z</time>
      </trkpt>
      <trkpt lat="44.39496" lon="4.08575">
        <ele>799.40002441406</ele>
        <time>2014-05-10T14:12:22.000Z</time>
      </trkpt>
      <trkpt lat="44.39498" lon="4.08575">
        <ele>800.59997558594</ele>
        <time>2014-05-10T14:12:27.000Z</time>
      </trkpt>
      <trkpt lat="44.39501" lon="4.08576">
        <ele>802</ele>
        <time>2014-05-10T14:12:33.000Z</time>
      </trkpt>
      <trkpt lat="44.39504" lon="4.08576">
        <ele>803.79998779297</ele>
        <time>2014-05-10T14:12:38.000Z</time>
      </trkpt>
      <trkpt lat="44.39507" lon="4.08576">
        <ele>805.20001220703</ele>
        <time>2014-05-10T14:12:42.000Z</time>
      </trkpt>
      <trkpt lat="44.39511" lon="4.08576">
        <ele>807.20001220703</ele>
        <time>2014-05-10T14:12:48.000Z</time>
      </trkpt>
      <trkpt lat="44.39515" lon="4.08572">
        <ele>809</ele>
        <time>2014-05-10T14:12:55.000Z</time>
      </trkpt>
      <trkpt lat="44.39517" lon="4.08568">
        <ele>810</ele>
        <time>2014-05-10T14:13:00.000Z</time>
      </trkpt>
      <trkpt lat="44.39519" lon="4.08563">
        <ele>810.59997558594</ele>
        <time>2014-05-10T14:13:06.000Z</time>
      </trkpt>
      <trkpt lat="44.39522" lon="4.08561">
        <ele>812.20001220703</ele>
        <time>2014-05-10T14:13:12.000Z</time>
      </trkpt>
      <trkpt lat="44.3953" lon="4.08558">
        <ele>816</ele>
        <time>2014-05-10T14:13:29.000Z</time>
      </trkpt>
      <trkpt lat="44.39532" lon="4.08557">
        <ele>817</ele>
        <time>2014-05-10T14:13:35.000Z</time>
      </trkpt>
      <trkpt lat="44.39536" lon="4.08555">
        <ele>818</ele>
        <time>2014-05-10T14:13:41.000Z</time>
      </trkpt>
      <trkpt lat="44.39539" lon="4.08553">
        <ele>818.59997558594</ele>
        <time>2014-05-10T14:13:46.000Z</time>
      </trkpt>
      <trkpt lat="44.39541" lon="4.08551">
        <ele>819.20001220703</ele>
        <time>2014-05-10T14:13:51.000Z</time>
      </trkpt>
      <trkpt lat="44.39543" lon="4.08547">
        <ele>819.79998779297</ele>
        <time>2014-05-10T14:13:58.000Z</time>
      </trkpt>
      <trkpt lat="44.39546" lon="4.08544">
        <ele>820.20001220703</ele>
        <time>2014-05-10T14:14:03.000Z</time>
      </trkpt>
      <trkpt lat="44.39548" lon="4.08543">
        <ele>821</ele>
        <time>2014-05-10T14:14:08.000Z</time>
      </trkpt>
      <trkpt lat="44.39551" lon="4.0854">
        <ele>822.59997558594</ele>
        <time>2014-05-10T14:14:12.000Z</time>
      </trkpt>
      <trkpt lat="44.39555" lon="4.08538">
        <ele>824.40002441406</ele>
        <time>2014-05-10T14:14:18.000Z</time>
      </trkpt>
      <trkpt lat="44.39557" lon="4.08536">
        <ele>826</ele>
        <time>2014-05-10T14:14:23.000Z</time>
      </trkpt>
      <trkpt lat="44.3956" lon="4.08538">
        <ele>827</ele>
        <time>2014-05-10T14:14:30.000Z</time>
      </trkpt>
      <trkpt lat="44.39562" lon="4.08539">
        <ele>828</ele>
        <time>2014-05-10T14:14:35.000Z</time>
      </trkpt>
      <trkpt lat="44.39567" lon="4.0854">
        <ele>830</ele>
        <time>2014-05-10T14:14:42.000Z</time>
      </trkpt>
      <trkpt lat="44.39569" lon="4.08541">
        <ele>831.20001220703</ele>
        <time>2014-05-10T14:14:47.000Z</time>
      </trkpt>
      <trkpt lat="44.39573" lon="4.08541">
        <ele>832.59997558594</ele>
        <time>2014-05-10T14:14:51.000Z</time>
      </trkpt>
      <trkpt lat="44.39577" lon="4.08541">
        <ele>834.40002441406</ele>
        <time>2014-05-10T14:14:58.000Z</time>
      </trkpt>
      <trkpt lat="44.39581" lon="4.08543">
        <ele>836.20001220703</ele>
        <time>2014-05-10T14:15:04.000Z</time>
      </trkpt>
      <trkpt lat="44.39585" lon="4.08546">
        <ele>837.59997558594</ele>
        <time>2014-05-10T14:15:11.000Z</time>
      </trkpt>
      <trkpt lat="44.39588" lon="4.08546">
        <ele>839</ele>
        <time>2014-05-10T14:15:16.000Z</time>
      </trkpt>
      <trkpt lat="44.39591" lon="4.08547">
        <ele>840.40002441406</ele>
        <time>2014-05-10T14:15:21.000Z</time>
      </trkpt>
      <trkpt lat="44.39595" lon="4.08548">
        <ele>842.20001220703</ele>
        <time>2014-05-10T14:15:28.000Z</time>
      </trkpt>
      <trkpt lat="44.39598" lon="4.08547">
        <ele>843.59997558594</ele>
        <time>2014-05-10T14:15:34.000Z</time>
      </trkpt>
      <trkpt lat="44.396" lon="4.08547">
        <ele>845</ele>
        <time>2014-05-10T14:15:40.000Z</time>
      </trkpt>
      <trkpt lat="44.39604" lon="4.08547">
        <ele>846.40002441406</ele>
        <time>2014-05-10T14:15:46.000Z</time>
      </trkpt>
      <trkpt lat="44.39607" lon="4.08548">
        <ele>847.79998779297</ele>
        <time>2014-05-10T14:15:52.000Z</time>
      </trkpt>
      <trkpt lat="44.39611" lon="4.08545">
        <ele>850.20001220703</ele>
        <time>2014-05-10T14:16:00.000Z</time>
      </trkpt>
      <trkpt lat="44.39612" lon="4.0854">
        <ele>851.20001220703</ele>
        <time>2014-05-10T14:16:08.000Z</time>
      </trkpt>
      <trkpt lat="44.39614" lon="4.08538">
        <ele>852.59997558594</ele>
        <time>2014-05-10T14:16:13.000Z</time>
      </trkpt>
      <trkpt lat="44.39617" lon="4.08535">
        <ele>853.40002441406</ele>
        <time>2014-05-10T14:16:18.000Z</time>
      </trkpt>
      <trkpt lat="44.39618" lon="4.08532">
        <ele>854</ele>
        <time>2014-05-10T14:16:24.000Z</time>
      </trkpt>
      <trkpt lat="44.39619" lon="4.0853">
        <ele>854.79998779297</ele>
        <time>2014-05-10T14:16:30.000Z</time>
      </trkpt>
      <trkpt lat="44.39622" lon="4.08529">
        <ele>855.79998779297</ele>
        <time>2014-05-10T14:16:35.000Z</time>
      </trkpt>
      <trkpt lat="44.39624" lon="4.08529">
        <ele>856.59997558594</ele>
        <time>2014-05-10T14:16:40.000Z</time>
      </trkpt>
      <trkpt lat="44.39628" lon="4.0853">
        <ele>857.59997558594</ele>
        <time>2014-05-10T14:16:46.000Z</time>
      </trkpt>
      <trkpt lat="44.3963" lon="4.08533">
        <ele>857.59997558594</ele>
        <time>2014-05-10T14:16:51.000Z</time>
      </trkpt>
      <trkpt lat="44.39633" lon="4.08529">
        <ele>859.20001220703</ele>
        <time>2014-05-10T14:17:00.000Z</time>
      </trkpt>
      <trkpt lat="44.39636" lon="4.08526">
        <ele>860.40002441406</ele>
        <time>2014-05-10T14:17:06.000Z</time>
      </trkpt>
      <trkpt lat="44.39637" lon="4.08525">
        <ele>861</ele>
        <time>2014-05-10T14:17:10.000Z</time>
      </trkpt>
      <trkpt lat="44.39638" lon="4.08524">
        <ele>861</ele>
        <time>2014-05-10T14:17:12.000Z</time>
      </trkpt>
      <trkpt lat="44.39641" lon="4.08523">
        <ele>861.79998779297</ele>
        <time>2014-05-10T14:17:18.000Z</time>
      </trkpt>
      <trkpt lat="44.39646" lon="4.08517">
        <ele>863.20001220703</ele>
        <time>2014-05-10T14:17:30.000Z</time>
      </trkpt>
      <trkpt lat="44.39649" lon="4.08516">
        <ele>864</ele>
        <time>2014-05-10T14:17:35.000Z</time>
      </trkpt>
      <trkpt lat="44.39653" lon="4.08516">
        <ele>865.20001220703</ele>
        <time>2014-05-10T14:17:40.000Z</time>
      </trkpt>
      <trkpt lat="44.39656" lon="4.08514">
        <ele>866.20001220703</ele>
        <time>2014-05-10T14:17:45.000Z</time>
      </trkpt>
      <trkpt lat="44.39658" lon="4.08511">
        <ele>866.59997558594</ele>
        <time>2014-05-10T14:17:50.000Z</time>
      </trkpt>
      <trkpt lat="44.39661" lon="4.08508">
        <ele>867.20001220703</ele>
        <time>2014-05-10T14:17:55.000Z</time>
      </trkpt>
      <trkpt lat="44.39662" lon="4.08504">
        <ele>867.40002441406</ele>
        <time>2014-05-10T14:18:00.000Z</time>
      </trkpt>
      <trkpt lat="44.39668" lon="4.08501">
        <ele>869.20001220703</ele>
        <time>2014-05-10T14:18:10.000Z</time>
      </trkpt>
      <trkpt lat="44.39673" lon="4.08499">
        <ele>871</ele>
        <time>2014-05-10T14:18:16.000Z</time>
      </trkpt>
      <trkpt lat="44.39674" lon="4.08498">
        <ele>871.40002441406</ele>
        <time>2014-05-10T14:18:17.000Z</time>
      </trkpt>
      <trkpt lat="44.39679" lon="4.08491">
        <ele>874.40002441406</ele>
        <time>2014-05-10T14:18:25.000Z</time>
      </trkpt>
      <trkpt lat="44.3968" lon="4.08491">
        <ele>874.59997558594</ele>
        <time>2014-05-10T14:18:26.000Z</time>
      </trkpt>
      <trkpt lat="44.3968" lon="4.08482">
        <ele>875.40002441406</ele>
        <time>2014-05-10T14:18:34.000Z</time>
      </trkpt>
      <trkpt lat="44.39677" lon="4.08475">
        <ele>874.59997558594</ele>
        <time>2014-05-10T14:18:42.000Z</time>
      </trkpt>
      <trkpt lat="44.39676" lon="4.08473">
        <ele>874.40002441406</ele>
        <time>2014-05-10T14:18:44.000Z</time>
      </trkpt>
      <trkpt lat="44.39676" lon="4.08466">
        <ele>874.79998779297</ele>
        <time>2014-05-10T14:18:49.000Z</time>
      </trkpt>
      <trkpt lat="44.39676" lon="4.08465">
        <ele>874.79998779297</ele>
        <time>2014-05-10T14:18:50.000Z</time>
      </trkpt>
      <trkpt lat="44.39676" lon="4.08456">
        <ele>875.79998779297</ele>
        <time>2014-05-10T14:18:56.000Z</time>
      </trkpt>
      <trkpt lat="44.39677" lon="4.08451">
        <ele>876.40002441406</ele>
        <time>2014-05-10T14:19:00.000Z</time>
      </trkpt>
      <trkpt lat="44.39672" lon="4.08448">
        <ele>874.59997558594</ele>
        <time>2014-05-10T14:19:06.000Z</time>
      </trkpt>
      <trkpt lat="44.39668" lon="4.08446">
        <ele>872.79998779297</ele>
        <time>2014-05-10T14:19:12.000Z</time>
      </trkpt>
      <trkpt lat="44.39667" lon="4.08445">
        <ele>872.40002441406</ele>
        <time>2014-05-10T14:19:14.000Z</time>
      </trkpt>
      <trkpt lat="44.39666" lon="4.08442">
        <ele>872.20001220703</ele>
        <time>2014-05-10T14:19:16.000Z</time>
      </trkpt>
      <trkpt lat="44.39664" lon="4.0844">
        <ele>871.40002441406</ele>
        <time>2014-05-10T14:19:19.000Z</time>
      </trkpt>
      <trkpt lat="44.39665" lon="4.08431">
        <ele>871.20001220703</ele>
        <time>2014-05-10T14:19:26.000Z</time>
      </trkpt>
      <trkpt lat="44.39665" lon="4.08429">
        <ele>871.40002441406</ele>
        <time>2014-05-10T14:19:27.000Z</time>
      </trkpt>
      <trkpt lat="44.39666" lon="4.08418">
        <ele>871.20001220703</ele>
        <time>2014-05-10T14:19:34.000Z</time>
      </trkpt>
      <trkpt lat="44.3967" lon="4.08412">
        <ele>872.79998779297</ele>
        <time>2014-05-10T14:19:40.000Z</time>
      </trkpt>
      <trkpt lat="44.39671" lon="4.08412">
        <ele>873.20001220703</ele>
        <time>2014-05-10T14:19:41.000Z</time>
      </trkpt>
      <trkpt lat="44.39678" lon="4.08414">
        <ele>876.59997558594</ele>
        <time>2014-05-10T14:19:49.000Z</time>
      </trkpt>
      <trkpt lat="44.39679" lon="4.08413">
        <ele>877.40002441406</ele>
        <time>2014-05-10T14:19:51.000Z</time>
      </trkpt>
      <trkpt lat="44.39679" lon="4.08406">
        <ele>877.20001220703</ele>
        <time>2014-05-10T14:19:57.000Z</time>
      </trkpt>
      <trkpt lat="44.39678" lon="4.08403">
        <ele>876.79998779297</ele>
        <time>2014-05-10T14:19:59.000Z</time>
      </trkpt>
      <trkpt lat="44.39676" lon="4.0839">
        <ele>875.40002441406</ele>
        <time>2014-05-10T14:20:08.000Z</time>
      </trkpt>
      <trkpt lat="44.39675" lon="4.08388">
        <ele>874.79998779297</ele>
        <time>2014-05-10T14:20:10.000Z</time>
      </trkpt>
      <trkpt lat="44.39674" lon="4.08373">
        <ele>874.20001220703</ele>
        <time>2014-05-10T14:20:20.000Z</time>
      </trkpt>
      <trkpt lat="44.39674" lon="4.0836">
        <ele>874</ele>
        <time>2014-05-10T14:20:29.000Z</time>
      </trkpt>
      <trkpt lat="44.39674" lon="4.08359">
        <ele>874.20001220703</ele>
        <time>2014-05-10T14:20:30.000Z</time>
      </trkpt>
      <trkpt lat="44.3968" lon="4.08351">
        <ele>875.79998779297</ele>
        <time>2014-05-10T14:20:39.000Z</time>
      </trkpt>
      <trkpt lat="44.39686" lon="4.08345">
        <ele>877.40002441406</ele>
        <time>2014-05-10T14:20:47.000Z</time>
      </trkpt>
      <trkpt lat="44.39691" lon="4.0834">
        <ele>879</ele>
        <time>2014-05-10T14:20:54.000Z</time>
      </trkpt>
      <trkpt lat="44.39694" lon="4.08339">
        <ele>880</ele>
        <time>2014-05-10T14:20:57.000Z</time>
      </trkpt>
      <trkpt lat="44.397" lon="4.08338">
        <ele>881.59997558594</ele>
        <time>2014-05-10T14:21:03.000Z</time>
      </trkpt>
      <trkpt lat="44.39701" lon="4.08338">
        <ele>881.59997558594</ele>
        <time>2014-05-10T14:21:05.000Z</time>
      </trkpt>
      <trkpt lat="44.39705" lon="4.08337">
        <ele>881.59997558594</ele>
        <time>2014-05-10T14:21:09.000Z</time>
      </trkpt>
      <trkpt lat="44.39708" lon="4.08333">
        <ele>881</ele>
        <time>2014-05-10T14:21:13.000Z</time>
      </trkpt>
      <trkpt lat="44.39711" lon="4.08331">
        <ele>880.59997558594</ele>
        <time>2014-05-10T14:21:16.000Z</time>
      </trkpt>
      <trkpt lat="44.39713" lon="4.08332">
        <ele>881</ele>
        <time>2014-05-10T14:21:20.000Z</time>
      </trkpt>
      <trkpt lat="44.39716" lon="4.0833">
        <ele>880.59997558594</ele>
        <time>2014-05-10T14:21:26.000Z</time>
      </trkpt>
      <trkpt lat="44.39716" lon="4.08333">
        <ele>881.20001220703</ele>
        <time>2014-05-10T14:21:42.000Z</time>
      </trkpt>
      <trkpt lat="44.39717" lon="4.08332">
        <ele>881.20001220703</ele>
        <time>2014-05-10T14:21:47.000Z</time>
      </trkpt>
      <trkpt lat="44.39717" lon="4.08333">
        <ele>881.20001220703</ele>
        <time>2014-05-10T14:21:53.000Z</time>
      </trkpt>
      <trkpt lat="44.39716" lon="4.08331">
        <ele>880.79998779297</ele>
        <time>2014-05-10T14:36:48.000Z</time>
      </trkpt>
      <trkpt lat="44.39711" lon="4.08336">
        <ele>881.59997558594</ele>
        <time>2014-05-10T14:36:55.000Z</time>
      </trkpt>
      <trkpt lat="44.3971" lon="4.08336">
        <ele>881.59997558594</ele>
        <time>2014-05-10T14:36:56.000Z</time>
      </trkpt>
      <trkpt lat="44.39709" lon="4.08336">
        <ele>881.59997558594</ele>
        <time>2014-05-10T14:36:58.000Z</time>
      </trkpt>
      <trkpt lat="44.39701" lon="4.08337">
        <ele>881.40002441406</ele>
        <time>2014-05-10T14:37:06.000Z</time>
      </trkpt>
      <trkpt lat="44.39697" lon="4.08339">
        <ele>881</ele>
        <time>2014-05-10T14:37:15.000Z</time>
      </trkpt>
      <trkpt lat="44.39693" lon="4.08342">
        <ele>880.20001220703</ele>
        <time>2014-05-10T14:37:20.000Z</time>
      </trkpt>
      <trkpt lat="44.39692" lon="4.08343">
        <ele>879.79998779297</ele>
        <time>2014-05-10T14:37:21.000Z</time>
      </trkpt>
      <trkpt lat="44.39692" lon="4.08344">
        <ele>879.79998779297</ele>
        <time>2014-05-10T14:37:23.000Z</time>
      </trkpt>
      <trkpt lat="44.39688" lon="4.08346">
        <ele>878.59997558594</ele>
        <time>2014-05-10T14:37:27.000Z</time>
      </trkpt>
      <trkpt lat="44.39687" lon="4.08347">
        <ele>878.40002441406</ele>
        <time>2014-05-10T14:37:28.000Z</time>
      </trkpt>
      <trkpt lat="44.39681" lon="4.08352">
        <ele>876.40002441406</ele>
        <time>2014-05-10T14:37:35.000Z</time>
      </trkpt>
      <trkpt lat="44.39677" lon="4.08359">
        <ele>875.59997558594</ele>
        <time>2014-05-10T14:37:42.000Z</time>
      </trkpt>
      <trkpt lat="44.39676" lon="4.08368">
        <ele>875.20001220703</ele>
        <time>2014-05-10T14:37:49.000Z</time>
      </trkpt>
      <trkpt lat="44.39677" lon="4.08381">
        <ele>876</ele>
        <time>2014-05-10T14:37:59.000Z</time>
      </trkpt>
      <trkpt lat="44.39679" lon="4.08391">
        <ele>877</ele>
        <time>2014-05-10T14:38:06.000Z</time>
      </trkpt>
      <trkpt lat="44.39681" lon="4.084">
        <ele>878</ele>
        <time>2014-05-10T14:38:13.000Z</time>
      </trkpt>
      <trkpt lat="44.39682" lon="4.08403">
        <ele>878.59997558594</ele>
        <time>2014-05-10T14:38:16.000Z</time>
      </trkpt>
      <trkpt lat="44.39682" lon="4.08404">
        <ele>878.40002441406</ele>
        <time>2014-05-10T14:38:25.000Z</time>
      </trkpt>
      <trkpt lat="44.39682" lon="4.08407">
        <ele>878.59997558594</ele>
        <time>2014-05-10T14:38:31.000Z</time>
      </trkpt>
      <trkpt lat="44.39683" lon="4.08414">
        <ele>879.40002441406</ele>
        <time>2014-05-10T14:38:37.000Z</time>
      </trkpt>
      <trkpt lat="44.39684" lon="4.08422">
        <ele>880</ele>
        <time>2014-05-10T14:38:43.000Z</time>
      </trkpt>
      <trkpt lat="44.39687" lon="4.08426">
        <ele>881</ele>
        <time>2014-05-10T14:38:48.000Z</time>
      </trkpt>
      <trkpt lat="44.39686" lon="4.08427">
        <ele>880.59997558594</ele>
        <time>2014-05-10T14:38:51.000Z</time>
      </trkpt>
      <trkpt lat="44.39684" lon="4.08433">
        <ele>879.79998779297</ele>
        <time>2014-05-10T14:38:57.000Z</time>
      </trkpt>
      <trkpt lat="44.39682" lon="4.08437">
        <ele>879.40002441406</ele>
        <time>2014-05-10T14:39:00.000Z</time>
      </trkpt>
      <trkpt lat="44.39681" lon="4.08438">
        <ele>878.79998779297</ele>
        <time>2014-05-10T14:39:06.000Z</time>
      </trkpt>
      <trkpt lat="44.39681" lon="4.08441">
        <ele>879</ele>
        <time>2014-05-10T14:39:12.000Z</time>
      </trkpt>
      <trkpt lat="44.39681" lon="4.08449">
        <ele>878.79998779297</ele>
        <time>2014-05-10T14:39:19.000Z</time>
      </trkpt>
      <trkpt lat="44.39682" lon="4.08456">
        <ele>878.40002441406</ele>
        <time>2014-05-10T14:39:24.000Z</time>
      </trkpt>
      <trkpt lat="44.39681" lon="4.08459">
        <ele>877.79998779297</ele>
        <time>2014-05-10T14:39:28.000Z</time>
      </trkpt>
      <trkpt lat="44.39681" lon="4.08462">
        <ele>877.59997558594</ele>
        <time>2014-05-10T14:39:30.000Z</time>
      </trkpt>
      <trkpt lat="44.39681" lon="4.08468">
        <ele>876.79998779297</ele>
        <time>2014-05-10T14:39:35.000Z</time>
      </trkpt>
      <trkpt lat="44.39683" lon="4.08473">
        <ele>877.20001220703</ele>
        <time>2014-05-10T14:39:42.000Z</time>
      </trkpt>
      <trkpt lat="44.39685" lon="4.08477">
        <ele>878.20001220703</ele>
        <time>2014-05-10T14:39:48.000Z</time>
      </trkpt>
      <trkpt lat="44.39687" lon="4.08479">
        <ele>878.79998779297</ele>
        <time>2014-05-10T14:39:53.000Z</time>
      </trkpt>
      <trkpt lat="44.39688" lon="4.08484">
        <ele>879</ele>
        <time>2014-05-10T14:40:00.000Z</time>
      </trkpt>
      <trkpt lat="44.39688" lon="4.0849">
        <ele>878.40002441406</ele>
        <time>2014-05-10T14:40:17.000Z</time>
      </trkpt>
      <trkpt lat="44.39684" lon="4.08494">
        <ele>876.20001220703</ele>
        <time>2014-05-10T14:40:24.000Z</time>
      </trkpt>
      <trkpt lat="44.39681" lon="4.08496">
        <ele>874.59997558594</ele>
        <time>2014-05-10T14:40:29.000Z</time>
      </trkpt>
      <trkpt lat="44.3968" lon="4.08496">
        <ele>874</ele>
        <time>2014-05-10T14:40:30.000Z</time>
      </trkpt>
      <trkpt lat="44.39677" lon="4.08496">
        <ele>873</ele>
        <time>2014-05-10T14:40:33.000Z</time>
      </trkpt>
      <trkpt lat="44.39676" lon="4.08497">
        <ele>872.20001220703</ele>
        <time>2014-05-10T14:40:35.000Z</time>
      </trkpt>
      <trkpt lat="44.39673" lon="4.085">
        <ele>870.40002441406</ele>
        <time>2014-05-10T14:40:41.000Z</time>
      </trkpt>
      <trkpt lat="44.39667" lon="4.08504">
        <ele>869</ele>
        <time>2014-05-10T14:40:49.000Z</time>
      </trkpt>
      <trkpt lat="44.39664" lon="4.08507">
        <ele>868.20001220703</ele>
        <time>2014-05-10T14:40:54.000Z</time>
      </trkpt>
      <trkpt lat="44.39662" lon="4.08507">
        <ele>867.59997558594</ele>
        <time>2014-05-10T14:40:56.000Z</time>
      </trkpt>
      <trkpt lat="44.39658" lon="4.08508">
        <ele>866.40002441406</ele>
        <time>2014-05-10T14:41:00.000Z</time>
      </trkpt>
      <trkpt lat="44.39656" lon="4.0851">
        <ele>865.79998779297</ele>
        <time>2014-05-10T14:41:02.000Z</time>
      </trkpt>
      <trkpt lat="44.39651" lon="4.08515">
        <ele>864.40002441406</ele>
        <time>2014-05-10T14:41:07.000Z</time>
      </trkpt>
      <trkpt lat="44.39648" lon="4.08515">
        <ele>863.59997558594</ele>
        <time>2014-05-10T14:41:11.000Z</time>
      </trkpt>
      <trkpt lat="44.39647" lon="4.08517">
        <ele>863.20001220703</ele>
        <time>2014-05-10T14:41:14.000Z</time>
      </trkpt>
      <trkpt lat="44.39642" lon="4.08523">
        <ele>862.20001220703</ele>
        <time>2014-05-10T14:41:21.000Z</time>
      </trkpt>
      <trkpt lat="44.39637" lon="4.08522">
        <ele>860.59997558594</ele>
        <time>2014-05-10T14:41:27.000Z</time>
      </trkpt>
      <trkpt lat="44.39634" lon="4.08522">
        <ele>859.59997558594</ele>
        <time>2014-05-10T14:41:31.000Z</time>
      </trkpt>
      <trkpt lat="44.39632" lon="4.08522">
        <ele>859</ele>
        <time>2014-05-10T14:41:33.000Z</time>
      </trkpt>
      <trkpt lat="44.39628" lon="4.08524">
        <ele>858</ele>
        <time>2014-05-10T14:41:38.000Z</time>
      </trkpt>
      <trkpt lat="44.39625" lon="4.08529">
        <ele>856.79998779297</ele>
        <time>2014-05-10T14:41:44.000Z</time>
      </trkpt>
      <trkpt lat="44.39623" lon="4.08533">
        <ele>855.59997558594</ele>
        <time>2014-05-10T14:41:48.000Z</time>
      </trkpt>
      <trkpt lat="44.39623" lon="4.08534">
        <ele>855.20001220703</ele>
        <time>2014-05-10T14:41:50.000Z</time>
      </trkpt>
      <trkpt lat="44.39623" lon="4.08538">
        <ele>854.79998779297</ele>
        <time>2014-05-10T14:41:53.000Z</time>
      </trkpt>
      <trkpt lat="44.39622" lon="4.0854">
        <ele>854.40002441406</ele>
        <time>2014-05-10T14:41:55.000Z</time>
      </trkpt>
      <trkpt lat="44.39614" lon="4.08543">
        <ele>851.79998779297</ele>
        <time>2014-05-10T14:42:04.000Z</time>
      </trkpt>
      <trkpt lat="44.39614" lon="4.08544">
        <ele>851.59997558594</ele>
        <time>2014-05-10T14:42:05.000Z</time>
      </trkpt>
      <trkpt lat="44.39612" lon="4.08545">
        <ele>850.59997558594</ele>
        <time>2014-05-10T14:42:08.000Z</time>
      </trkpt>
      <trkpt lat="44.39607" lon="4.08547">
        <ele>848.20001220703</ele>
        <time>2014-05-10T14:42:15.000Z</time>
      </trkpt>
      <trkpt lat="44.39605" lon="4.08548">
        <ele>846.79998779297</ele>
        <time>2014-05-10T14:42:20.000Z</time>
      </trkpt>
      <trkpt lat="44.396" lon="4.0855">
        <ele>844.40002441406</ele>
        <time>2014-05-10T14:42:26.000Z</time>
      </trkpt>
      <trkpt lat="44.39594" lon="4.08549">
        <ele>842</ele>
        <time>2014-05-10T14:42:31.000Z</time>
      </trkpt>
      <trkpt lat="44.39594" lon="4.08549">
        <ele>841.59997558594</ele>
        <time>2014-05-10T14:42:32.000Z</time>
      </trkpt>
      <trkpt lat="44.39588" lon="4.08547">
        <ele>839.40002441406</ele>
        <time>2014-05-10T14:42:38.000Z</time>
      </trkpt>
      <trkpt lat="44.39586" lon="4.08545">
        <ele>838.20001220703</ele>
        <time>2014-05-10T14:42:42.000Z</time>
      </trkpt>
      <trkpt lat="44.39578" lon="4.08544">
        <ele>834.79998779297</ele>
        <time>2014-05-10T14:42:51.000Z</time>
      </trkpt>
      <trkpt lat="44.39575" lon="4.08543">
        <ele>833.79998779297</ele>
        <time>2014-05-10T14:42:54.000Z</time>
      </trkpt>
      <trkpt lat="44.39571" lon="4.08541">
        <ele>831.79998779297</ele>
        <time>2014-05-10T14:43:00.000Z</time>
      </trkpt>
      <trkpt lat="44.3957" lon="4.0854">
        <ele>831.59997558594</ele>
        <time>2014-05-10T14:43:01.000Z</time>
      </trkpt>
      <trkpt lat="44.39566" lon="4.0854">
        <ele>829.40002441406</ele>
        <time>2014-05-10T14:43:06.000Z</time>
      </trkpt>
      <trkpt lat="44.39565" lon="4.08541">
        <ele>828.79998779297</ele>
        <time>2014-05-10T14:43:08.000Z</time>
      </trkpt>
      <trkpt lat="44.39558" lon="4.08546">
        <ele>825.20001220703</ele>
        <time>2014-05-10T14:43:16.000Z</time>
      </trkpt>
      <trkpt lat="44.39558" lon="4.08546">
        <ele>825</ele>
        <time>2014-05-10T14:43:17.000Z</time>
      </trkpt>
      <trkpt lat="44.39555" lon="4.08549">
        <ele>823.59997558594</ele>
        <time>2014-05-10T14:43:23.000Z</time>
      </trkpt>
      <trkpt lat="44.39553" lon="4.08551">
        <ele>823</ele>
        <time>2014-05-10T14:43:27.000Z</time>
      </trkpt>
      <trkpt lat="44.39551" lon="4.08554">
        <ele>822.40002441406</ele>
        <time>2014-05-10T14:43:32.000Z</time>
      </trkpt>
      <trkpt lat="44.39548" lon="4.08554">
        <ele>821.59997558594</ele>
        <time>2014-05-10T14:43:38.000Z</time>
      </trkpt>
      <trkpt lat="44.39544" lon="4.08554">
        <ele>820.40002441406</ele>
        <time>2014-05-10T14:43:43.000Z</time>
      </trkpt>
      <trkpt lat="44.39541" lon="4.08555">
        <ele>819.40002441406</ele>
        <time>2014-05-10T14:43:47.000Z</time>
      </trkpt>
      <trkpt lat="44.39535" lon="4.08556">
        <ele>817.59997558594</ele>
        <time>2014-05-10T14:43:55.000Z</time>
      </trkpt>
      <trkpt lat="44.3953" lon="4.08559">
        <ele>816</ele>
        <time>2014-05-10T14:44:01.000Z</time>
      </trkpt>
      <trkpt lat="44.39525" lon="4.08563">
        <ele>813.79998779297</ele>
        <time>2014-05-10T14:44:06.000Z</time>
      </trkpt>
      <trkpt lat="44.39522" lon="4.08566">
        <ele>812.59997558594</ele>
        <time>2014-05-10T14:44:10.000Z</time>
      </trkpt>
      <trkpt lat="44.39518" lon="4.08564">
        <ele>810.40002441406</ele>
        <time>2014-05-10T14:44:17.000Z</time>
      </trkpt>
      <trkpt lat="44.39513" lon="4.08564">
        <ele>807.59997558594</ele>
        <time>2014-05-10T14:44:25.000Z</time>
      </trkpt>
      <trkpt lat="44.39505" lon="4.08564">
        <ele>803.40002441406</ele>
        <time>2014-05-10T14:44:34.000Z</time>
      </trkpt>
      <trkpt lat="44.39503" lon="4.08565">
        <ele>802.40002441406</ele>
        <time>2014-05-10T14:44:36.000Z</time>
      </trkpt>
      <trkpt lat="44.39499" lon="4.08568">
        <ele>800.79998779297</ele>
        <time>2014-05-10T14:44:41.000Z</time>
      </trkpt>
      <trkpt lat="44.39497" lon="4.08572">
        <ele>799.59997558594</ele>
        <time>2014-05-10T14:44:45.000Z</time>
      </trkpt>
      <trkpt lat="44.39494" lon="4.08576">
        <ele>799</ele>
        <time>2014-05-10T14:44:51.000Z</time>
      </trkpt>
      <trkpt lat="44.39491" lon="4.08579">
        <ele>798.20001220703</ele>
        <time>2014-05-10T14:44:56.000Z</time>
      </trkpt>
      <trkpt lat="44.39488" lon="4.08584">
        <ele>797.20001220703</ele>
        <time>2014-05-10T14:45:03.000Z</time>
      </trkpt>
      <trkpt lat="44.39485" lon="4.08586">
        <ele>796.40002441406</ele>
        <time>2014-05-10T14:45:08.000Z</time>
      </trkpt>
      <trkpt lat="44.39481" lon="4.08588">
        <ele>794.79998779297</ele>
        <time>2014-05-10T14:45:14.000Z</time>
      </trkpt>
      <trkpt lat="44.39477" lon="4.08588">
        <ele>793.20001220703</ele>
        <time>2014-05-10T14:45:20.000Z</time>
      </trkpt>
      <trkpt lat="44.39476" lon="4.0859">
        <ele>792.59997558594</ele>
        <time>2014-05-10T14:45:25.000Z</time>
      </trkpt>
      <trkpt lat="44.39474" lon="4.08593">
        <ele>792</ele>
        <time>2014-05-10T14:45:27.000Z</time>
      </trkpt>
      <trkpt lat="44.39469" lon="4.08594">
        <ele>790.20001220703</ele>
        <time>2014-05-10T14:45:32.000Z</time>
      </trkpt>
      <trkpt lat="44.39464" lon="4.08595">
        <ele>787.79998779297</ele>
        <time>2014-05-10T14:45:39.000Z</time>
      </trkpt>
      <trkpt lat="44.39463" lon="4.08594">
        <ele>787.40002441406</ele>
        <time>2014-05-10T14:45:40.000Z</time>
      </trkpt>
      <trkpt lat="44.39462" lon="4.08594">
        <ele>786.79998779297</ele>
        <time>2014-05-10T14:45:42.000Z</time>
      </trkpt>
      <trkpt lat="44.39459" lon="4.08595">
        <ele>786</ele>
        <time>2014-05-10T14:45:45.000Z</time>
      </trkpt>
      <trkpt lat="44.39456" lon="4.08594">
        <ele>784.59997558594</ele>
        <time>2014-05-10T14:45:52.000Z</time>
      </trkpt>
      <trkpt lat="44.39454" lon="4.08596">
        <ele>783.59997558594</ele>
        <time>2014-05-10T14:45:55.000Z</time>
      </trkpt>
      <trkpt lat="44.39447" lon="4.086">
        <ele>781</ele>
        <time>2014-05-10T14:46:01.000Z</time>
      </trkpt>
      <trkpt lat="44.39443" lon="4.08605">
        <ele>779.20001220703</ele>
        <time>2014-05-10T14:46:07.000Z</time>
      </trkpt>
      <trkpt lat="44.39442" lon="4.08606">
        <ele>779.20001220703</ele>
        <time>2014-05-10T14:46:08.000Z</time>
      </trkpt>
      <trkpt lat="44.39441" lon="4.08612">
        <ele>779.20001220703</ele>
        <time>2014-05-10T14:46:15.000Z</time>
      </trkpt>
      <trkpt lat="44.39439" lon="4.08613">
        <ele>778.20001220703</ele>
        <time>2014-05-10T14:46:21.000Z</time>
      </trkpt>
      <trkpt lat="44.39438" lon="4.08617">
        <ele>777.59997558594</ele>
        <time>2014-05-10T14:46:30.000Z</time>
      </trkpt>
      <trkpt lat="44.39436" lon="4.08622">
        <ele>777</ele>
        <time>2014-05-10T14:46:36.000Z</time>
      </trkpt>
      <trkpt lat="44.39435" lon="4.08628">
        <ele>776.40002441406</ele>
        <time>2014-05-10T14:46:41.000Z</time>
      </trkpt>
      <trkpt lat="44.39431" lon="4.08633">
        <ele>774.59997558594</ele>
        <time>2014-05-10T14:46:50.000Z</time>
      </trkpt>
      <trkpt lat="44.39429" lon="4.08635">
        <ele>774</ele>
        <time>2014-05-10T14:46:55.000Z</time>
      </trkpt>
      <trkpt lat="44.39428" lon="4.08638">
        <ele>773.40002441406</ele>
        <time>2014-05-10T14:47:01.000Z</time>
      </trkpt>
      <trkpt lat="44.39426" lon="4.08644">
        <ele>772.40002441406</ele>
        <time>2014-05-10T14:47:09.000Z</time>
      </trkpt>
      <trkpt lat="44.39424" lon="4.08649">
        <ele>771.40002441406</ele>
        <time>2014-05-10T14:47:16.000Z</time>
      </trkpt>
      <trkpt lat="44.39423" lon="4.08654">
        <ele>771.20001220703</ele>
        <time>2014-05-10T14:47:20.000Z</time>
      </trkpt>
      <trkpt lat="44.39421" lon="4.08658">
        <ele>770.59997558594</ele>
        <time>2014-05-10T14:47:23.000Z</time>
      </trkpt>
      <trkpt lat="44.39416" lon="4.08662">
        <ele>768.20001220703</ele>
        <time>2014-05-10T14:47:29.000Z</time>
      </trkpt>
      <trkpt lat="44.39409" lon="4.08667">
        <ele>766.79998779297</ele>
        <time>2014-05-10T14:47:37.000Z</time>
      </trkpt>
      <trkpt lat="44.39407" lon="4.08668">
        <ele>766.20001220703</ele>
        <time>2014-05-10T14:47:41.000Z</time>
      </trkpt>
      <trkpt lat="44.39405" lon="4.08669">
        <ele>766</ele>
        <time>2014-05-10T14:47:43.000Z</time>
      </trkpt>
      <trkpt lat="44.394" lon="4.08671">
        <ele>764.79998779297</ele>
        <time>2014-05-10T14:47:50.000Z</time>
      </trkpt>
      <trkpt lat="44.39396" lon="4.08675">
        <ele>764.20001220703</ele>
        <time>2014-05-10T14:47:54.000Z</time>
      </trkpt>
      <trkpt lat="44.39393" lon="4.08684">
        <ele>765.20001220703</ele>
        <time>2014-05-10T14:48:01.000Z</time>
      </trkpt>
      <trkpt lat="44.39392" lon="4.08685">
        <ele>765.40002441406</ele>
        <time>2014-05-10T14:48:02.000Z</time>
      </trkpt>
      <trkpt lat="44.3939" lon="4.08691">
        <ele>765.79998779297</ele>
        <time>2014-05-10T14:48:08.000Z</time>
      </trkpt>
      <trkpt lat="44.39389" lon="4.08692">
        <ele>766</ele>
        <time>2014-05-10T14:48:09.000Z</time>
      </trkpt>
      <trkpt lat="44.3939" lon="4.08694">
        <ele>766.20001220703</ele>
        <time>2014-05-10T14:48:10.000Z</time>
      </trkpt>
      <trkpt lat="44.3939" lon="4.08699">
        <ele>765.20001220703</ele>
        <time>2014-05-10T14:48:14.000Z</time>
      </trkpt>
      <trkpt lat="44.3939" lon="4.087">
        <ele>765</ele>
        <time>2014-05-10T14:48:15.000Z</time>
      </trkpt>
      <trkpt lat="44.39392" lon="4.08705">
        <ele>764.20001220703</ele>
        <time>2014-05-10T14:48:20.000Z</time>
      </trkpt>
      <trkpt lat="44.39393" lon="4.08708">
        <ele>764</ele>
        <time>2014-05-10T14:48:26.000Z</time>
      </trkpt>
      <trkpt lat="44.39396" lon="4.08711">
        <ele>764.20001220703</ele>
        <time>2014-05-10T14:48:33.000Z</time>
      </trkpt>
      <trkpt lat="44.394" lon="4.08718">
        <ele>764</ele>
        <time>2014-05-10T14:48:40.000Z</time>
      </trkpt>
      <trkpt lat="44.39402" lon="4.0872">
        <ele>764.20001220703</ele>
        <time>2014-05-10T14:48:43.000Z</time>
      </trkpt>
      <trkpt lat="44.39403" lon="4.0872">
        <ele>764.59997558594</ele>
        <time>2014-05-10T14:48:45.000Z</time>
      </trkpt>
      <trkpt lat="44.39407" lon="4.08721">
        <ele>765.79998779297</ele>
        <time>2014-05-10T14:48:52.000Z</time>
      </trkpt>
      <trkpt lat="44.39411" lon="4.08722">
        <ele>767</ele>
        <time>2014-05-10T14:48:56.000Z</time>
      </trkpt>
      <trkpt lat="44.39412" lon="4.08722">
        <ele>767.40002441406</ele>
        <time>2014-05-10T14:48:57.000Z</time>
      </trkpt>
      <trkpt lat="44.39416" lon="4.08723">
        <ele>768.20001220703</ele>
        <time>2014-05-10T14:49:01.000Z</time>
      </trkpt>
      <trkpt lat="44.39417" lon="4.08723">
        <ele>768.59997558594</ele>
        <time>2014-05-10T14:49:02.000Z</time>
      </trkpt>
      <trkpt lat="44.39421" lon="4.08726">
        <ele>769.20001220703</ele>
        <time>2014-05-10T14:49:08.000Z</time>
      </trkpt>
      <trkpt lat="44.39423" lon="4.08727">
        <ele>769.79998779297</ele>
        <time>2014-05-10T14:49:10.000Z</time>
      </trkpt>
      <trkpt lat="44.39425" lon="4.08726">
        <ele>770.59997558594</ele>
        <time>2014-05-10T14:49:14.000Z</time>
      </trkpt>
      <trkpt lat="44.39429" lon="4.08728">
        <ele>771.59997558594</ele>
        <time>2014-05-10T14:49:18.000Z</time>
      </trkpt>
      <trkpt lat="44.39431" lon="4.08728">
        <ele>772</ele>
        <time>2014-05-10T14:49:20.000Z</time>
      </trkpt>
      <trkpt lat="44.39432" lon="4.08728">
        <ele>772.59997558594</ele>
        <time>2014-05-10T14:49:22.000Z</time>
      </trkpt>
      <trkpt lat="44.39437" lon="4.0873">
        <ele>773.59997558594</ele>
        <time>2014-05-10T14:49:26.000Z</time>
      </trkpt>
      <trkpt lat="44.3944" lon="4.08734">
        <ele>774.20001220703</ele>
        <time>2014-05-10T14:49:32.000Z</time>
      </trkpt>
      <trkpt lat="44.39441" lon="4.08734">
        <ele>774.40002441406</ele>
        <time>2014-05-10T14:49:33.000Z</time>
      </trkpt>
      <trkpt lat="44.39444" lon="4.08736">
        <ele>774.79998779297</ele>
        <time>2014-05-10T14:49:36.000Z</time>
      </trkpt>
      <trkpt lat="44.39446" lon="4.08735">
        <ele>775.59997558594</ele>
        <time>2014-05-10T14:49:40.000Z</time>
      </trkpt>
      <trkpt lat="44.39451" lon="4.08737">
        <ele>776</ele>
        <time>2014-05-10T14:49:45.000Z</time>
      </trkpt>
      <trkpt lat="44.39457" lon="4.08738">
        <ele>775.59997558594</ele>
        <time>2014-05-10T14:49:51.000Z</time>
      </trkpt>
      <trkpt lat="44.39458" lon="4.08738">
        <ele>775.59997558594</ele>
        <time>2014-05-10T14:49:53.000Z</time>
      </trkpt>
      <trkpt lat="44.39461" lon="4.08739">
        <ele>775.20001220703</ele>
        <time>2014-05-10T14:49:56.000Z</time>
      </trkpt>
      <trkpt lat="44.39463" lon="4.08741">
        <ele>775</ele>
        <time>2014-05-10T14:49:58.000Z</time>
      </trkpt>
      <trkpt lat="44.39472" lon="4.08746">
        <ele>773.79998779297</ele>
        <time>2014-05-10T14:50:04.000Z</time>
      </trkpt>
      <trkpt lat="44.39475" lon="4.08747">
        <ele>773.40002441406</ele>
        <time>2014-05-10T14:50:07.000Z</time>
      </trkpt>
      <trkpt lat="44.39479" lon="4.0875">
        <ele>772.59997558594</ele>
        <time>2014-05-10T14:50:10.000Z</time>
      </trkpt>
      <trkpt lat="44.39485" lon="4.08756">
        <ele>771.20001220703</ele>
        <time>2014-05-10T14:50:17.000Z</time>
      </trkpt>
      <trkpt lat="44.39489" lon="4.08759">
        <ele>770.40002441406</ele>
        <time>2014-05-10T14:50:22.000Z</time>
      </trkpt>
      <trkpt lat="44.39491" lon="4.0876">
        <ele>770.20001220703</ele>
        <time>2014-05-10T14:50:24.000Z</time>
      </trkpt>
      <trkpt lat="44.39493" lon="4.08761">
        <ele>770</ele>
        <time>2014-05-10T14:50:26.000Z</time>
      </trkpt>
      <trkpt lat="44.39497" lon="4.08764">
        <ele>769.20001220703</ele>
        <time>2014-05-10T14:50:30.000Z</time>
      </trkpt>
      <trkpt lat="44.39501" lon="4.08768">
        <ele>768.20001220703</ele>
        <time>2014-05-10T14:50:34.000Z</time>
      </trkpt>
      <trkpt lat="44.39502" lon="4.0877">
        <ele>767.79998779297</ele>
        <time>2014-05-10T14:50:36.000Z</time>
      </trkpt>
      <trkpt lat="44.39508" lon="4.08775">
        <ele>766.59997558594</ele>
        <time>2014-05-10T14:50:43.000Z</time>
      </trkpt>
      <trkpt lat="44.39509" lon="4.08776">
        <ele>766.40002441406</ele>
        <time>2014-05-10T14:50:44.000Z</time>
      </trkpt>
      <trkpt lat="44.39513" lon="4.08781">
        <ele>764.40002441406</ele>
        <time>2014-05-10T14:50:50.000Z</time>
      </trkpt>
      <trkpt lat="44.39514" lon="4.08781">
        <ele>764</ele>
        <time>2014-05-10T14:50:51.000Z</time>
      </trkpt>
      <trkpt lat="44.39514" lon="4.08782">
        <ele>763.79998779297</ele>
        <time>2014-05-10T14:50:52.000Z</time>
      </trkpt>
      <trkpt lat="44.39517" lon="4.08786">
        <ele>762</ele>
        <time>2014-05-10T14:50:56.000Z</time>
      </trkpt>
      <trkpt lat="44.3952" lon="4.08791">
        <ele>759.79998779297</ele>
        <time>2014-05-10T14:51:02.000Z</time>
      </trkpt>
      <trkpt lat="44.39521" lon="4.08792">
        <ele>759.40002441406</ele>
        <time>2014-05-10T14:51:03.000Z</time>
      </trkpt>
      <trkpt lat="44.39523" lon="4.08795">
        <ele>757.79998779297</ele>
        <time>2014-05-10T14:51:10.000Z</time>
      </trkpt>
      <trkpt lat="44.39527" lon="4.08801">
        <ele>755.59997558594</ele>
        <time>2014-05-10T14:51:18.000Z</time>
      </trkpt>
      <trkpt lat="44.39532" lon="4.08804">
        <ele>754.20001220703</ele>
        <time>2014-05-10T14:51:28.000Z</time>
      </trkpt>
      <trkpt lat="44.39535" lon="4.08809">
        <ele>752.59997558594</ele>
        <time>2014-05-10T14:51:33.000Z</time>
      </trkpt>
      <trkpt lat="44.39536" lon="4.08811">
        <ele>752.40002441406</ele>
        <time>2014-05-10T14:51:34.000Z</time>
      </trkpt>
      <trkpt lat="44.39538" lon="4.08813">
        <ele>751.79998779297</ele>
        <time>2014-05-10T14:51:36.000Z</time>
      </trkpt>
      <trkpt lat="44.3954" lon="4.0882">
        <ele>749.40002441406</ele>
        <time>2014-05-10T14:51:40.000Z</time>
      </trkpt>
      <trkpt lat="44.3954" lon="4.0882">
        <ele>749.20001220703</ele>
        <time>2014-05-10T14:51:41.000Z</time>
      </trkpt>
      <trkpt lat="44.39542" lon="4.08824">
        <ele>748.40002441406</ele>
        <time>2014-05-10T14:51:43.000Z</time>
      </trkpt>
      <trkpt lat="44.39544" lon="4.0883">
        <ele>746.20001220703</ele>
        <time>2014-05-10T14:51:48.000Z</time>
      </trkpt>
      <trkpt lat="44.39544" lon="4.08831">
        <ele>745.79998779297</ele>
        <time>2014-05-10T14:51:49.000Z</time>
      </trkpt>
      <trkpt lat="44.39543" lon="4.08831">
        <ele>745.59997558594</ele>
        <time>2014-05-10T14:51:50.000Z</time>
      </trkpt>
      <trkpt lat="44.39545" lon="4.08835">
        <ele>744</ele>
        <time>2014-05-10T14:51:53.000Z</time>
      </trkpt>
      <trkpt lat="44.39548" lon="4.08842">
        <ele>742</ele>
        <time>2014-05-10T14:51:59.000Z</time>
      </trkpt>
      <trkpt lat="44.39549" lon="4.08849">
        <ele>739.20001220703</ele>
        <time>2014-05-10T14:52:05.000Z</time>
      </trkpt>
      <trkpt lat="44.3955" lon="4.08857">
        <ele>736</ele>
        <time>2014-05-10T14:52:09.000Z</time>
      </trkpt>
      <trkpt lat="44.39554" lon="4.08865">
        <ele>734.40002441406</ele>
        <time>2014-05-10T14:52:14.000Z</time>
      </trkpt>
      <trkpt lat="44.39555" lon="4.08866">
        <ele>734</ele>
        <time>2014-05-10T14:52:15.000Z</time>
      </trkpt>
      <trkpt lat="44.39557" lon="4.08869">
        <ele>733.59997558594</ele>
        <time>2014-05-10T14:52:17.000Z</time>
      </trkpt>
      <trkpt lat="44.39558" lon="4.08871">
        <ele>733.40002441406</ele>
        <time>2014-05-10T14:52:19.000Z</time>
      </trkpt>
      <trkpt lat="44.39563" lon="4.0888">
        <ele>731.79998779297</ele>
        <time>2014-05-10T14:52:27.000Z</time>
      </trkpt>
      <trkpt lat="44.39565" lon="4.08882">
        <ele>731.59997558594</ele>
        <time>2014-05-10T14:52:29.000Z</time>
      </trkpt>
      <trkpt lat="44.39569" lon="4.08888">
        <ele>731.20001220703</ele>
        <time>2014-05-10T14:52:34.000Z</time>
      </trkpt>
      <trkpt lat="44.3957" lon="4.08889">
        <ele>731</ele>
        <time>2014-05-10T14:52:35.000Z</time>
      </trkpt>
      <trkpt lat="44.39575" lon="4.08894">
        <ele>730.79998779297</ele>
        <time>2014-05-10T14:52:39.000Z</time>
      </trkpt>
      <trkpt lat="44.39576" lon="4.08895">
        <ele>730.79998779297</ele>
        <time>2014-05-10T14:52:41.000Z</time>
      </trkpt>
      <trkpt lat="44.39579" lon="4.08899">
        <ele>730.40002441406</ele>
        <time>2014-05-10T14:52:45.000Z</time>
      </trkpt>
      <trkpt lat="44.3958" lon="4.08902">
        <ele>729.40002441406</ele>
        <time>2014-05-10T14:52:47.000Z</time>
      </trkpt>
      <trkpt lat="44.39579" lon="4.08905">
        <ele>728.59997558594</ele>
        <time>2014-05-10T14:52:49.000Z</time>
      </trkpt>
      <trkpt lat="44.3958" lon="4.08911">
        <ele>726.79998779297</ele>
        <time>2014-05-10T14:52:53.000Z</time>
      </trkpt>
      <trkpt lat="44.3958" lon="4.08913">
        <ele>726</ele>
        <time>2014-05-10T14:52:55.000Z</time>
      </trkpt>
      <trkpt lat="44.39581" lon="4.08922">
        <ele>723.40002441406</ele>
        <time>2014-05-10T14:53:01.000Z</time>
      </trkpt>
      <trkpt lat="44.39581" lon="4.08929">
        <ele>720.79998779297</ele>
        <time>2014-05-10T14:53:06.000Z</time>
      </trkpt>
      <trkpt lat="44.3958" lon="4.08935">
        <ele>718.20001220703</ele>
        <time>2014-05-10T14:53:11.000Z</time>
      </trkpt>
      <trkpt lat="44.39579" lon="4.08943">
        <ele>715.40002441406</ele>
        <time>2014-05-10T14:53:15.000Z</time>
      </trkpt>
      <trkpt lat="44.39581" lon="4.0895">
        <ele>714.59997558594</ele>
        <time>2014-05-10T14:53:21.000Z</time>
      </trkpt>
      <trkpt lat="44.39582" lon="4.08954">
        <ele>714.20001220703</ele>
        <time>2014-05-10T14:53:24.000Z</time>
      </trkpt>
      <trkpt lat="44.39583" lon="4.08961">
        <ele>713.79998779297</ele>
        <time>2014-05-10T14:53:28.000Z</time>
      </trkpt>
      <trkpt lat="44.39585" lon="4.08967">
        <ele>713.20001220703</ele>
        <time>2014-05-10T14:53:34.000Z</time>
      </trkpt>
      <trkpt lat="44.39585" lon="4.08968">
        <ele>713.20001220703</ele>
        <time>2014-05-10T14:53:35.000Z</time>
      </trkpt>
      <trkpt lat="44.39588" lon="4.08976">
        <ele>712.79998779297</ele>
        <time>2014-05-10T14:53:40.000Z</time>
      </trkpt>
      <trkpt lat="44.3959" lon="4.08983">
        <ele>712.20001220703</ele>
        <time>2014-05-10T14:53:44.000Z</time>
      </trkpt>
      <trkpt lat="44.39591" lon="4.08986">
        <ele>712.20001220703</ele>
        <time>2014-05-10T14:53:46.000Z</time>
      </trkpt>
      <trkpt lat="44.39589" lon="4.08994">
        <ele>710.20001220703</ele>
        <time>2014-05-10T14:53:51.000Z</time>
      </trkpt>
      <trkpt lat="44.39589" lon="4.09001">
        <ele>709.40002441406</ele>
        <time>2014-05-10T14:53:55.000Z</time>
      </trkpt>
      <trkpt lat="44.3959" lon="4.09004">
        <ele>708.59997558594</ele>
        <time>2014-05-10T14:53:57.000Z</time>
      </trkpt>
      <trkpt lat="44.39589" lon="4.09014">
        <ele>705.79998779297</ele>
        <time>2014-05-10T14:54:04.000Z</time>
      </trkpt>
      <trkpt lat="44.39588" lon="4.09023">
        <ele>702.79998779297</ele>
        <time>2014-05-10T14:54:10.000Z</time>
      </trkpt>
      <trkpt lat="44.39587" lon="4.09026">
        <ele>701.59997558594</ele>
        <time>2014-05-10T14:54:12.000Z</time>
      </trkpt>
      <trkpt lat="44.39585" lon="4.09032">
        <ele>699.59997558594</ele>
        <time>2014-05-10T14:54:16.000Z</time>
      </trkpt>
      <trkpt lat="44.39588" lon="4.09039">
        <ele>699.20001220703</ele>
        <time>2014-05-10T14:54:23.000Z</time>
      </trkpt>
      <trkpt lat="44.3959" lon="4.09045">
        <ele>698.40002441406</ele>
        <time>2014-05-10T14:54:28.000Z</time>
      </trkpt>
      <trkpt lat="44.39594" lon="4.09054">
        <ele>698</ele>
        <time>2014-05-10T14:54:35.000Z</time>
      </trkpt>
      <trkpt lat="44.39594" lon="4.09054">
        <ele>698</ele>
        <time>2014-05-10T14:54:36.000Z</time>
      </trkpt>
      <trkpt lat="44.39595" lon="4.09056">
        <ele>697.79998779297</ele>
        <time>2014-05-10T14:54:38.000Z</time>
      </trkpt>
      <trkpt lat="44.39595" lon="4.09057">
        <ele>697.59997558594</ele>
        <time>2014-05-10T14:54:39.000Z</time>
      </trkpt>
      <trkpt lat="44.39598" lon="4.09063">
        <ele>697.20001220703</ele>
        <time>2014-05-10T14:54:45.000Z</time>
      </trkpt>
      <trkpt lat="44.39599" lon="4.09065">
        <ele>697.20001220703</ele>
        <time>2014-05-10T14:54:48.000Z</time>
      </trkpt>
      <trkpt lat="44.39605" lon="4.09074">
        <ele>697.59997558594</ele>
        <time>2014-05-10T14:54:56.000Z</time>
      </trkpt>
      <trkpt lat="44.39606" lon="4.09077">
        <ele>697</ele>
        <time>2014-05-10T14:54:58.000Z</time>
      </trkpt>
      <trkpt lat="44.39606" lon="4.0908">
        <ele>696.79998779297</ele>
        <time>2014-05-10T14:55:00.000Z</time>
      </trkpt>
      <trkpt lat="44.39609" lon="4.09085">
        <ele>696.79998779297</ele>
        <time>2014-05-10T14:55:05.000Z</time>
      </trkpt>
      <trkpt lat="44.39612" lon="4.09092">
        <ele>696.20001220703</ele>
        <time>2014-05-10T14:55:10.000Z</time>
      </trkpt>
      <trkpt lat="44.39616" lon="4.09098">
        <ele>696</ele>
        <time>2014-05-10T14:55:15.000Z</time>
      </trkpt>
      <trkpt lat="44.3962" lon="4.09107">
        <ele>694.59997558594</ele>
        <time>2014-05-10T14:55:22.000Z</time>
      </trkpt>
      <trkpt lat="44.39621" lon="4.09109">
        <ele>694.40002441406</ele>
        <time>2014-05-10T14:55:23.000Z</time>
      </trkpt>
      <trkpt lat="44.39621" lon="4.0911">
        <ele>694.20001220703</ele>
        <time>2014-05-10T14:55:24.000Z</time>
      </trkpt>
      <trkpt lat="44.39622" lon="4.09115">
        <ele>693.20001220703</ele>
        <time>2014-05-10T14:55:28.000Z</time>
      </trkpt>
      <trkpt lat="44.39625" lon="4.09119">
        <ele>692.79998779297</ele>
        <time>2014-05-10T14:55:31.000Z</time>
      </trkpt>
      <trkpt lat="44.39625" lon="4.09123">
        <ele>691.59997558594</ele>
        <time>2014-05-10T14:55:35.000Z</time>
      </trkpt>
      <trkpt lat="44.39625" lon="4.09129">
        <ele>689.79998779297</ele>
        <time>2014-05-10T14:55:39.000Z</time>
      </trkpt>
      <trkpt lat="44.39626" lon="4.09132">
        <ele>689.20001220703</ele>
        <time>2014-05-10T14:55:41.000Z</time>
      </trkpt>
      <trkpt lat="44.39628" lon="4.09139">
        <ele>687.59997558594</ele>
        <time>2014-05-10T14:55:45.000Z</time>
      </trkpt>
      <trkpt lat="44.39629" lon="4.09142">
        <ele>687</ele>
        <time>2014-05-10T14:55:47.000Z</time>
      </trkpt>
      <trkpt lat="44.39631" lon="4.09153">
        <ele>683.79998779297</ele>
        <time>2014-05-10T14:55:54.000Z</time>
      </trkpt>
      <trkpt lat="44.39632" lon="4.09159">
        <ele>682.40002441406</ele>
        <time>2014-05-10T14:55:59.000Z</time>
      </trkpt>
      <trkpt lat="44.39633" lon="4.09161">
        <ele>682</ele>
        <time>2014-05-10T14:56:00.000Z</time>
      </trkpt>
      <trkpt lat="44.39633" lon="4.09162">
        <ele>681.59997558594</ele>
        <time>2014-05-10T14:56:01.000Z</time>
      </trkpt>
      <trkpt lat="44.39636" lon="4.0917">
        <ele>679.79998779297</ele>
        <time>2014-05-10T14:56:06.000Z</time>
      </trkpt>
      <trkpt lat="44.39636" lon="4.09171">
        <ele>679.59997558594</ele>
        <time>2014-05-10T14:56:07.000Z</time>
      </trkpt>
      <trkpt lat="44.39637" lon="4.09181">
        <ele>676.79998779297</ele>
        <time>2014-05-10T14:56:14.000Z</time>
      </trkpt>
      <trkpt lat="44.39639" lon="4.09191">
        <ele>674.40002441406</ele>
        <time>2014-05-10T14:56:20.000Z</time>
      </trkpt>
      <trkpt lat="44.39639" lon="4.09199">
        <ele>672.20001220703</ele>
        <time>2014-05-10T14:56:25.000Z</time>
      </trkpt>
      <trkpt lat="44.39639" lon="4.09204">
        <ele>671.20001220703</ele>
        <time>2014-05-10T14:56:29.000Z</time>
      </trkpt>
      <trkpt lat="44.39639" lon="4.09206">
        <ele>670.59997558594</ele>
        <time>2014-05-10T14:56:30.000Z</time>
      </trkpt>
      <trkpt lat="44.39636" lon="4.09211">
        <ele>668.79998779297</ele>
        <time>2014-05-10T14:56:34.000Z</time>
      </trkpt>
      <trkpt lat="44.39635" lon="4.09214">
        <ele>667.79998779297</ele>
        <time>2014-05-10T14:56:37.000Z</time>
      </trkpt>
      <trkpt lat="44.39633" lon="4.09222">
        <ele>665.59997558594</ele>
        <time>2014-05-10T14:56:43.000Z</time>
      </trkpt>
      <trkpt lat="44.39634" lon="4.09224">
        <ele>665.40002441406</ele>
        <time>2014-05-10T14:56:44.000Z</time>
      </trkpt>
      <trkpt lat="44.39634" lon="4.09225">
        <ele>665.20001220703</ele>
        <time>2014-05-10T14:56:45.000Z</time>
      </trkpt>
      <trkpt lat="44.39631" lon="4.09234">
        <ele>662.20001220703</ele>
        <time>2014-05-10T14:56:50.000Z</time>
      </trkpt>
      <trkpt lat="44.39633" lon="4.0924">
        <ele>661.79998779297</ele>
        <time>2014-05-10T14:56:53.000Z</time>
      </trkpt>
      <trkpt lat="44.39634" lon="4.09241">
        <ele>661.59997558594</ele>
        <time>2014-05-10T14:56:54.000Z</time>
      </trkpt>
      <trkpt lat="44.39634" lon="4.09244">
        <ele>661</ele>
        <time>2014-05-10T14:56:56.000Z</time>
      </trkpt>
      <trkpt lat="44.39634" lon="4.09254">
        <ele>659</ele>
        <time>2014-05-10T14:57:02.000Z</time>
      </trkpt>
      <trkpt lat="44.39632" lon="4.09262">
        <ele>656.79998779297</ele>
        <time>2014-05-10T14:57:07.000Z</time>
      </trkpt>
      <trkpt lat="44.39631" lon="4.0927">
        <ele>654.59997558594</ele>
        <time>2014-05-10T14:57:11.000Z</time>
      </trkpt>
      <trkpt lat="44.39632" lon="4.09273">
        <ele>654.20001220703</ele>
        <time>2014-05-10T14:57:13.000Z</time>
      </trkpt>
      <trkpt lat="44.39632" lon="4.09275">
        <ele>653.79998779297</ele>
        <time>2014-05-10T14:57:15.000Z</time>
      </trkpt>
      <trkpt lat="44.39632" lon="4.09276">
        <ele>653.40002441406</ele>
        <time>2014-05-10T14:57:16.000Z</time>
      </trkpt>
      <trkpt lat="44.3963" lon="4.09284">
        <ele>651.40002441406</ele>
        <time>2014-05-10T14:57:21.000Z</time>
      </trkpt>
      <trkpt lat="44.39633" lon="4.09294">
        <ele>649.79998779297</ele>
        <time>2014-05-10T14:57:27.000Z</time>
      </trkpt>
      <trkpt lat="44.39631" lon="4.093">
        <ele>649.20001220703</ele>
        <time>2014-05-10T14:57:32.000Z</time>
      </trkpt>
      <trkpt lat="44.39631" lon="4.09301">
        <ele>649.20001220703</ele>
        <time>2014-05-10T14:57:33.000Z</time>
      </trkpt>
      <trkpt lat="44.3963" lon="4.09307">
        <ele>648.79998779297</ele>
        <time>2014-05-10T14:57:36.000Z</time>
      </trkpt>
      <trkpt lat="44.39633" lon="4.09317">
        <ele>648.59997558594</ele>
        <time>2014-05-10T14:57:43.000Z</time>
      </trkpt>
      <trkpt lat="44.39632" lon="4.09324">
        <ele>648.20001220703</ele>
        <time>2014-05-10T14:57:49.000Z</time>
      </trkpt>
      <trkpt lat="44.39632" lon="4.09325">
        <ele>648.20001220703</ele>
        <time>2014-05-10T14:57:50.000Z</time>
      </trkpt>
      <trkpt lat="44.39632" lon="4.09328">
        <ele>648</ele>
        <time>2014-05-10T14:57:57.000Z</time>
      </trkpt>
      <trkpt lat="44.39631" lon="4.09332">
        <ele>647.79998779297</ele>
        <time>2014-05-10T14:58:21.000Z</time>
      </trkpt>
      <trkpt lat="44.39633" lon="4.09336">
        <ele>647.59997558594</ele>
        <time>2014-05-10T14:58:37.000Z</time>
      </trkpt>
      <trkpt lat="44.39633" lon="4.09344">
        <ele>647.20001220703</ele>
        <time>2014-05-10T14:58:45.000Z</time>
      </trkpt>
      <trkpt lat="44.39634" lon="4.09345">
        <ele>647.40002441406</ele>
        <time>2014-05-10T14:58:46.000Z</time>
      </trkpt>
      <trkpt lat="44.39634" lon="4.09346">
        <ele>647.20001220703</ele>
        <time>2014-05-10T14:58:47.000Z</time>
      </trkpt>
      <trkpt lat="44.39634" lon="4.09349">
        <ele>647.20001220703</ele>
        <time>2014-05-10T14:58:50.000Z</time>
      </trkpt>
      <trkpt lat="44.39638" lon="4.09355">
        <ele>647.20001220703</ele>
        <time>2014-05-10T14:58:55.000Z</time>
      </trkpt>
      <trkpt lat="44.39639" lon="4.09356">
        <ele>647.20001220703</ele>
        <time>2014-05-10T14:58:58.000Z</time>
      </trkpt>
      <trkpt lat="44.39643" lon="4.09364">
        <ele>646.59997558594</ele>
        <time>2014-05-10T14:59:04.000Z</time>
      </trkpt>
      <trkpt lat="44.39643" lon="4.09365">
        <ele>646.40002441406</ele>
        <time>2014-05-10T14:59:05.000Z</time>
      </trkpt>
      <trkpt lat="44.39644" lon="4.09371">
        <ele>645.40002441406</ele>
        <time>2014-05-10T14:59:09.000Z</time>
      </trkpt>
      <trkpt lat="44.39645" lon="4.09373">
        <ele>645.20001220703</ele>
        <time>2014-05-10T14:59:10.000Z</time>
      </trkpt>
      <trkpt lat="44.39646" lon="4.09378">
        <ele>644.40002441406</ele>
        <time>2014-05-10T14:59:13.000Z</time>
      </trkpt>
      <trkpt lat="44.39645" lon="4.09386">
        <ele>642.79998779297</ele>
        <time>2014-05-10T14:59:19.000Z</time>
      </trkpt>
      <trkpt lat="44.39645" lon="4.09392">
        <ele>642</ele>
        <time>2014-05-10T14:59:23.000Z</time>
      </trkpt>
      <trkpt lat="44.39646" lon="4.09395">
        <ele>641.59997558594</ele>
        <time>2014-05-10T14:59:25.000Z</time>
      </trkpt>
      <trkpt lat="44.39648" lon="4.09399">
        <ele>641.20001220703</ele>
        <time>2014-05-10T14:59:29.000Z</time>
      </trkpt>
      <trkpt lat="44.39649" lon="4.09402">
        <ele>640.79998779297</ele>
        <time>2014-05-10T14:59:32.000Z</time>
      </trkpt>
      <trkpt lat="44.39651" lon="4.09405">
        <ele>640.59997558594</ele>
        <time>2014-05-10T14:59:40.000Z</time>
      </trkpt>
      <trkpt lat="44.39651" lon="4.09408">
        <ele>640.20001220703</ele>
        <time>2014-05-10T14:59:49.000Z</time>
      </trkpt>
      <trkpt lat="44.39652" lon="4.09415">
        <ele>639.40002441406</ele>
        <time>2014-05-10T15:00:05.000Z</time>
      </trkpt>
      <trkpt lat="44.3965" lon="4.0942">
        <ele>639</ele>
        <time>2014-05-10T15:00:10.000Z</time>
      </trkpt>
      <trkpt lat="44.3965" lon="4.09423">
        <ele>638.59997558594</ele>
        <time>2014-05-10T15:00:16.000Z</time>
      </trkpt>
      <trkpt lat="44.39649" lon="4.09427">
        <ele>638.20001220703</ele>
        <time>2014-05-10T15:00:20.000Z</time>
      </trkpt>
      <trkpt lat="44.39653" lon="4.09433">
        <ele>637.59997558594</ele>
        <time>2014-05-10T15:00:27.000Z</time>
      </trkpt>
      <trkpt lat="44.39654" lon="4.09436">
        <ele>637.20001220703</ele>
        <time>2014-05-10T15:00:30.000Z</time>
      </trkpt>
      <trkpt lat="44.39656" lon="4.09441">
        <ele>636.59997558594</ele>
        <time>2014-05-10T15:00:36.000Z</time>
      </trkpt>
      <trkpt lat="44.39656" lon="4.09449">
        <ele>635.40002441406</ele>
        <time>2014-05-10T15:00:42.000Z</time>
      </trkpt>
      <trkpt lat="44.39658" lon="4.09456">
        <ele>634</ele>
        <time>2014-05-10T15:00:49.000Z</time>
      </trkpt>
      <trkpt lat="44.39658" lon="4.09465">
        <ele>632</ele>
        <time>2014-05-10T15:00:56.000Z</time>
      </trkpt>
      <trkpt lat="44.39658" lon="4.09471">
        <ele>630.79998779297</ele>
        <time>2014-05-10T15:01:02.000Z</time>
      </trkpt>
      <trkpt lat="44.39661" lon="4.09477">
        <ele>629.59997558594</ele>
        <time>2014-05-10T15:01:10.000Z</time>
      </trkpt>
      <trkpt lat="44.39661" lon="4.09483">
        <ele>628.40002441406</ele>
        <time>2014-05-10T15:01:15.000Z</time>
      </trkpt>
      <trkpt lat="44.39661" lon="4.09484">
        <ele>628.20001220703</ele>
        <time>2014-05-10T15:01:16.000Z</time>
      </trkpt>
      <trkpt lat="44.39658" lon="4.09486">
        <ele>627.79998779297</ele>
        <time>2014-05-10T15:01:22.000Z</time>
      </trkpt>
      <trkpt lat="44.3966" lon="4.09491">
        <ele>626.79998779297</ele>
        <time>2014-05-10T15:01:28.000Z</time>
      </trkpt>
      <trkpt lat="44.39663" lon="4.09495">
        <ele>626</ele>
        <time>2014-05-10T15:01:34.000Z</time>
      </trkpt>
      <trkpt lat="44.39664" lon="4.09501">
        <ele>624.79998779297</ele>
        <time>2014-05-10T15:01:40.000Z</time>
      </trkpt>
      <trkpt lat="44.39665" lon="4.09508">
        <ele>623.40002441406</ele>
        <time>2014-05-10T15:01:47.000Z</time>
      </trkpt>
      <trkpt lat="44.39667" lon="4.09512">
        <ele>622.59997558594</ele>
        <time>2014-05-10T15:01:53.000Z</time>
      </trkpt>
      <trkpt lat="44.3967" lon="4.09515">
        <ele>622</ele>
        <time>2014-05-10T15:02:00.000Z</time>
      </trkpt>
      <trkpt lat="44.39671" lon="4.09516">
        <ele>621.79998779297</ele>
        <time>2014-05-10T15:02:02.000Z</time>
      </trkpt>
      <trkpt lat="44.39674" lon="4.09515">
        <ele>622</ele>
        <time>2014-05-10T15:02:06.000Z</time>
      </trkpt>
      <trkpt lat="44.39678" lon="4.09515">
        <ele>622.20001220703</ele>
        <time>2014-05-10T15:02:11.000Z</time>
      </trkpt>
      <trkpt lat="44.39681" lon="4.09513">
        <ele>622.59997558594</ele>
        <time>2014-05-10T15:02:17.000Z</time>
      </trkpt>
      <trkpt lat="44.39683" lon="4.0951">
        <ele>623.20001220703</ele>
        <time>2014-05-10T15:02:20.000Z</time>
      </trkpt>
      <trkpt lat="44.39686" lon="4.09508">
        <ele>623.59997558594</ele>
        <time>2014-05-10T15:02:26.000Z</time>
      </trkpt>
      <trkpt lat="44.39689" lon="4.09508">
        <ele>623.59997558594</ele>
        <time>2014-05-10T15:02:32.000Z</time>
      </trkpt>
      <trkpt lat="44.39697" lon="4.09505">
        <ele>624.40002441406</ele>
        <time>2014-05-10T15:02:42.000Z</time>
      </trkpt>
      <trkpt lat="44.39698" lon="4.09505">
        <ele>624.40002441406</ele>
        <time>2014-05-10T15:02:43.000Z</time>
      </trkpt>
      <trkpt lat="44.397" lon="4.09506">
        <ele>623.59997558594</ele>
        <time>2014-05-10T15:02:46.000Z</time>
      </trkpt>
      <trkpt lat="44.39701" lon="4.09505">
        <ele>623.40002441406</ele>
        <time>2014-05-10T15:02:48.000Z</time>
      </trkpt>
      <trkpt lat="44.39703" lon="4.09503">
        <ele>623.20001220703</ele>
        <time>2014-05-10T15:02:53.000Z</time>
      </trkpt>
      <trkpt lat="44.39703" lon="4.09501">
        <ele>623.20001220703</ele>
        <time>2014-05-10T15:02:55.000Z</time>
      </trkpt>
      <trkpt lat="44.3971" lon="4.09496">
        <ele>622.20001220703</ele>
        <time>2014-05-10T15:03:00.000Z</time>
      </trkpt>
      <trkpt lat="44.39712" lon="4.09494">
        <ele>621.79998779297</ele>
        <time>2014-05-10T15:03:02.000Z</time>
      </trkpt>
      <trkpt lat="44.39714" lon="4.09493">
        <ele>621.20001220703</ele>
        <time>2014-05-10T15:03:04.000Z</time>
      </trkpt>
      <trkpt lat="44.39716" lon="4.09491">
        <ele>621</ele>
        <time>2014-05-10T15:03:06.000Z</time>
      </trkpt>
      <trkpt lat="44.3972" lon="4.09489">
        <ele>620</ele>
        <time>2014-05-10T15:03:10.000Z</time>
      </trkpt>
      <trkpt lat="44.39724" lon="4.09488">
        <ele>618.59997558594</ele>
        <time>2014-05-10T15:03:15.000Z</time>
      </trkpt>
      <trkpt lat="44.39726" lon="4.09488">
        <ele>618</ele>
        <time>2014-05-10T15:03:19.000Z</time>
      </trkpt>
      <trkpt lat="44.39728" lon="4.09484">
        <ele>618</ele>
        <time>2014-05-10T15:03:23.000Z</time>
      </trkpt>
      <trkpt lat="44.39733" lon="4.09481">
        <ele>616.79998779297</ele>
        <time>2014-05-10T15:03:27.000Z</time>
      </trkpt>
      <trkpt lat="44.39735" lon="4.09479">
        <ele>616.40002441406</ele>
        <time>2014-05-10T15:03:30.000Z</time>
      </trkpt>
      <trkpt lat="44.39738" lon="4.09478">
        <ele>615.20001220703</ele>
        <time>2014-05-10T15:03:33.000Z</time>
      </trkpt>
      <trkpt lat="44.39742" lon="4.09475">
        <ele>614.20001220703</ele>
        <time>2014-05-10T15:03:38.000Z</time>
      </trkpt>
      <trkpt lat="44.39742" lon="4.09474">
        <ele>614.20001220703</ele>
        <time>2014-05-10T15:03:39.000Z</time>
      </trkpt>
      <trkpt lat="44.39743" lon="4.09474">
        <ele>614</ele>
        <time>2014-05-10T15:03:40.000Z</time>
      </trkpt>
      <trkpt lat="44.39745" lon="4.09471">
        <ele>613.59997558594</ele>
        <time>2014-05-10T15:03:47.000Z</time>
      </trkpt>
      <trkpt lat="44.39748" lon="4.09468">
        <ele>613</ele>
        <time>2014-05-10T15:03:53.000Z</time>
      </trkpt>
      <trkpt lat="44.39752" lon="4.09464">
        <ele>611.59997558594</ele>
        <time>2014-05-10T15:04:06.000Z</time>
      </trkpt>
      <trkpt lat="44.39754" lon="4.09461">
        <ele>611.40002441406</ele>
        <time>2014-05-10T15:04:11.000Z</time>
      </trkpt>
      <trkpt lat="44.39759" lon="4.0945">
        <ele>611.20001220703</ele>
        <time>2014-05-10T15:04:18.000Z</time>
      </trkpt>
      <trkpt lat="44.39762" lon="4.09446">
        <ele>610.59997558594</ele>
        <time>2014-05-10T15:04:21.000Z</time>
      </trkpt>
      <trkpt lat="44.39764" lon="4.09442">
        <ele>610.40002441406</ele>
        <time>2014-05-10T15:04:26.000Z</time>
      </trkpt>
      <trkpt lat="44.39766" lon="4.09441">
        <ele>609.79998779297</ele>
        <time>2014-05-10T15:04:32.000Z</time>
      </trkpt>
      <trkpt lat="44.39768" lon="4.09441">
        <ele>609.20001220703</ele>
        <time>2014-05-10T15:04:39.000Z</time>
      </trkpt>
      <trkpt lat="44.39769" lon="4.09442">
        <ele>608.40002441406</ele>
        <time>2014-05-10T15:04:41.000Z</time>
      </trkpt>
      <trkpt lat="44.39775" lon="4.09439">
        <ele>606.59997558594</ele>
        <time>2014-05-10T15:04:45.000Z</time>
      </trkpt>
      <trkpt lat="44.39775" lon="4.0944">
        <ele>606.40002441406</ele>
        <time>2014-05-10T15:04:46.000Z</time>
      </trkpt>
      <trkpt lat="44.39777" lon="4.09442">
        <ele>605.20001220703</ele>
        <time>2014-05-10T15:04:50.000Z</time>
      </trkpt>
      <trkpt lat="44.3978" lon="4.09447">
        <ele>603</ele>
        <time>2014-05-10T15:04:56.000Z</time>
      </trkpt>
      <trkpt lat="44.39783" lon="4.09447">
        <ele>601.79998779297</ele>
        <time>2014-05-10T15:05:06.000Z</time>
      </trkpt>
      <trkpt lat="44.39786" lon="4.09449">
        <ele>600.20001220703</ele>
        <time>2014-05-10T15:05:12.000Z</time>
      </trkpt>
      <trkpt lat="44.39789" lon="4.0945">
        <ele>599</ele>
        <time>2014-05-10T15:05:18.000Z</time>
      </trkpt>
      <trkpt lat="44.39789" lon="4.09451">
        <ele>598.59997558594</ele>
        <time>2014-05-10T15:05:23.000Z</time>
      </trkpt>
      <trkpt lat="44.39793" lon="4.09451">
        <ele>597</ele>
        <time>2014-05-10T15:05:31.000Z</time>
      </trkpt>
      <trkpt lat="44.39795" lon="4.09451">
        <ele>596.20001220703</ele>
        <time>2014-05-10T15:05:36.000Z</time>
      </trkpt>
      <trkpt lat="44.39798" lon="4.09451">
        <ele>595.40002441406</ele>
        <time>2014-05-10T15:05:41.000Z</time>
      </trkpt>
      <trkpt lat="44.398" lon="4.09451">
        <ele>594.40002441406</ele>
        <time>2014-05-10T15:05:46.000Z</time>
      </trkpt>
      <trkpt lat="44.39801" lon="4.09451">
        <ele>593.79998779297</ele>
        <time>2014-05-10T15:05:50.000Z</time>
      </trkpt>
      <trkpt lat="44.39809" lon="4.09452">
        <ele>590.59997558594</ele>
        <time>2014-05-10T15:06:03.000Z</time>
      </trkpt>
      <trkpt lat="44.39814" lon="4.09452">
        <ele>588.59997558594</ele>
        <time>2014-05-10T15:06:08.000Z</time>
      </trkpt>
      <trkpt lat="44.39816" lon="4.09452">
        <ele>588</ele>
        <time>2014-05-10T15:06:10.000Z</time>
      </trkpt>
      <trkpt lat="44.39823" lon="4.09451">
        <ele>585.59997558594</ele>
        <time>2014-05-10T15:06:20.000Z</time>
      </trkpt>
      <trkpt lat="44.3983" lon="4.0945">
        <ele>583</ele>
        <time>2014-05-10T15:06:33.000Z</time>
      </trkpt>
      <trkpt lat="44.39839" lon="4.09454">
        <ele>578.79998779297</ele>
        <time>2014-05-10T15:06:44.000Z</time>
      </trkpt>
      <trkpt lat="44.39841" lon="4.09454">
        <ele>578.20001220703</ele>
        <time>2014-05-10T15:06:46.000Z</time>
      </trkpt>
      <trkpt lat="44.39842" lon="4.09455">
        <ele>577.40002441406</ele>
        <time>2014-05-10T15:06:48.000Z</time>
      </trkpt>
      <trkpt lat="44.39844" lon="4.09456">
        <ele>576.40002441406</ele>
        <time>2014-05-10T15:06:51.000Z</time>
      </trkpt>
      <trkpt lat="44.39848" lon="4.09457">
        <ele>574.59997558594</ele>
        <time>2014-05-10T15:06:56.000Z</time>
      </trkpt>
      <trkpt lat="44.39853" lon="4.09462">
        <ele>571.79998779297</ele>
        <time>2014-05-10T15:07:02.000Z</time>
      </trkpt>
      <trkpt lat="44.39854" lon="4.09462">
        <ele>571.40002441406</ele>
        <time>2014-05-10T15:07:05.000Z</time>
      </trkpt>
      <trkpt lat="44.39859" lon="4.09466">
        <ele>568.40002441406</ele>
        <time>2014-05-10T15:07:11.000Z</time>
      </trkpt>
      <trkpt lat="44.39863" lon="4.09469">
        <ele>566.40002441406</ele>
        <time>2014-05-10T15:07:15.000Z</time>
      </trkpt>
      <trkpt lat="44.39866" lon="4.0947">
        <ele>565.40002441406</ele>
        <time>2014-05-10T15:07:20.000Z</time>
      </trkpt>
      <trkpt lat="44.39868" lon="4.09468">
        <ele>565.20001220703</ele>
        <time>2014-05-10T15:07:23.000Z</time>
      </trkpt>
      <trkpt lat="44.39872" lon="4.0947">
        <ele>563.59997558594</ele>
        <time>2014-05-10T15:07:28.000Z</time>
      </trkpt>
      <trkpt lat="44.39877" lon="4.09469">
        <ele>562.20001220703</ele>
        <time>2014-05-10T15:07:34.000Z</time>
      </trkpt>
      <trkpt lat="44.39878" lon="4.09469">
        <ele>562</ele>
        <time>2014-05-10T15:07:35.000Z</time>
      </trkpt>
      <trkpt lat="44.3988" lon="4.0947">
        <ele>561</ele>
        <time>2014-05-10T15:07:40.000Z</time>
      </trkpt>
      <trkpt lat="44.39883" lon="4.09472">
        <ele>559.59997558594</ele>
        <time>2014-05-10T15:07:43.000Z</time>
      </trkpt>
      <trkpt lat="44.39886" lon="4.09474">
        <ele>558.59997558594</ele>
        <time>2014-05-10T15:07:47.000Z</time>
      </trkpt>
      <trkpt lat="44.39891" lon="4.09477">
        <ele>556.20001220703</ele>
        <time>2014-05-10T15:07:56.000Z</time>
      </trkpt>
      <trkpt lat="44.39901" lon="4.09481">
        <ele>552.59997558594</ele>
        <time>2014-05-10T15:08:22.000Z</time>
      </trkpt>
      <trkpt lat="44.39902" lon="4.0948">
        <ele>552.40002441406</ele>
        <time>2014-05-10T15:08:29.000Z</time>
      </trkpt>
      <trkpt lat="44.39903" lon="4.0948">
        <ele>552</ele>
        <time>2014-05-10T15:08:36.000Z</time>
      </trkpt>
      <trkpt lat="44.39905" lon="4.09482">
        <ele>551</ele>
        <time>2014-05-10T15:08:42.000Z</time>
      </trkpt>
      <trkpt lat="44.39907" lon="4.09485">
        <ele>549.79998779297</ele>
        <time>2014-05-10T15:08:46.000Z</time>
      </trkpt>
      <trkpt lat="44.39915" lon="4.09489">
        <ele>546.79998779297</ele>
        <time>2014-05-10T15:08:52.000Z</time>
      </trkpt>
      <trkpt lat="44.39918" lon="4.09493">
        <ele>545</ele>
        <time>2014-05-10T15:08:56.000Z</time>
      </trkpt>
      <trkpt lat="44.39922" lon="4.09497">
        <ele>542.79998779297</ele>
        <time>2014-05-10T15:09:01.000Z</time>
      </trkpt>
      <trkpt lat="44.39929" lon="4.09502">
        <ele>539.79998779297</ele>
        <time>2014-05-10T15:09:07.000Z</time>
      </trkpt>
      <trkpt lat="44.3993" lon="4.09507">
        <ele>538.40002441406</ele>
        <time>2014-05-10T15:09:11.000Z</time>
      </trkpt>
      <trkpt lat="44.39934" lon="4.09509">
        <ele>536.79998779297</ele>
        <time>2014-05-10T15:09:17.000Z</time>
      </trkpt>
      <trkpt lat="44.39935" lon="4.0951">
        <ele>536.20001220703</ele>
        <time>2014-05-10T15:09:18.000Z</time>
      </trkpt>
      <trkpt lat="44.39938" lon="4.09517">
        <ele>534</ele>
        <time>2014-05-10T15:09:24.000Z</time>
      </trkpt>
      <trkpt lat="44.39939" lon="4.09518">
        <ele>533.79998779297</ele>
        <time>2014-05-10T15:09:25.000Z</time>
      </trkpt>
      <trkpt lat="44.3994" lon="4.09519">
        <ele>532.79998779297</ele>
        <time>2014-05-10T15:09:27.000Z</time>
      </trkpt>
      <trkpt lat="44.39946" lon="4.09528">
        <ele>529.59997558594</ele>
        <time>2014-05-10T15:09:34.000Z</time>
      </trkpt>
      <trkpt lat="44.39946" lon="4.09532">
        <ele>528.59997558594</ele>
        <time>2014-05-10T15:09:37.000Z</time>
      </trkpt>
      <trkpt lat="44.39949" lon="4.09538">
        <ele>526.79998779297</ele>
        <time>2014-05-10T15:09:43.000Z</time>
      </trkpt>
      <trkpt lat="44.39953" lon="4.09543">
        <ele>525.20001220703</ele>
        <time>2014-05-10T15:09:50.000Z</time>
      </trkpt>
      <trkpt lat="44.39956" lon="4.09548">
        <ele>524</ele>
        <time>2014-05-10T15:09:56.000Z</time>
      </trkpt>
      <trkpt lat="44.39958" lon="4.0955">
        <ele>523</ele>
        <time>2014-05-10T15:09:59.000Z</time>
      </trkpt>
      <trkpt lat="44.3996" lon="4.09551">
        <ele>522.40002441406</ele>
        <time>2014-05-10T15:10:02.000Z</time>
      </trkpt>
      <trkpt lat="44.39962" lon="4.09552">
        <ele>522</ele>
        <time>2014-05-10T15:10:10.000Z</time>
      </trkpt>
      <trkpt lat="44.39966" lon="4.09553">
        <ele>521.20001220703</ele>
        <time>2014-05-10T15:10:15.000Z</time>
      </trkpt>
      <trkpt lat="44.39967" lon="4.09553">
        <ele>521</ele>
        <time>2014-05-10T15:10:16.000Z</time>
      </trkpt>
      <trkpt lat="44.3997" lon="4.09555">
        <ele>520</ele>
        <time>2014-05-10T15:10:20.000Z</time>
      </trkpt>
      <trkpt lat="44.39974" lon="4.09557">
        <ele>519</ele>
        <time>2014-05-10T15:10:26.000Z</time>
      </trkpt>
      <trkpt lat="44.39974" lon="4.0956">
        <ele>518.40002441406</ele>
        <time>2014-05-10T15:10:33.000Z</time>
      </trkpt>
      <trkpt lat="44.39978" lon="4.09561">
        <ele>517.59997558594</ele>
        <time>2014-05-10T15:10:50.000Z</time>
      </trkpt>
      <trkpt lat="44.39984" lon="4.09564">
        <ele>516</ele>
        <time>2014-05-10T15:11:10.000Z</time>
      </trkpt>
      <trkpt lat="44.39987" lon="4.09568">
        <ele>514.40002441406</ele>
        <time>2014-05-10T15:11:16.000Z</time>
      </trkpt>
      <trkpt lat="44.39988" lon="4.0957">
        <ele>514</ele>
        <time>2014-05-10T15:11:18.000Z</time>
      </trkpt>
      <trkpt lat="44.39991" lon="4.09574">
        <ele>512.79998779297</ele>
        <time>2014-05-10T15:11:24.000Z</time>
      </trkpt>
      <trkpt lat="44.39992" lon="4.09575">
        <ele>512.40002441406</ele>
        <time>2014-05-10T15:11:25.000Z</time>
      </trkpt>
      <trkpt lat="44.39995" lon="4.0958">
        <ele>511</ele>
        <time>2014-05-10T15:11:32.000Z</time>
      </trkpt>
      <trkpt lat="44.39998" lon="4.09581">
        <ele>510.39999389648</ele>
        <time>2014-05-10T15:11:35.000Z</time>
      </trkpt>
      <trkpt lat="44.40001" lon="4.09583">
        <ele>509.39999389648</ele>
        <time>2014-05-10T15:11:41.000Z</time>
      </trkpt>
      <trkpt lat="44.40004" lon="4.09581">
        <ele>509</ele>
        <time>2014-05-10T15:11:46.000Z</time>
      </trkpt>
      <trkpt lat="44.40009" lon="4.09582">
        <ele>507.60000610352</ele>
        <time>2014-05-10T15:11:52.000Z</time>
      </trkpt>
      <trkpt lat="44.40011" lon="4.09583">
        <ele>507</ele>
        <time>2014-05-10T15:11:59.000Z</time>
      </trkpt>
      <trkpt lat="44.40012" lon="4.09584">
        <ele>506.60000610352</ele>
        <time>2014-05-10T15:12:10.000Z</time>
      </trkpt>
      <trkpt lat="44.40014" lon="4.09586">
        <ele>505.79998779297</ele>
        <time>2014-05-10T15:12:15.000Z</time>
      </trkpt>
      <trkpt lat="44.40018" lon="4.09589">
        <ele>504.39999389648</ele>
        <time>2014-05-10T15:12:20.000Z</time>
      </trkpt>
      <trkpt lat="44.4002" lon="4.09591">
        <ele>503.79998779297</ele>
        <time>2014-05-10T15:12:23.000Z</time>
      </trkpt>
      <trkpt lat="44.40025" lon="4.09595">
        <ele>502</ele>
        <time>2014-05-10T15:12:28.000Z</time>
      </trkpt>
      <trkpt lat="44.40031" lon="4.096">
        <ele>500</ele>
        <time>2014-05-10T15:12:34.000Z</time>
      </trkpt>
      <trkpt lat="44.40035" lon="4.09602">
        <ele>499</ele>
        <time>2014-05-10T15:12:42.000Z</time>
      </trkpt>
      <trkpt lat="44.40037" lon="4.09608">
        <ele>498.20001220703</ele>
        <time>2014-05-10T15:13:13.000Z</time>
      </trkpt>
      <trkpt lat="44.40033" lon="4.09614">
        <ele>498.20001220703</ele>
        <time>2014-05-10T15:13:19.000Z</time>
      </trkpt>
      <trkpt lat="44.40031" lon="4.09617">
        <ele>498</ele>
        <time>2014-05-10T15:13:21.000Z</time>
      </trkpt>
      <trkpt lat="44.40032" lon="4.09627">
        <ele>496.60000610352</ele>
        <time>2014-05-10T15:13:28.000Z</time>
      </trkpt>
      <trkpt lat="44.40033" lon="4.09637">
        <ele>495</ele>
        <time>2014-05-10T15:13:36.000Z</time>
      </trkpt>
      <trkpt lat="44.40033" lon="4.09641">
        <ele>494.39999389648</ele>
        <time>2014-05-10T15:13:42.000Z</time>
      </trkpt>
      <trkpt lat="44.40035" lon="4.09642">
        <ele>494</ele>
        <time>2014-05-10T15:13:59.000Z</time>
      </trkpt>
      <trkpt lat="44.40029" lon="4.09646">
        <ele>494.39999389648</ele>
        <time>2014-05-10T15:14:05.000Z</time>
      </trkpt>
      <trkpt lat="44.40023" lon="4.09652">
        <ele>494.39999389648</ele>
        <time>2014-05-10T15:14:11.000Z</time>
      </trkpt>
      <trkpt lat="44.40019" lon="4.09656">
        <ele>494.60000610352</ele>
        <time>2014-05-10T15:14:15.000Z</time>
      </trkpt>
      <trkpt lat="44.40013" lon="4.09662">
        <ele>494.79998779297</ele>
        <time>2014-05-10T15:14:21.000Z</time>
      </trkpt>
      <trkpt lat="44.40011" lon="4.09665">
        <ele>494.79998779297</ele>
        <time>2014-05-10T15:14:23.000Z</time>
      </trkpt>
      <trkpt lat="44.40003" lon="4.09667">
        <ele>495.79998779297</ele>
        <time>2014-05-10T15:14:29.000Z</time>
      </trkpt>
      <trkpt lat="44.39989" lon="4.09668">
        <ele>497.60000610352</ele>
        <time>2014-05-10T15:14:40.000Z</time>
      </trkpt>
      <trkpt lat="44.3998" lon="4.09668">
        <ele>499</ele>
        <time>2014-05-10T15:14:47.000Z</time>
      </trkpt>
      <trkpt lat="44.39968" lon="4.09669">
        <ele>500.60000610352</ele>
        <time>2014-05-10T15:14:55.000Z</time>
      </trkpt>
      <trkpt lat="44.3996" lon="4.09672">
        <ele>501</ele>
        <time>2014-05-10T15:15:02.000Z</time>
      </trkpt>
      <trkpt lat="44.39953" lon="4.09677">
        <ele>501.39999389648</ele>
        <time>2014-05-10T15:15:08.000Z</time>
      </trkpt>
      <trkpt lat="44.39946" lon="4.09684">
        <ele>501.39999389648</ele>
        <time>2014-05-10T15:15:15.000Z</time>
      </trkpt>
      <trkpt lat="44.39945" lon="4.09684">
        <ele>501.79998779297</ele>
        <time>2014-05-10T15:15:20.000Z</time>
      </trkpt>
      <trkpt lat="44.39942" lon="4.09685">
        <ele>502.20001220703</ele>
        <time>2014-05-10T15:16:11.000Z</time>
      </trkpt>
      <trkpt lat="44.3994" lon="4.09682">
        <ele>503.20001220703</ele>
        <time>2014-05-10T15:16:43.000Z</time>
      </trkpt>
      <trkpt lat="44.3994" lon="4.09685">
        <ele>502.79998779297</ele>
        <time>2014-05-10T15:17:03.000Z</time>
      </trkpt>
      <trkpt lat="44.39935" lon="4.09686">
        <ele>504</ele>
        <time>2014-05-10T15:17:09.000Z</time>
      </trkpt>
      <trkpt lat="44.39925" lon="4.09687">
        <ele>506.60000610352</ele>
        <time>2014-05-10T15:17:17.000Z</time>
      </trkpt>
      <trkpt lat="44.3992" lon="4.09689">
        <ele>507.39999389648</ele>
        <time>2014-05-10T15:17:22.000Z</time>
      </trkpt>
      <trkpt lat="44.39919" lon="4.0969">
        <ele>507.39999389648</ele>
        <time>2014-05-10T15:17:29.000Z</time>
      </trkpt>
      <trkpt lat="44.39916" lon="4.09692">
        <ele>507.79998779297</ele>
        <time>2014-05-10T15:17:37.000Z</time>
      </trkpt>
      <trkpt lat="44.39909" lon="4.09695">
        <ele>509.20001220703</ele>
        <time>2014-05-10T15:17:43.000Z</time>
      </trkpt>
      <trkpt lat="44.39908" lon="4.09695">
        <ele>509.39999389648</ele>
        <time>2014-05-10T15:17:44.000Z</time>
      </trkpt>
      <trkpt lat="44.39896" lon="4.09703">
        <ele>511.39999389648</ele>
        <time>2014-05-10T15:17:54.000Z</time>
      </trkpt>
      <trkpt lat="44.39888" lon="4.09714">
        <ele>511.79998779297</ele>
        <time>2014-05-10T15:18:02.000Z</time>
      </trkpt>
      <trkpt lat="44.39884" lon="4.09725">
        <ele>511</ele>
        <time>2014-05-10T15:18:09.000Z</time>
      </trkpt>
      <trkpt lat="44.39877" lon="4.09738">
        <ele>510.60000610352</ele>
        <time>2014-05-10T15:18:18.000Z</time>
      </trkpt>
      <trkpt lat="44.39869" lon="4.09751">
        <ele>510.39999389648</ele>
        <time>2014-05-10T15:18:27.000Z</time>
      </trkpt>
      <trkpt lat="44.3986" lon="4.09762">
        <ele>511.60000610352</ele>
        <time>2014-05-10T15:18:36.000Z</time>
      </trkpt>
      <trkpt lat="44.39852" lon="4.09767">
        <ele>513.40002441406</ele>
        <time>2014-05-10T15:18:41.000Z</time>
      </trkpt>
      <trkpt lat="44.39848" lon="4.0977">
        <ele>513.59997558594</ele>
        <time>2014-05-10T15:18:44.000Z</time>
      </trkpt>
      <trkpt lat="44.39839" lon="4.09778">
        <ele>514</ele>
        <time>2014-05-10T15:18:53.000Z</time>
      </trkpt>
      <trkpt lat="44.39832" lon="4.09782">
        <ele>514.59997558594</ele>
        <time>2014-05-10T15:19:00.000Z</time>
      </trkpt>
      <trkpt lat="44.39825" lon="4.09786">
        <ele>515.79998779297</ele>
        <time>2014-05-10T15:19:06.000Z</time>
      </trkpt>
      <trkpt lat="44.39817" lon="4.09792">
        <ele>516.59997558594</ele>
        <time>2014-05-10T15:19:13.000Z</time>
      </trkpt>
      <trkpt lat="44.39807" lon="4.09798">
        <ele>518</ele>
        <time>2014-05-10T15:19:21.000Z</time>
      </trkpt>
      <trkpt lat="44.39797" lon="4.09804">
        <ele>518.40002441406</ele>
        <time>2014-05-10T15:19:29.000Z</time>
      </trkpt>
      <trkpt lat="44.39792" lon="4.09805">
        <ele>519</ele>
        <time>2014-05-10T15:19:35.000Z</time>
      </trkpt>
      <trkpt lat="44.39785" lon="4.09807">
        <ele>519.59997558594</ele>
        <time>2014-05-10T15:19:46.000Z</time>
      </trkpt>
      <trkpt lat="44.39775" lon="4.09807">
        <ele>522.79998779297</ele>
        <time>2014-05-10T15:19:54.000Z</time>
      </trkpt>
      <trkpt lat="44.39766" lon="4.09804">
        <ele>526.20001220703</ele>
        <time>2014-05-10T15:20:01.000Z</time>
      </trkpt>
      <trkpt lat="44.39755" lon="4.09804">
        <ele>529.59997558594</ele>
        <time>2014-05-10T15:20:09.000Z</time>
      </trkpt>
      <trkpt lat="44.39745" lon="4.09806">
        <ele>532.20001220703</ele>
        <time>2014-05-10T15:20:16.000Z</time>
      </trkpt>
      <trkpt lat="44.39739" lon="4.09813">
        <ele>532.20001220703</ele>
        <time>2014-05-10T15:20:22.000Z</time>
      </trkpt>
      <trkpt lat="44.39733" lon="4.09824">
        <ele>531</ele>
        <time>2014-05-10T15:20:28.000Z</time>
      </trkpt>
      <trkpt lat="44.39729" lon="4.09835">
        <ele>529.79998779297</ele>
        <time>2014-05-10T15:20:35.000Z</time>
      </trkpt>
      <trkpt lat="44.39724" lon="4.0985">
        <ele>528</ele>
        <time>2014-05-10T15:20:43.000Z</time>
      </trkpt>
      <trkpt lat="44.39718" lon="4.0986">
        <ele>527.79998779297</ele>
        <time>2014-05-10T15:20:50.000Z</time>
      </trkpt>
      <trkpt lat="44.39711" lon="4.09869">
        <ele>528.40002441406</ele>
        <time>2014-05-10T15:20:57.000Z</time>
      </trkpt>
      <trkpt lat="44.39705" lon="4.09875">
        <ele>529.40002441406</ele>
        <time>2014-05-10T15:21:03.000Z</time>
      </trkpt>
      <trkpt lat="44.39702" lon="4.09876">
        <ele>530.20001220703</ele>
        <time>2014-05-10T15:21:05.000Z</time>
      </trkpt>
      <trkpt lat="44.39696" lon="4.09883">
        <ele>530.59997558594</ele>
        <time>2014-05-10T15:21:11.000Z</time>
      </trkpt>
      <trkpt lat="44.39694" lon="4.09884">
        <ele>530.40002441406</ele>
        <time>2014-05-10T15:21:12.000Z</time>
      </trkpt>
      <trkpt lat="44.39687" lon="4.09891">
        <ele>529.40002441406</ele>
        <time>2014-05-10T15:21:19.000Z</time>
      </trkpt>
      <trkpt lat="44.39685" lon="4.09892">
        <ele>529</ele>
        <time>2014-05-10T15:21:21.000Z</time>
      </trkpt>
      <trkpt lat="44.39679" lon="4.09895">
        <ele>528.59997558594</ele>
        <time>2014-05-10T15:21:26.000Z</time>
      </trkpt>
      <trkpt lat="44.39677" lon="4.09896">
        <ele>528.79998779297</ele>
        <time>2014-05-10T15:21:28.000Z</time>
      </trkpt>
      <trkpt lat="44.39667" lon="4.099">
        <ele>528.20001220703</ele>
        <time>2014-05-10T15:21:37.000Z</time>
      </trkpt>
      <trkpt lat="44.3966" lon="4.09904">
        <ele>528</ele>
        <time>2014-05-10T15:21:42.000Z</time>
      </trkpt>
      <trkpt lat="44.39659" lon="4.09904">
        <ele>527.79998779297</ele>
        <time>2014-05-10T15:21:43.000Z</time>
      </trkpt>
      <trkpt lat="44.39646" lon="4.09906">
        <ele>528.79998779297</ele>
        <time>2014-05-10T15:21:52.000Z</time>
      </trkpt>
      <trkpt lat="44.39638" lon="4.09908">
        <ele>529.20001220703</ele>
        <time>2014-05-10T15:21:58.000Z</time>
      </trkpt>
      <trkpt lat="44.39634" lon="4.09909">
        <ele>529.59997558594</ele>
        <time>2014-05-10T15:22:01.000Z</time>
      </trkpt>
      <trkpt lat="44.39627" lon="4.09912">
        <ele>529.79998779297</ele>
        <time>2014-05-10T15:22:06.000Z</time>
      </trkpt>
      <trkpt lat="44.39617" lon="4.09917">
        <ele>529.79998779297</ele>
        <time>2014-05-10T15:22:13.000Z</time>
      </trkpt>
      <trkpt lat="44.39608" lon="4.0992">
        <ele>528.40002441406</ele>
        <time>2014-05-10T15:22:19.000Z</time>
      </trkpt>
      <trkpt lat="44.39598" lon="4.09922">
        <ele>526.20001220703</ele>
        <time>2014-05-10T15:22:26.000Z</time>
      </trkpt>
      <trkpt lat="44.39593" lon="4.09921">
        <ele>525.20001220703</ele>
        <time>2014-05-10T15:22:30.000Z</time>
      </trkpt>
      <trkpt lat="44.39589" lon="4.0992">
        <ele>524.40002441406</ele>
        <time>2014-05-10T15:22:33.000Z</time>
      </trkpt>
      <trkpt lat="44.39576" lon="4.09918">
        <ele>522.20001220703</ele>
        <time>2014-05-10T15:22:41.000Z</time>
      </trkpt>
      <trkpt lat="44.39565" lon="4.09915">
        <ele>520.20001220703</ele>
        <time>2014-05-10T15:22:49.000Z</time>
      </trkpt>
      <trkpt lat="44.39558" lon="4.09912">
        <ele>519.40002441406</ele>
        <time>2014-05-10T15:22:54.000Z</time>
      </trkpt>
      <trkpt lat="44.3955" lon="4.09901">
        <ele>519.59997558594</ele>
        <time>2014-05-10T15:23:03.000Z</time>
      </trkpt>
      <trkpt lat="44.39549" lon="4.09885">
        <ele>522.20001220703</ele>
        <time>2014-05-10T15:23:11.000Z</time>
      </trkpt>
      <trkpt lat="44.3955" lon="4.09881">
        <ele>523.20001220703</ele>
        <time>2014-05-10T15:23:13.000Z</time>
      </trkpt>
      <trkpt lat="44.39552" lon="4.0987">
        <ele>525.40002441406</ele>
        <time>2014-05-10T15:23:19.000Z</time>
      </trkpt>
      <trkpt lat="44.39553" lon="4.09864">
        <ele>526.40002441406</ele>
        <time>2014-05-10T15:23:22.000Z</time>
      </trkpt>
      <trkpt lat="44.39555" lon="4.0985">
        <ele>529.79998779297</ele>
        <time>2014-05-10T15:23:29.000Z</time>
      </trkpt>
      <trkpt lat="44.39556" lon="4.09841">
        <ele>532</ele>
        <time>2014-05-10T15:23:34.000Z</time>
      </trkpt>
      <trkpt lat="44.39554" lon="4.09832">
        <ele>533.79998779297</ele>
        <time>2014-05-10T15:23:39.000Z</time>
      </trkpt>
      <trkpt lat="44.39553" lon="4.09827">
        <ele>534.59997558594</ele>
        <time>2014-05-10T15:23:42.000Z</time>
      </trkpt>
      <trkpt lat="44.39552" lon="4.09823">
        <ele>535.40002441406</ele>
        <time>2014-05-10T15:23:45.000Z</time>
      </trkpt>
      <trkpt lat="44.39546" lon="4.09814">
        <ele>536.40002441406</ele>
        <time>2014-05-10T15:23:51.000Z</time>
      </trkpt>
      <trkpt lat="44.39544" lon="4.09811">
        <ele>536.59997558594</ele>
        <time>2014-05-10T15:23:53.000Z</time>
      </trkpt>
      <trkpt lat="44.39536" lon="4.09801">
        <ele>537.40002441406</ele>
        <time>2014-05-10T15:24:00.000Z</time>
      </trkpt>
      <trkpt lat="44.3953" lon="4.09793">
        <ele>538.20001220703</ele>
        <time>2014-05-10T15:24:06.000Z</time>
      </trkpt>
      <trkpt lat="44.39528" lon="4.09787">
        <ele>539.59997558594</ele>
        <time>2014-05-10T15:24:09.000Z</time>
      </trkpt>
      <trkpt lat="44.39524" lon="4.09776">
        <ele>542</ele>
        <time>2014-05-10T15:24:16.000Z</time>
      </trkpt>
      <trkpt lat="44.39522" lon="4.09769">
        <ele>543.59997558594</ele>
        <time>2014-05-10T15:24:20.000Z</time>
      </trkpt>
      <trkpt lat="44.39518" lon="4.09759">
        <ele>545.79998779297</ele>
        <time>2014-05-10T15:24:26.000Z</time>
      </trkpt>
      <trkpt lat="44.39512" lon="4.09751">
        <ele>547.20001220703</ele>
        <time>2014-05-10T15:24:32.000Z</time>
      </trkpt>
      <trkpt lat="44.39505" lon="4.09751">
        <ele>546.79998779297</ele>
        <time>2014-05-10T15:24:37.000Z</time>
      </trkpt>
      <trkpt lat="44.39503" lon="4.09752">
        <ele>546.59997558594</ele>
        <time>2014-05-10T15:24:39.000Z</time>
      </trkpt>
      <trkpt lat="44.39494" lon="4.09754">
        <ele>546</ele>
        <time>2014-05-10T15:24:45.000Z</time>
      </trkpt>
      <trkpt lat="44.39488" lon="4.09758">
        <ele>545.40002441406</ele>
        <time>2014-05-10T15:24:50.000Z</time>
      </trkpt>
      <trkpt lat="44.39486" lon="4.09759">
        <ele>545</ele>
        <time>2014-05-10T15:24:52.000Z</time>
      </trkpt>
      <trkpt lat="44.39477" lon="4.09764">
        <ele>544</ele>
        <time>2014-05-10T15:25:00.000Z</time>
      </trkpt>
      <trkpt lat="44.39476" lon="4.09764">
        <ele>544</ele>
        <time>2014-05-10T15:25:01.000Z</time>
      </trkpt>
      <trkpt lat="44.39471" lon="4.09767">
        <ele>543.20001220703</ele>
        <time>2014-05-10T15:25:05.000Z</time>
      </trkpt>
      <trkpt lat="44.39468" lon="4.09769">
        <ele>542.79998779297</ele>
        <time>2014-05-10T15:25:08.000Z</time>
      </trkpt>
      <trkpt lat="44.39462" lon="4.09771">
        <ele>542.20001220703</ele>
        <time>2014-05-10T15:25:13.000Z</time>
      </trkpt>
      <trkpt lat="44.39461" lon="4.09772">
        <ele>542</ele>
        <time>2014-05-10T15:25:14.000Z</time>
      </trkpt>
      <trkpt lat="44.39459" lon="4.09774">
        <ele>541.79998779297</ele>
        <time>2014-05-10T15:25:16.000Z</time>
      </trkpt>
      <trkpt lat="44.39451" lon="4.09777">
        <ele>541</ele>
        <time>2014-05-10T15:25:22.000Z</time>
      </trkpt>
      <trkpt lat="44.39449" lon="4.09778">
        <ele>540.59997558594</ele>
        <time>2014-05-10T15:25:24.000Z</time>
      </trkpt>
      <trkpt lat="44.39443" lon="4.09781">
        <ele>537.79998779297</ele>
        <time>2014-05-10T15:25:28.000Z</time>
      </trkpt>
      <trkpt lat="44.39433" lon="4.09784">
        <ele>532.59997558594</ele>
        <time>2014-05-10T15:25:36.000Z</time>
      </trkpt>
      <trkpt lat="44.39422" lon="4.09786">
        <ele>527.59997558594</ele>
        <time>2014-05-10T15:25:44.000Z</time>
      </trkpt>
      <trkpt lat="44.39411" lon="4.09783">
        <ele>524.59997558594</ele>
        <time>2014-05-10T15:25:52.000Z</time>
      </trkpt>
      <trkpt lat="44.39403" lon="4.09773">
        <ele>523.79998779297</ele>
        <time>2014-05-10T15:26:00.000Z</time>
      </trkpt>
      <trkpt lat="44.39399" lon="4.09764">
        <ele>523.79998779297</ele>
        <time>2014-05-10T15:26:06.000Z</time>
      </trkpt>
      <trkpt lat="44.39397" lon="4.09758">
        <ele>524</ele>
        <time>2014-05-10T15:26:09.000Z</time>
      </trkpt>
      <trkpt lat="44.39395" lon="4.09753">
        <ele>524.20001220703</ele>
        <time>2014-05-10T15:26:12.000Z</time>
      </trkpt>
      <trkpt lat="44.39392" lon="4.09741">
        <ele>525</ele>
        <time>2014-05-10T15:26:18.000Z</time>
      </trkpt>
      <trkpt lat="44.39387" lon="4.09726">
        <ele>525.79998779297</ele>
        <time>2014-05-10T15:26:26.000Z</time>
      </trkpt>
      <trkpt lat="44.39387" lon="4.09724">
        <ele>526.20001220703</ele>
        <time>2014-05-10T15:26:27.000Z</time>
      </trkpt>
      <trkpt lat="44.39383" lon="4.09714">
        <ele>526.20001220703</ele>
        <time>2014-05-10T15:26:33.000Z</time>
      </trkpt>
      <trkpt lat="44.39377" lon="4.09695">
        <ele>527.79998779297</ele>
        <time>2014-05-10T15:26:43.000Z</time>
      </trkpt>
      <trkpt lat="44.39372" lon="4.09681">
        <ele>526.40002441406</ele>
        <time>2014-05-10T15:26:51.000Z</time>
      </trkpt>
      <trkpt lat="44.39367" lon="4.09668">
        <ele>524.79998779297</ele>
        <time>2014-05-10T15:26:58.000Z</time>
      </trkpt>
      <trkpt lat="44.39363" lon="4.09654">
        <ele>524</ele>
        <time>2014-05-10T15:27:05.000Z</time>
      </trkpt>
      <trkpt lat="44.39359" lon="4.09635">
        <ele>524.20001220703</ele>
        <time>2014-05-10T15:27:14.000Z</time>
      </trkpt>
      <trkpt lat="44.3936" lon="4.09622">
        <ele>524.79998779297</ele>
        <time>2014-05-10T15:27:20.000Z</time>
      </trkpt>
      <trkpt lat="44.39366" lon="4.09598">
        <ele>527.40002441406</ele>
        <time>2014-05-10T15:27:32.000Z</time>
      </trkpt>
      <trkpt lat="44.3937" lon="4.09584">
        <ele>530.20001220703</ele>
        <time>2014-05-10T15:27:39.000Z</time>
      </trkpt>
      <trkpt lat="44.3937" lon="4.09582">
        <ele>530.40002441406</ele>
        <time>2014-05-10T15:27:40.000Z</time>
      </trkpt>
      <trkpt lat="44.39371" lon="4.09576">
        <ele>531.59997558594</ele>
        <time>2014-05-10T15:27:43.000Z</time>
      </trkpt>
      <trkpt lat="44.39377" lon="4.09559">
        <ele>535.20001220703</ele>
        <time>2014-05-10T15:27:52.000Z</time>
      </trkpt>
      <trkpt lat="44.39382" lon="4.09547">
        <ele>538.59997558594</ele>
        <time>2014-05-10T15:27:59.000Z</time>
      </trkpt>
      <trkpt lat="44.39388" lon="4.09529">
        <ele>540.59997558594</ele>
        <time>2014-05-10T15:28:09.000Z</time>
      </trkpt>
      <trkpt lat="44.39393" lon="4.09511">
        <ele>545.40002441406</ele>
        <time>2014-05-10T15:28:18.000Z</time>
      </trkpt>
      <trkpt lat="44.39396" lon="4.09496">
        <ele>549.79998779297</ele>
        <time>2014-05-10T15:28:26.000Z</time>
      </trkpt>
      <trkpt lat="44.39399" lon="4.09481">
        <ele>554.20001220703</ele>
        <time>2014-05-10T15:28:34.000Z</time>
      </trkpt>
      <trkpt lat="44.39402" lon="4.09465">
        <ele>555.40002441406</ele>
        <time>2014-05-10T15:28:42.000Z</time>
      </trkpt>
      <trkpt lat="44.39404" lon="4.09444">
        <ele>556</ele>
        <time>2014-05-10T15:28:52.000Z</time>
      </trkpt>
      <trkpt lat="44.39403" lon="4.09427">
        <ele>559.59997558594</ele>
        <time>2014-05-10T15:29:00.000Z</time>
      </trkpt>
      <trkpt lat="44.394" lon="4.09413">
        <ele>562.59997558594</ele>
        <time>2014-05-10T15:29:07.000Z</time>
      </trkpt>
      <trkpt lat="44.39397" lon="4.09397">
        <ele>566</ele>
        <time>2014-05-10T15:29:15.000Z</time>
      </trkpt>
      <trkpt lat="44.39396" lon="4.09394">
        <ele>566.40002441406</ele>
        <time>2014-05-10T15:29:16.000Z</time>
      </trkpt>
      <trkpt lat="44.39394" lon="4.09386">
        <ele>567.40002441406</ele>
        <time>2014-05-10T15:29:20.000Z</time>
      </trkpt>
      <trkpt lat="44.39393" lon="4.09374">
        <ele>568.40002441406</ele>
        <time>2014-05-10T15:29:26.000Z</time>
      </trkpt>
      <trkpt lat="44.39394" lon="4.09367">
        <ele>568.79998779297</ele>
        <time>2014-05-10T15:29:29.000Z</time>
      </trkpt>
      <trkpt lat="44.3939" lon="4.09353">
        <ele>570.79998779297</ele>
        <time>2014-05-10T15:29:36.000Z</time>
      </trkpt>
      <trkpt lat="44.39388" lon="4.09352">
        <ele>571.20001220703</ele>
        <time>2014-05-10T15:29:37.000Z</time>
      </trkpt>
      <trkpt lat="44.39377" lon="4.09343">
        <ele>573.20001220703</ele>
        <time>2014-05-10T15:29:44.000Z</time>
      </trkpt>
      <trkpt lat="44.39369" lon="4.0934">
        <ele>573.79998779297</ele>
        <time>2014-05-10T15:29:49.000Z</time>
      </trkpt>
      <trkpt lat="44.3936" lon="4.09345">
        <ele>574.40002441406</ele>
        <time>2014-05-10T15:29:55.000Z</time>
      </trkpt>
      <trkpt lat="44.39358" lon="4.09361">
        <ele>571.40002441406</ele>
        <time>2014-05-10T15:30:03.000Z</time>
      </trkpt>
      <trkpt lat="44.39355" lon="4.09372">
        <ele>570.20001220703</ele>
        <time>2014-05-10T15:30:08.000Z</time>
      </trkpt>
      <trkpt lat="44.3935" lon="4.09383">
        <ele>569.20001220703</ele>
        <time>2014-05-10T15:30:15.000Z</time>
      </trkpt>
      <trkpt lat="44.39349" lon="4.09385">
        <ele>569</ele>
        <time>2014-05-10T15:30:16.000Z</time>
      </trkpt>
      <trkpt lat="44.39347" lon="4.09391">
        <ele>568.59997558594</ele>
        <time>2014-05-10T15:30:19.000Z</time>
      </trkpt>
      <trkpt lat="44.3934" lon="4.09409">
        <ele>567.20001220703</ele>
        <time>2014-05-10T15:30:29.000Z</time>
      </trkpt>
      <trkpt lat="44.39333" lon="4.09422">
        <ele>565.79998779297</ele>
        <time>2014-05-10T15:30:37.000Z</time>
      </trkpt>
      <trkpt lat="44.39323" lon="4.09436">
        <ele>564.79998779297</ele>
        <time>2014-05-10T15:30:47.000Z</time>
      </trkpt>
      <trkpt lat="44.39313" lon="4.09445">
        <ele>565.40002441406</ele>
        <time>2014-05-10T15:30:55.000Z</time>
      </trkpt>
      <trkpt lat="44.39303" lon="4.0945">
        <ele>567.59997558594</ele>
        <time>2014-05-10T15:31:02.000Z</time>
      </trkpt>
      <trkpt lat="44.39295" lon="4.09455">
        <ele>569.20001220703</ele>
        <time>2014-05-10T15:31:08.000Z</time>
      </trkpt>
      <trkpt lat="44.39291" lon="4.09458">
        <ele>568.79998779297</ele>
        <time>2014-05-10T15:31:11.000Z</time>
      </trkpt>
      <trkpt lat="44.39286" lon="4.09459">
        <ele>568.79998779297</ele>
        <time>2014-05-10T15:31:15.000Z</time>
      </trkpt>
      <trkpt lat="44.39278" lon="4.0946">
        <ele>569.79998779297</ele>
        <time>2014-05-10T15:31:21.000Z</time>
      </trkpt>
      <trkpt lat="44.39268" lon="4.09461">
        <ele>573</ele>
        <time>2014-05-10T15:31:28.000Z</time>
      </trkpt>
      <trkpt lat="44.3926" lon="4.0946">
        <ele>576</ele>
        <time>2014-05-10T15:31:33.000Z</time>
      </trkpt>
      <trkpt lat="44.39251" lon="4.0946">
        <ele>579.20001220703</ele>
        <time>2014-05-10T15:31:39.000Z</time>
      </trkpt>
      <trkpt lat="44.39239" lon="4.09464">
        <ele>581.40002441406</ele>
        <time>2014-05-10T15:31:47.000Z</time>
      </trkpt>
      <trkpt lat="44.39229" lon="4.09477">
        <ele>579.40002441406</ele>
        <time>2014-05-10T15:31:56.000Z</time>
      </trkpt>
      <trkpt lat="44.39218" lon="4.09488">
        <ele>579.40002441406</ele>
        <time>2014-05-10T15:32:05.000Z</time>
      </trkpt>
      <trkpt lat="44.39208" lon="4.09498">
        <ele>579.59997558594</ele>
        <time>2014-05-10T15:32:13.000Z</time>
      </trkpt>
      <trkpt lat="44.39199" lon="4.09507">
        <ele>579.79998779297</ele>
        <time>2014-05-10T15:32:21.000Z</time>
      </trkpt>
      <trkpt lat="44.39192" lon="4.09519">
        <ele>577.20001220703</ele>
        <time>2014-05-10T15:32:28.000Z</time>
      </trkpt>
      <trkpt lat="44.39184" lon="4.09527">
        <ele>576.59997558594</ele>
        <time>2014-05-10T15:32:36.000Z</time>
      </trkpt>
      <trkpt lat="44.39179" lon="4.09536">
        <ele>575.40002441406</ele>
        <time>2014-05-10T15:32:42.000Z</time>
      </trkpt>
      <trkpt lat="44.39172" lon="4.09551">
        <ele>572.79998779297</ele>
        <time>2014-05-10T15:32:50.000Z</time>
      </trkpt>
      <trkpt lat="44.39165" lon="4.09568">
        <ele>569.79998779297</ele>
        <time>2014-05-10T15:33:00.000Z</time>
      </trkpt>
      <trkpt lat="44.39164" lon="4.09572">
        <ele>569.20001220703</ele>
        <time>2014-05-10T15:33:02.000Z</time>
      </trkpt>
      <trkpt lat="44.39159" lon="4.0958">
        <ele>567.59997558594</ele>
        <time>2014-05-10T15:33:07.000Z</time>
      </trkpt>
      <trkpt lat="44.39151" lon="4.09593">
        <ele>565.59997558594</ele>
        <time>2014-05-10T15:33:16.000Z</time>
      </trkpt>
      <trkpt lat="44.3914" lon="4.09596">
        <ele>567.20001220703</ele>
        <time>2014-05-10T15:33:24.000Z</time>
      </trkpt>
      <trkpt lat="44.39131" lon="4.09589">
        <ele>571.40002441406</ele>
        <time>2014-05-10T15:33:31.000Z</time>
      </trkpt>
      <trkpt lat="44.39122" lon="4.09577">
        <ele>577.59997558594</ele>
        <time>2014-05-10T15:33:40.000Z</time>
      </trkpt>
      <trkpt lat="44.39116" lon="4.0957">
        <ele>581</ele>
        <time>2014-05-10T15:33:45.000Z</time>
      </trkpt>
      <trkpt lat="44.39107" lon="4.09569">
        <ele>583.40002441406</ele>
        <time>2014-05-10T15:33:52.000Z</time>
      </trkpt>
      <trkpt lat="44.39101" lon="4.09573">
        <ele>583.59997558594</ele>
        <time>2014-05-10T15:33:57.000Z</time>
      </trkpt>
      <trkpt lat="44.39094" lon="4.09581">
        <ele>582.40002441406</ele>
        <time>2014-05-10T15:34:03.000Z</time>
      </trkpt>
      <trkpt lat="44.39085" lon="4.09589">
        <ele>581.79998779297</ele>
        <time>2014-05-10T15:34:10.000Z</time>
      </trkpt>
      <trkpt lat="44.39078" lon="4.09596">
        <ele>581.40002441406</ele>
        <time>2014-05-10T15:34:16.000Z</time>
      </trkpt>
      <trkpt lat="44.3907" lon="4.09605">
        <ele>580.20001220703</ele>
        <time>2014-05-10T15:34:23.000Z</time>
      </trkpt>
      <trkpt lat="44.39064" lon="4.09614">
        <ele>578.79998779297</ele>
        <time>2014-05-10T15:34:29.000Z</time>
      </trkpt>
      <trkpt lat="44.39059" lon="4.09622">
        <ele>577.79998779297</ele>
        <time>2014-05-10T15:34:35.000Z</time>
      </trkpt>
      <trkpt lat="44.39058" lon="4.09623">
        <ele>577.59997558594</ele>
        <time>2014-05-10T15:34:36.000Z</time>
      </trkpt>
      <trkpt lat="44.39052" lon="4.09631">
        <ele>576.59997558594</ele>
        <time>2014-05-10T15:34:43.000Z</time>
      </trkpt>
      <trkpt lat="44.39045" lon="4.09637">
        <ele>576.40002441406</ele>
        <time>2014-05-10T15:34:49.000Z</time>
      </trkpt>
      <trkpt lat="44.39034" lon="4.09641">
        <ele>577</ele>
        <time>2014-05-10T15:34:57.000Z</time>
      </trkpt>
      <trkpt lat="44.39023" lon="4.09642">
        <ele>578.59997558594</ele>
        <time>2014-05-10T15:35:05.000Z</time>
      </trkpt>
      <trkpt lat="44.39021" lon="4.09642">
        <ele>579</ele>
        <time>2014-05-10T15:35:06.000Z</time>
      </trkpt>
      <trkpt lat="44.39017" lon="4.0964">
        <ele>580.40002441406</ele>
        <time>2014-05-10T15:35:09.000Z</time>
      </trkpt>
      <trkpt lat="44.39009" lon="4.09637">
        <ele>582.79998779297</ele>
        <time>2014-05-10T15:35:15.000Z</time>
      </trkpt>
      <trkpt lat="44.39004" lon="4.09633">
        <ele>585.20001220703</ele>
        <time>2014-05-10T15:35:19.000Z</time>
      </trkpt>
      <trkpt lat="44.39" lon="4.09628">
        <ele>587.40002441406</ele>
        <time>2014-05-10T15:35:23.000Z</time>
      </trkpt>
      <trkpt lat="44.38991" lon="4.09618">
        <ele>592.20001220703</ele>
        <time>2014-05-10T15:35:31.000Z</time>
      </trkpt>
      <trkpt lat="44.38985" lon="4.0961">
        <ele>595.79998779297</ele>
        <time>2014-05-10T15:35:37.000Z</time>
      </trkpt>
      <trkpt lat="44.38974" lon="4.09602">
        <ele>600.40002441406</ele>
        <time>2014-05-10T15:35:45.000Z</time>
      </trkpt>
      <trkpt lat="44.38971" lon="4.09601">
        <ele>601</ele>
        <time>2014-05-10T15:35:47.000Z</time>
      </trkpt>
      <trkpt lat="44.38966" lon="4.09603">
        <ele>601.40002441406</ele>
        <time>2014-05-10T15:35:51.000Z</time>
      </trkpt>
      <trkpt lat="44.38963" lon="4.09606">
        <ele>601.20001220703</ele>
        <time>2014-05-10T15:35:53.000Z</time>
      </trkpt>
      <trkpt lat="44.38958" lon="4.09614">
        <ele>599.79998779297</ele>
        <time>2014-05-10T15:35:59.000Z</time>
      </trkpt>
      <trkpt lat="44.38957" lon="4.09616">
        <ele>599.59997558594</ele>
        <time>2014-05-10T15:36:00.000Z</time>
      </trkpt>
      <trkpt lat="44.38952" lon="4.09632">
        <ele>598.20001220703</ele>
        <time>2014-05-10T15:36:09.000Z</time>
      </trkpt>
      <trkpt lat="44.38949" lon="4.09644">
        <ele>597.40002441406</ele>
        <time>2014-05-10T15:36:16.000Z</time>
      </trkpt>
      <trkpt lat="44.38949" lon="4.09645">
        <ele>597.20001220703</ele>
        <time>2014-05-10T15:36:17.000Z</time>
      </trkpt>
      <trkpt lat="44.38945" lon="4.09654">
        <ele>597.20001220703</ele>
        <time>2014-05-10T15:36:22.000Z</time>
      </trkpt>
      <trkpt lat="44.38944" lon="4.09655">
        <ele>597.40002441406</ele>
        <time>2014-05-10T15:36:23.000Z</time>
      </trkpt>
      <trkpt lat="44.38943" lon="4.09658">
        <ele>597.40002441406</ele>
        <time>2014-05-10T15:36:25.000Z</time>
      </trkpt>
      <trkpt lat="44.38942" lon="4.09662">
        <ele>597.40002441406</ele>
        <time>2014-05-10T15:36:27.000Z</time>
      </trkpt>
      <trkpt lat="44.38934" lon="4.09675">
        <ele>598.20001220703</ele>
        <time>2014-05-10T15:36:35.000Z</time>
      </trkpt>
      <trkpt lat="44.38924" lon="4.09688">
        <ele>598.59997558594</ele>
        <time>2014-05-10T15:36:44.000Z</time>
      </trkpt>
      <trkpt lat="44.38918" lon="4.097">
        <ele>598.59997558594</ele>
        <time>2014-05-10T15:36:51.000Z</time>
      </trkpt>
      <trkpt lat="44.38912" lon="4.09712">
        <ele>598.59997558594</ele>
        <time>2014-05-10T15:36:58.000Z</time>
      </trkpt>
      <trkpt lat="44.38908" lon="4.09721">
        <ele>598.59997558594</ele>
        <time>2014-05-10T15:37:03.000Z</time>
      </trkpt>
      <trkpt lat="44.38904" lon="4.0973">
        <ele>598.40002441406</ele>
        <time>2014-05-10T15:37:08.000Z</time>
      </trkpt>
      <trkpt lat="44.38898" lon="4.09742">
        <ele>597</ele>
        <time>2014-05-10T15:37:15.000Z</time>
      </trkpt>
      <trkpt lat="44.3889" lon="4.09756">
        <ele>595.40002441406</ele>
        <time>2014-05-10T15:37:24.000Z</time>
      </trkpt>
      <trkpt lat="44.38886" lon="4.09764">
        <ele>594.40002441406</ele>
        <time>2014-05-10T15:37:29.000Z</time>
      </trkpt>
      <trkpt lat="44.38884" lon="4.0977">
        <ele>593.40002441406</ele>
        <time>2014-05-10T15:37:33.000Z</time>
      </trkpt>
      <trkpt lat="44.38881" lon="4.09779">
        <ele>592.40002441406</ele>
        <time>2014-05-10T15:37:39.000Z</time>
      </trkpt>
      <trkpt lat="44.38877" lon="4.09787">
        <ele>593.20001220703</ele>
        <time>2014-05-10T15:37:45.000Z</time>
      </trkpt>
      <trkpt lat="44.38875" lon="4.09794">
        <ele>592.59997558594</ele>
        <time>2014-05-10T15:37:49.000Z</time>
      </trkpt>
      <trkpt lat="44.3887" lon="4.0981">
        <ele>590.79998779297</ele>
        <time>2014-05-10T15:37:58.000Z</time>
      </trkpt>
      <trkpt lat="44.38863" lon="4.09819">
        <ele>590</ele>
        <time>2014-05-10T15:38:04.000Z</time>
      </trkpt>
      <trkpt lat="44.38856" lon="4.0983">
        <ele>588.40002441406</ele>
        <time>2014-05-10T15:38:11.000Z</time>
      </trkpt>
      <trkpt lat="44.3885" lon="4.09841">
        <ele>587.20001220703</ele>
        <time>2014-05-10T15:38:17.000Z</time>
      </trkpt>
      <trkpt lat="44.38845" lon="4.09848">
        <ele>584.40002441406</ele>
        <time>2014-05-10T15:38:22.000Z</time>
      </trkpt>
      <trkpt lat="44.38844" lon="4.09849">
        <ele>583.79998779297</ele>
        <time>2014-05-10T15:38:23.000Z</time>
      </trkpt>
      <trkpt lat="44.3884" lon="4.09851">
        <ele>582.59997558594</ele>
        <time>2014-05-10T15:38:27.000Z</time>
      </trkpt>
      <trkpt lat="44.38834" lon="4.09851">
        <ele>581.59997558594</ele>
        <time>2014-05-10T15:38:44.000Z</time>
      </trkpt>
      <trkpt lat="44.38832" lon="4.0985">
        <ele>581.59997558594</ele>
        <time>2014-05-10T15:38:46.000Z</time>
      </trkpt>
      <trkpt lat="44.38827" lon="4.09848">
        <ele>581.59997558594</ele>
        <time>2014-05-10T15:38:51.000Z</time>
      </trkpt>
      <trkpt lat="44.38819" lon="4.09838">
        <ele>583.40002441406</ele>
        <time>2014-05-10T15:39:00.000Z</time>
      </trkpt>
      <trkpt lat="44.38814" lon="4.09832">
        <ele>584.59997558594</ele>
        <time>2014-05-10T15:39:05.000Z</time>
      </trkpt>
      <trkpt lat="44.38811" lon="4.09829">
        <ele>585.20001220703</ele>
        <time>2014-05-10T15:39:08.000Z</time>
      </trkpt>
      <trkpt lat="44.38807" lon="4.09826">
        <ele>585.59997558594</ele>
        <time>2014-05-10T15:39:12.000Z</time>
      </trkpt>
      <trkpt lat="44.38804" lon="4.09822">
        <ele>586.20001220703</ele>
        <time>2014-05-10T15:39:16.000Z</time>
      </trkpt>
      <trkpt lat="44.38801" lon="4.09821">
        <ele>586</ele>
        <time>2014-05-10T15:39:18.000Z</time>
      </trkpt>
      <trkpt lat="44.38797" lon="4.09819">
        <ele>586.20001220703</ele>
        <time>2014-05-10T15:39:22.000Z</time>
      </trkpt>
      <trkpt lat="44.38789" lon="4.09818">
        <ele>584.79998779297</ele>
        <time>2014-05-10T15:39:30.000Z</time>
      </trkpt>
      <trkpt lat="44.38785" lon="4.09818">
        <ele>584.40002441406</ele>
        <time>2014-05-10T15:39:34.000Z</time>
      </trkpt>
      <trkpt lat="44.38777" lon="4.09817">
        <ele>584.59997558594</ele>
        <time>2014-05-10T15:39:40.000Z</time>
      </trkpt>
      <trkpt lat="44.38775" lon="4.09817">
        <ele>584.59997558594</ele>
        <time>2014-05-10T15:39:41.000Z</time>
      </trkpt>
      <trkpt lat="44.38772" lon="4.09818">
        <ele>584.59997558594</ele>
        <time>2014-05-10T15:39:43.000Z</time>
      </trkpt>
      <trkpt lat="44.38763" lon="4.09821">
        <ele>584.40002441406</ele>
        <time>2014-05-10T15:39:50.000Z</time>
      </trkpt>
      <trkpt lat="44.38756" lon="4.09826">
        <ele>583.40002441406</ele>
        <time>2014-05-10T15:39:55.000Z</time>
      </trkpt>
      <trkpt lat="44.3875" lon="4.0983">
        <ele>582.59997558594</ele>
        <time>2014-05-10T15:40:00.000Z</time>
      </trkpt>
      <trkpt lat="44.38746" lon="4.09833">
        <ele>581.59997558594</ele>
        <time>2014-05-10T15:40:09.000Z</time>
      </trkpt>
      <trkpt lat="44.38744" lon="4.09837">
        <ele>580.20001220703</ele>
        <time>2014-05-10T15:40:19.000Z</time>
      </trkpt>
      <trkpt lat="44.38743" lon="4.09843">
        <ele>577.79998779297</ele>
        <time>2014-05-10T15:40:25.000Z</time>
      </trkpt>
      <trkpt lat="44.38741" lon="4.09846">
        <ele>576.59997558594</ele>
        <time>2014-05-10T15:40:29.000Z</time>
      </trkpt>
      <trkpt lat="44.38739" lon="4.0985">
        <ele>575.20001220703</ele>
        <time>2014-05-10T15:40:34.000Z</time>
      </trkpt>
      <trkpt lat="44.38736" lon="4.09854">
        <ele>573.59997558594</ele>
        <time>2014-05-10T15:40:38.000Z</time>
      </trkpt>
      <trkpt lat="44.38731" lon="4.0986">
        <ele>571.40002441406</ele>
        <time>2014-05-10T15:40:45.000Z</time>
      </trkpt>
      <trkpt lat="44.3873" lon="4.09861">
        <ele>571.20001220703</ele>
        <time>2014-05-10T15:40:46.000Z</time>
      </trkpt>
      <trkpt lat="44.38724" lon="4.09868">
        <ele>569.79998779297</ele>
        <time>2014-05-10T15:40:53.000Z</time>
      </trkpt>
      <trkpt lat="44.38723" lon="4.09869">
        <ele>569.59997558594</ele>
        <time>2014-05-10T15:40:54.000Z</time>
      </trkpt>
      <trkpt lat="44.38717" lon="4.09874">
        <ele>568.79998779297</ele>
        <time>2014-05-10T15:40:59.000Z</time>
      </trkpt>
      <trkpt lat="44.38708" lon="4.09881">
        <ele>567.20001220703</ele>
        <time>2014-05-10T15:41:06.000Z</time>
      </trkpt>
      <trkpt lat="44.38702" lon="4.09887">
        <ele>565.40002441406</ele>
        <time>2014-05-10T15:41:12.000Z</time>
      </trkpt>
      <trkpt lat="44.38696" lon="4.09891">
        <ele>564.59997558594</ele>
        <time>2014-05-10T15:41:19.000Z</time>
      </trkpt>
      <trkpt lat="44.38695" lon="4.09891">
        <ele>564.59997558594</ele>
        <time>2014-05-10T15:41:20.000Z</time>
      </trkpt>
      <trkpt lat="44.38694" lon="4.09892">
        <ele>564.40002441406</ele>
        <time>2014-05-10T15:41:21.000Z</time>
      </trkpt>
      <trkpt lat="44.38689" lon="4.09899">
        <ele>562.59997558594</ele>
        <time>2014-05-10T15:41:27.000Z</time>
      </trkpt>
      <trkpt lat="44.38688" lon="4.09901">
        <ele>562.20001220703</ele>
        <time>2014-05-10T15:41:28.000Z</time>
      </trkpt>
      <trkpt lat="44.3868" lon="4.09911">
        <ele>559.79998779297</ele>
        <time>2014-05-10T15:41:37.000Z</time>
      </trkpt>
      <trkpt lat="44.38676" lon="4.09916">
        <ele>558.79998779297</ele>
        <time>2014-05-10T15:41:42.000Z</time>
      </trkpt>
      <trkpt lat="44.38674" lon="4.09918">
        <ele>558</ele>
        <time>2014-05-10T15:41:45.000Z</time>
      </trkpt>
      <trkpt lat="44.38671" lon="4.09919">
        <ele>558</ele>
        <time>2014-05-10T15:41:47.000Z</time>
      </trkpt>
      <trkpt lat="44.38669" lon="4.09925">
        <ele>556.40002441406</ele>
        <time>2014-05-10T15:41:51.000Z</time>
      </trkpt>
      <trkpt lat="44.38667" lon="4.09931">
        <ele>555.20001220703</ele>
        <time>2014-05-10T15:41:54.000Z</time>
      </trkpt>
      <trkpt lat="44.38662" lon="4.09938">
        <ele>553.59997558594</ele>
        <time>2014-05-10T15:41:59.000Z</time>
      </trkpt>
      <trkpt lat="44.38658" lon="4.09945">
        <ele>551.79998779297</ele>
        <time>2014-05-10T15:42:04.000Z</time>
      </trkpt>
      <trkpt lat="44.38654" lon="4.09951">
        <ele>550.40002441406</ele>
        <time>2014-05-10T15:42:08.000Z</time>
      </trkpt>
      <trkpt lat="44.38651" lon="4.09952">
        <ele>550</ele>
        <time>2014-05-10T15:42:10.000Z</time>
      </trkpt>
      <trkpt lat="44.38642" lon="4.09954">
        <ele>550</ele>
        <time>2014-05-10T15:42:19.000Z</time>
      </trkpt>
      <trkpt lat="44.38635" lon="4.09958">
        <ele>549</ele>
        <time>2014-05-10T15:42:26.000Z</time>
      </trkpt>
      <trkpt lat="44.38629" lon="4.09965">
        <ele>547.40002441406</ele>
        <time>2014-05-10T15:42:32.000Z</time>
      </trkpt>
      <trkpt lat="44.38621" lon="4.0997">
        <ele>546.79998779297</ele>
        <time>2014-05-10T15:42:38.000Z</time>
      </trkpt>
      <trkpt lat="44.38613" lon="4.09973">
        <ele>546</ele>
        <time>2014-05-10T15:42:45.000Z</time>
      </trkpt>
      <trkpt lat="44.38608" lon="4.09975">
        <ele>544.59997558594</ele>
        <time>2014-05-10T15:42:49.000Z</time>
      </trkpt>
      <trkpt lat="44.38601" lon="4.09979">
        <ele>542.40002441406</ele>
        <time>2014-05-10T15:42:56.000Z</time>
      </trkpt>
      <trkpt lat="44.38595" lon="4.09983">
        <ele>540.20001220703</ele>
        <time>2014-05-10T15:43:02.000Z</time>
      </trkpt>
      <trkpt lat="44.38588" lon="4.09984">
        <ele>538.59997558594</ele>
        <time>2014-05-10T15:43:08.000Z</time>
      </trkpt>
      <trkpt lat="44.38585" lon="4.09985">
        <ele>538</ele>
        <time>2014-05-10T15:43:10.000Z</time>
      </trkpt>
      <trkpt lat="44.38578" lon="4.09985">
        <ele>536.79998779297</ele>
        <time>2014-05-10T15:43:16.000Z</time>
      </trkpt>
      <trkpt lat="44.38567" lon="4.09985">
        <ele>535.59997558594</ele>
        <time>2014-05-10T15:43:24.000Z</time>
      </trkpt>
      <trkpt lat="44.38566" lon="4.09985">
        <ele>535.59997558594</ele>
        <time>2014-05-10T15:43:25.000Z</time>
      </trkpt>
      <trkpt lat="44.38558" lon="4.09987">
        <ele>535</ele>
        <time>2014-05-10T15:43:30.000Z</time>
      </trkpt>
      <trkpt lat="44.38551" lon="4.09988">
        <ele>534.40002441406</ele>
        <time>2014-05-10T15:43:36.000Z</time>
      </trkpt>
      <trkpt lat="44.3855" lon="4.09988">
        <ele>534.40002441406</ele>
        <time>2014-05-10T15:43:37.000Z</time>
      </trkpt>
      <trkpt lat="44.38547" lon="4.09988">
        <ele>534.20001220703</ele>
        <time>2014-05-10T15:43:40.000Z</time>
      </trkpt>
      <trkpt lat="44.38541" lon="4.09992">
        <ele>533.20001220703</ele>
        <time>2014-05-10T15:43:46.000Z</time>
      </trkpt>
      <trkpt lat="44.38539" lon="4.09992">
        <ele>533.20001220703</ele>
        <time>2014-05-10T15:43:47.000Z</time>
      </trkpt>
      <trkpt lat="44.38534" lon="4.09995">
        <ele>532.40002441406</ele>
        <time>2014-05-10T15:43:52.000Z</time>
      </trkpt>
      <trkpt lat="44.38528" lon="4.09998">
        <ele>530.40002441406</ele>
        <time>2014-05-10T15:43:57.000Z</time>
      </trkpt>
      <trkpt lat="44.38522" lon="4.10002">
        <ele>528</ele>
        <time>2014-05-10T15:44:01.000Z</time>
      </trkpt>
      <trkpt lat="44.38513" lon="4.10006">
        <ele>524.20001220703</ele>
        <time>2014-05-10T15:44:08.000Z</time>
      </trkpt>
      <trkpt lat="44.3851" lon="4.10007">
        <ele>523.20001220703</ele>
        <time>2014-05-10T15:44:11.000Z</time>
      </trkpt>
      <trkpt lat="44.38502" lon="4.10013">
        <ele>522</ele>
        <time>2014-05-10T15:44:18.000Z</time>
      </trkpt>
      <trkpt lat="44.38495" lon="4.10016">
        <ele>520.79998779297</ele>
        <time>2014-05-10T15:44:23.000Z</time>
      </trkpt>
      <trkpt lat="44.38489" lon="4.10015">
        <ele>519.79998779297</ele>
        <time>2014-05-10T15:44:28.000Z</time>
      </trkpt>
      <trkpt lat="44.38483" lon="4.10014">
        <ele>518.59997558594</ele>
        <time>2014-05-10T15:44:33.000Z</time>
      </trkpt>
      <trkpt lat="44.38479" lon="4.10014">
        <ele>518.20001220703</ele>
        <time>2014-05-10T15:44:36.000Z</time>
      </trkpt>
      <trkpt lat="44.38476" lon="4.10013">
        <ele>517.40002441406</ele>
        <time>2014-05-10T15:44:40.000Z</time>
      </trkpt>
      <trkpt lat="44.38473" lon="4.10015">
        <ele>517</ele>
        <time>2014-05-10T15:44:50.000Z</time>
      </trkpt>
      <trkpt lat="44.38474" lon="4.10015">
        <ele>517.20001220703</ele>
        <time>2014-05-10T15:44:56.000Z</time>
      </trkpt>
      <trkpt lat="44.38474" lon="4.10016">
        <ele>517.20001220703</ele>
        <time>2014-05-10T15:45:01.000Z</time>
      </trkpt>
      <trkpt lat="44.38472" lon="4.10016">
        <ele>516.79998779297</ele>
        <time>2014-05-10T15:45:12.000Z</time>
      </trkpt>
      <trkpt lat="44.38466" lon="4.10018">
        <ele>516</ele>
        <time>2014-05-10T15:45:23.000Z</time>
      </trkpt>
      <trkpt lat="44.38466" lon="4.1002">
        <ele>516</ele>
        <time>2014-05-10T15:45:24.000Z</time>
      </trkpt>
      <trkpt lat="44.38463" lon="4.10022">
        <ele>515.40002441406</ele>
        <time>2014-05-10T15:45:27.000Z</time>
      </trkpt>
      <trkpt lat="44.38462" lon="4.10022">
        <ele>515.20001220703</ele>
        <time>2014-05-10T15:45:28.000Z</time>
      </trkpt>
      <trkpt lat="44.38457" lon="4.10019">
        <ele>514.40002441406</ele>
        <time>2014-05-10T15:45:32.000Z</time>
      </trkpt>
      <trkpt lat="44.38452" lon="4.10017">
        <ele>513.59997558594</ele>
        <time>2014-05-10T15:45:36.000Z</time>
      </trkpt>
      <trkpt lat="44.3845" lon="4.10016">
        <ele>513.20001220703</ele>
        <time>2014-05-10T15:45:39.000Z</time>
      </trkpt>
      <trkpt lat="44.38445" lon="4.10014">
        <ele>512</ele>
        <time>2014-05-10T15:45:43.000Z</time>
      </trkpt>
      <trkpt lat="44.38438" lon="4.10012">
        <ele>510.20001220703</ele>
        <time>2014-05-10T15:45:49.000Z</time>
      </trkpt>
      <trkpt lat="44.38435" lon="4.10009">
        <ele>509.20001220703</ele>
        <time>2014-05-10T15:45:55.000Z</time>
      </trkpt>
      <trkpt lat="44.38435" lon="4.10009">
        <ele>509.20001220703</ele>
        <time>2014-05-10T15:45:58.000Z</time>
      </trkpt>
      <trkpt lat="44.38427" lon="4.1001">
        <ele>507.20001220703</ele>
        <time>2014-05-10T15:46:05.000Z</time>
      </trkpt>
      <trkpt lat="44.38423" lon="4.10012">
        <ele>506.39999389648</ele>
        <time>2014-05-10T15:46:10.000Z</time>
      </trkpt>
      <trkpt lat="44.38421" lon="4.10011">
        <ele>505.79998779297</ele>
        <time>2014-05-10T15:46:15.000Z</time>
      </trkpt>
      <trkpt lat="44.3842" lon="4.10012">
        <ele>505.79998779297</ele>
        <time>2014-05-10T15:46:23.000Z</time>
      </trkpt>
      <trkpt lat="44.38423" lon="4.10014">
        <ele>506.39999389648</ele>
        <time>2014-05-10T15:46:32.000Z</time>
      </trkpt>
      <trkpt lat="44.38424" lon="4.10014">
        <ele>506.79998779297</ele>
        <time>2014-05-10T15:46:37.000Z</time>
      </trkpt>
      <trkpt lat="44.38427" lon="4.10014">
        <ele>507.39999389648</ele>
        <time>2014-05-10T15:46:56.000Z</time>
      </trkpt>
      <trkpt lat="44.38429" lon="4.1001">
        <ele>507.79998779297</ele>
        <time>2014-05-10T15:47:00.000Z</time>
      </trkpt>
      <trkpt lat="44.38432" lon="4.10002">
        <ele>508.20001220703</ele>
        <time>2014-05-10T15:47:05.000Z</time>
      </trkpt>
      <trkpt lat="44.38433" lon="4.09998">
        <ele>508.60000610352</ele>
        <time>2014-05-10T15:47:09.000Z</time>
      </trkpt>
      <trkpt lat="44.38436" lon="4.09992">
        <ele>509.20001220703</ele>
        <time>2014-05-10T15:47:13.000Z</time>
      </trkpt>
      <trkpt lat="44.38438" lon="4.09989">
        <ele>509.79998779297</ele>
        <time>2014-05-10T15:47:17.000Z</time>
      </trkpt>
      <trkpt lat="44.3844" lon="4.09985">
        <ele>510.20001220703</ele>
        <time>2014-05-10T15:47:19.000Z</time>
      </trkpt>
      <trkpt lat="44.38441" lon="4.09981">
        <ele>510.39999389648</ele>
        <time>2014-05-10T15:47:23.000Z</time>
      </trkpt>
      <trkpt lat="44.38442" lon="4.09975">
        <ele>510.60000610352</ele>
        <time>2014-05-10T15:47:28.000Z</time>
      </trkpt>
      <trkpt lat="44.38442" lon="4.09973">
        <ele>510.60000610352</ele>
        <time>2014-05-10T15:47:29.000Z</time>
      </trkpt>
      <trkpt lat="44.38442" lon="4.09967">
        <ele>510.79998779297</ele>
        <time>2014-05-10T15:47:32.000Z</time>
      </trkpt>
      <trkpt lat="44.38444" lon="4.09961">
        <ele>511</ele>
        <time>2014-05-10T15:47:36.000Z</time>
      </trkpt>
      <trkpt lat="44.38444" lon="4.09958">
        <ele>511</ele>
        <time>2014-05-10T15:47:38.000Z</time>
      </trkpt>
      <trkpt lat="44.38444" lon="4.09953">
        <ele>511</ele>
        <time>2014-05-10T15:47:41.000Z</time>
      </trkpt>
      <trkpt lat="44.38445" lon="4.09944">
        <ele>511.20001220703</ele>
        <time>2014-05-10T15:47:46.000Z</time>
      </trkpt>
      <trkpt lat="44.38449" lon="4.09927">
        <ele>514</ele>
        <time>2014-05-10T15:47:55.000Z</time>
      </trkpt>
      <trkpt lat="44.38452" lon="4.09912">
        <ele>516.59997558594</ele>
        <time>2014-05-10T15:48:04.000Z</time>
      </trkpt>
      <trkpt lat="44.38451" lon="4.09906">
        <ele>517.20001220703</ele>
        <time>2014-05-10T15:48:08.000Z</time>
      </trkpt>
    </trkseg>
  </trk>
</gpx>